<?xml version="1.0" encoding="UTF-8" standalone="no" ?>
<gpx xmlns="http://www.topografix.com/GPX/1/1" xmlns:xsi="http://www.w3.org/2001/XMLSchema-instance" xsi:schemaLocation="http://www.topografix.com/GPX/1/1 http://www.topografix.com/GPX/1/1/gpx.xsd" version="1.1" creator="VisuGPX - https://www.visugpx.com">
  <metadata>
    <name>Rochefort du Gard 40km</name>
    <desc><![CDATA[Rochefort du Gard 40km]]></desc>
  </metadata>
  <trk>
    <name><![CDATA[(c) UtagawaVTT.com]]></name>
    <trkseg>
      <trkpt lat="43.98019" lon="4.68422">
        <ele>132.15538</ele>
        <time>2009-03-22T07:51:18Z</time>
      </trkpt>
      <trkpt lat="43.98017" lon="4.68418">
        <ele>132.015472</ele>
        <time>2009-03-22T07:51:31Z</time>
      </trkpt>
      <trkpt lat="43.98017" lon="4.68421">
        <ele>132.190964</ele>
        <time>2009-03-22T07:51:35Z</time>
      </trkpt>
      <trkpt lat="43.98012" lon="4.68432">
        <ele>132.828949</ele>
        <time>2009-03-22T07:52:34Z</time>
      </trkpt>
      <trkpt lat="43.98009" lon="4.68434">
        <ele>132.9944</ele>
        <time>2009-03-22T07:52:37Z</time>
      </trkpt>
      <trkpt lat="43.98005" lon="4.68445">
        <ele>133.550583</ele>
        <time>2009-03-22T07:52:46Z</time>
      </trkpt>
      <trkpt lat="43.97997" lon="4.68461">
        <ele>133.987244</ele>
        <time>2009-03-22T07:53:01Z</time>
      </trkpt>
      <trkpt lat="43.97993" lon="4.68467">
        <ele>134.173294</ele>
        <time>2009-03-22T07:53:05Z</time>
      </trkpt>
      <trkpt lat="43.97986" lon="4.68483">
        <ele>134.565933</ele>
        <time>2009-03-22T07:53:16Z</time>
      </trkpt>
      <trkpt lat="43.97982" lon="4.68486">
        <ele>134.708862</ele>
        <time>2009-03-22T07:53:20Z</time>
      </trkpt>
      <trkpt lat="43.97965" lon="4.68481">
        <ele>135.40979</ele>
        <time>2009-03-22T07:53:34Z</time>
      </trkpt>
      <trkpt lat="43.97951" lon="4.6851">
        <ele>136.328979</ele>
        <time>2009-03-22T07:53:51Z</time>
      </trkpt>
      <trkpt lat="43.97944" lon="4.6853">
        <ele>136.638687</ele>
        <time>2009-03-22T07:54:01Z</time>
      </trkpt>
      <trkpt lat="43.97936" lon="4.68536">
        <ele>137.006271</ele>
        <time>2009-03-22T07:54:08Z</time>
      </trkpt>
      <trkpt lat="43.97925" lon="4.68534">
        <ele>137.626495</ele>
        <time>2009-03-22T07:54:18Z</time>
      </trkpt>
      <trkpt lat="43.97906" lon="4.68522">
        <ele>138.569199</ele>
        <time>2009-03-22T07:54:29Z</time>
      </trkpt>
      <trkpt lat="43.979" lon="4.68515">
        <ele>138.775574</ele>
        <time>2009-03-22T07:54:35Z</time>
      </trkpt>
      <trkpt lat="43.97897" lon="4.68508">
        <ele>138.87532</ele>
        <time>2009-03-22T07:54:41Z</time>
      </trkpt>
      <trkpt lat="43.97895" lon="4.68507">
        <ele>138.957062</ele>
        <time>2009-03-22T07:54:52Z</time>
      </trkpt>
      <trkpt lat="43.97865" lon="4.6847">
        <ele>140.03241</ele>
        <time>2009-03-22T07:55:26Z</time>
      </trkpt>
      <trkpt lat="43.97851" lon="4.68455">
        <ele>140.777328</ele>
        <time>2009-03-22T07:55:34Z</time>
      </trkpt>
      <trkpt lat="43.97839" lon="4.68434">
        <ele>141.184586</ele>
        <time>2009-03-22T07:55:42Z</time>
      </trkpt>
      <trkpt lat="43.97822" lon="4.68402">
        <ele>141.392288</ele>
        <time>2009-03-22T07:55:52Z</time>
      </trkpt>
      <trkpt lat="43.97791" lon="4.6834">
        <ele>142.502579</ele>
        <time>2009-03-22T07:56:11Z</time>
      </trkpt>
      <trkpt lat="43.97775" lon="4.68311">
        <ele>142.963989</ele>
        <time>2009-03-22T07:56:21Z</time>
      </trkpt>
      <trkpt lat="43.97756" lon="4.68284">
        <ele>143.318954</ele>
        <time>2009-03-22T07:56:31Z</time>
      </trkpt>
      <trkpt lat="43.97737" lon="4.68258">
        <ele>143.675903</ele>
        <time>2009-03-22T07:56:41Z</time>
      </trkpt>
      <trkpt lat="43.97716" lon="4.68228">
        <ele>144.232071</ele>
        <time>2009-03-22T07:56:52Z</time>
      </trkpt>
      <trkpt lat="43.97697" lon="4.68195">
        <ele>144.670166</ele>
        <time>2009-03-22T07:57:04Z</time>
      </trkpt>
      <trkpt lat="43.97689" lon="4.68179">
        <ele>145.029724</ele>
        <time>2009-03-22T07:57:09Z</time>
      </trkpt>
      <trkpt lat="43.97676" lon="4.68159">
        <ele>145.337784</ele>
        <time>2009-03-22T07:57:16Z</time>
      </trkpt>
      <trkpt lat="43.97664" lon="4.68133">
        <ele>145.682709</ele>
        <time>2009-03-22T07:57:23Z</time>
      </trkpt>
      <trkpt lat="43.9765" lon="4.68111">
        <ele>146.089264</ele>
        <time>2009-03-22T07:57:30Z</time>
      </trkpt>
      <trkpt lat="43.97631" lon="4.68086">
        <ele>146.487503</ele>
        <time>2009-03-22T07:57:38Z</time>
      </trkpt>
      <trkpt lat="43.9762" lon="4.68062">
        <ele>147.065216</ele>
        <time>2009-03-22T07:57:44Z</time>
      </trkpt>
      <trkpt lat="43.97618" lon="4.68047">
        <ele>147.551956</ele>
        <time>2009-03-22T07:57:48Z</time>
      </trkpt>
      <trkpt lat="43.97628" lon="4.68031">
        <ele>148.127594</ele>
        <time>2009-03-22T07:57:53Z</time>
      </trkpt>
      <trkpt lat="43.97647" lon="4.68003">
        <ele>149.477264</ele>
        <time>2009-03-22T07:58:01Z</time>
      </trkpt>
      <trkpt lat="43.97656" lon="4.67976">
        <ele>151.065475</ele>
        <time>2009-03-22T07:58:08Z</time>
      </trkpt>
      <trkpt lat="43.97664" lon="4.67961">
        <ele>152.070511</ele>
        <time>2009-03-22T07:58:13Z</time>
      </trkpt>
      <trkpt lat="43.97737" lon="4.67954">
        <ele>152.567093</ele>
        <time>2009-03-22T07:58:34Z</time>
      </trkpt>
      <trkpt lat="43.97758" lon="4.67961">
        <ele>152.197739</ele>
        <time>2009-03-22T07:58:40Z</time>
      </trkpt>
      <trkpt lat="43.97781" lon="4.67965">
        <ele>151.751404</ele>
        <time>2009-03-22T07:58:46Z</time>
      </trkpt>
      <trkpt lat="43.97785" lon="4.67963">
        <ele>151.714172</ele>
        <time>2009-03-22T07:58:47Z</time>
      </trkpt>
      <trkpt lat="43.97793" lon="4.67937">
        <ele>151.900314</ele>
        <time>2009-03-22T07:58:53Z</time>
      </trkpt>
      <trkpt lat="43.97795" lon="4.67887">
        <ele>150.10199</ele>
        <time>2009-03-22T07:59:05Z</time>
      </trkpt>
      <trkpt lat="43.97805" lon="4.67884">
        <ele>148.822205</ele>
        <time>2009-03-22T07:59:09Z</time>
      </trkpt>
      <trkpt lat="43.97817" lon="4.67893">
        <ele>147.681564</ele>
        <time>2009-03-22T07:59:18Z</time>
      </trkpt>
      <trkpt lat="43.97826" lon="4.67898">
        <ele>145.580933</ele>
        <time>2009-03-22T07:59:23Z</time>
      </trkpt>
      <trkpt lat="43.97838" lon="4.67892">
        <ele>141.957855</ele>
        <time>2009-03-22T07:59:28Z</time>
      </trkpt>
      <trkpt lat="43.97848" lon="4.67893">
        <ele>139.184113</ele>
        <time>2009-03-22T07:59:33Z</time>
      </trkpt>
      <trkpt lat="43.97855" lon="4.67897">
        <ele>137.781616</ele>
        <time>2009-03-22T07:59:36Z</time>
      </trkpt>
      <trkpt lat="43.97869" lon="4.6791">
        <ele>135.692047</ele>
        <time>2009-03-22T07:59:42Z</time>
      </trkpt>
      <trkpt lat="43.97903" lon="4.67971">
        <ele>129.362289</ele>
        <time>2009-03-22T07:59:57Z</time>
      </trkpt>
      <trkpt lat="43.97911" lon="4.67976">
        <ele>128.010223</ele>
        <time>2009-03-22T08:00:01Z</time>
      </trkpt>
      <trkpt lat="43.97914" lon="4.67977">
        <ele>127.067101</ele>
        <time>2009-03-22T08:00:03Z</time>
      </trkpt>
      <trkpt lat="43.97934" lon="4.67972">
        <ele>121.849007</ele>
        <time>2009-03-22T08:00:10Z</time>
      </trkpt>
      <trkpt lat="43.97955" lon="4.67997">
        <ele>117.568588</ele>
        <time>2009-03-22T08:00:17Z</time>
      </trkpt>
      <trkpt lat="43.97965" lon="4.68016">
        <ele>116.692604</ele>
        <time>2009-03-22T08:00:20Z</time>
      </trkpt>
      <trkpt lat="43.97982" lon="4.68058">
        <ele>114.102715</ele>
        <time>2009-03-22T08:00:25Z</time>
      </trkpt>
      <trkpt lat="43.97987" lon="4.68075">
        <ele>113.127785</ele>
        <time>2009-03-22T08:00:27Z</time>
      </trkpt>
      <trkpt lat="43.98006" lon="4.68104">
        <ele>111.47213</ele>
        <time>2009-03-22T08:00:31Z</time>
      </trkpt>
      <trkpt lat="43.98016" lon="4.68128">
        <ele>110.288025</ele>
        <time>2009-03-22T08:00:35Z</time>
      </trkpt>
      <trkpt lat="43.98022" lon="4.6814">
        <ele>109.759941</ele>
        <time>2009-03-22T08:00:38Z</time>
      </trkpt>
      <trkpt lat="43.98037" lon="4.68149">
        <ele>107.7052</ele>
        <time>2009-03-22T08:00:41Z</time>
      </trkpt>
      <trkpt lat="43.9805" lon="4.68173">
        <ele>106.874039</ele>
        <time>2009-03-22T08:00:46Z</time>
      </trkpt>
      <trkpt lat="43.98065" lon="4.68198">
        <ele>104.109261</ele>
        <time>2009-03-22T08:00:51Z</time>
      </trkpt>
      <trkpt lat="43.98082" lon="4.68212">
        <ele>101.490898</ele>
        <time>2009-03-22T08:00:58Z</time>
      </trkpt>
      <trkpt lat="43.98088" lon="4.68223">
        <ele>101.218712</ele>
        <time>2009-03-22T08:01:01Z</time>
      </trkpt>
      <trkpt lat="43.98095" lon="4.68246">
        <ele>100.460159</ele>
        <time>2009-03-22T08:01:05Z</time>
      </trkpt>
      <trkpt lat="43.98106" lon="4.68273">
        <ele>100.261017</ele>
        <time>2009-03-22T08:01:10Z</time>
      </trkpt>
      <trkpt lat="43.98175" lon="4.68372">
        <ele>101.888397</ele>
        <time>2009-03-22T08:01:33Z</time>
      </trkpt>
      <trkpt lat="43.98197" lon="4.68409">
        <ele>100.28923</ele>
        <time>2009-03-22T08:01:41Z</time>
      </trkpt>
      <trkpt lat="43.98238" lon="4.68486">
        <ele>101.476433</ele>
        <time>2009-03-22T08:01:56Z</time>
      </trkpt>
      <trkpt lat="43.9825" lon="4.68505">
        <ele>101.937378</ele>
        <time>2009-03-22T08:02:00Z</time>
      </trkpt>
      <trkpt lat="43.9827" lon="4.68511">
        <ele>100.964943</ele>
        <time>2009-03-22T08:02:05Z</time>
      </trkpt>
      <trkpt lat="43.98294" lon="4.68499">
        <ele>99.099571</ele>
        <time>2009-03-22T08:02:11Z</time>
      </trkpt>
      <trkpt lat="43.98314" lon="4.68499">
        <ele>99.870941</ele>
        <time>2009-03-22T08:02:15Z</time>
      </trkpt>
      <trkpt lat="43.98323" lon="4.68511">
        <ele>99.119789</ele>
        <time>2009-03-22T08:02:17Z</time>
      </trkpt>
      <trkpt lat="43.98336" lon="4.68559">
        <ele>97.478172</ele>
        <time>2009-03-22T08:02:22Z</time>
      </trkpt>
      <trkpt lat="43.98338" lon="4.68579">
        <ele>95.660416</ele>
        <time>2009-03-22T08:02:24Z</time>
      </trkpt>
      <trkpt lat="43.98344" lon="4.68605">
        <ele>97.469368</ele>
        <time>2009-03-22T08:02:27Z</time>
      </trkpt>
      <trkpt lat="43.98346" lon="4.68636">
        <ele>99.422638</ele>
        <time>2009-03-22T08:02:32Z</time>
      </trkpt>
      <trkpt lat="43.98362" lon="4.6867">
        <ele>100.809959</ele>
        <time>2009-03-22T08:02:39Z</time>
      </trkpt>
      <trkpt lat="43.98376" lon="4.68714">
        <ele>97.146469</ele>
        <time>2009-03-22T08:02:47Z</time>
      </trkpt>
      <trkpt lat="43.98375" lon="4.68745">
        <ele>96.399223</ele>
        <time>2009-03-22T08:02:53Z</time>
      </trkpt>
      <trkpt lat="43.98379" lon="4.68776">
        <ele>92.713974</ele>
        <time>2009-03-22T08:02:59Z</time>
      </trkpt>
      <trkpt lat="43.9838" lon="4.68804">
        <ele>92.5653</ele>
        <time>2009-03-22T08:03:04Z</time>
      </trkpt>
      <trkpt lat="43.98377" lon="4.68837">
        <ele>94.376328</ele>
        <time>2009-03-22T08:03:10Z</time>
      </trkpt>
      <trkpt lat="43.98387" lon="4.68881">
        <ele>98.413826</ele>
        <time>2009-03-22T08:03:17Z</time>
      </trkpt>
      <trkpt lat="43.98409" lon="4.68939">
        <ele>97.598747</ele>
        <time>2009-03-22T08:03:26Z</time>
      </trkpt>
      <trkpt lat="43.98438" lon="4.69048">
        <ele>97.484634</ele>
        <time>2009-03-22T08:03:41Z</time>
      </trkpt>
      <trkpt lat="43.98445" lon="4.69072">
        <ele>97.173042</ele>
        <time>2009-03-22T08:03:45Z</time>
      </trkpt>
      <trkpt lat="43.98465" lon="4.69106">
        <ele>90.868759</ele>
        <time>2009-03-22T08:03:51Z</time>
      </trkpt>
      <trkpt lat="43.98484" lon="4.6917">
        <ele>89.133392</ele>
        <time>2009-03-22T08:04:01Z</time>
      </trkpt>
      <trkpt lat="43.9849" lon="4.69197">
        <ele>87.942245</ele>
        <time>2009-03-22T08:04:05Z</time>
      </trkpt>
      <trkpt lat="43.98488" lon="4.69224">
        <ele>87.300171</ele>
        <time>2009-03-22T08:04:09Z</time>
      </trkpt>
      <trkpt lat="43.98476" lon="4.69265">
        <ele>86.268982</ele>
        <time>2009-03-22T08:04:16Z</time>
      </trkpt>
      <trkpt lat="43.98459" lon="4.69292">
        <ele>85.736191</ele>
        <time>2009-03-22T08:04:22Z</time>
      </trkpt>
      <trkpt lat="43.98449" lon="4.69313">
        <ele>85.281456</ele>
        <time>2009-03-22T08:04:26Z</time>
      </trkpt>
      <trkpt lat="43.98445" lon="4.69326">
        <ele>84.680046</ele>
        <time>2009-03-22T08:04:28Z</time>
      </trkpt>
      <trkpt lat="43.98424" lon="4.69368">
        <ele>83.831818</ele>
        <time>2009-03-22T08:04:34Z</time>
      </trkpt>
      <trkpt lat="43.98417" lon="4.69412">
        <ele>81.915314</ele>
        <time>2009-03-22T08:04:39Z</time>
      </trkpt>
      <trkpt lat="43.98407" lon="4.69503">
        <ele>77.667686</ele>
        <time>2009-03-22T08:04:48Z</time>
      </trkpt>
      <trkpt lat="43.98407" lon="4.69537">
        <ele>79.475235</ele>
        <time>2009-03-22T08:04:52Z</time>
      </trkpt>
      <trkpt lat="43.98405" lon="4.69567">
        <ele>84.523384</ele>
        <time>2009-03-22T08:04:56Z</time>
      </trkpt>
      <trkpt lat="43.98409" lon="4.69581">
        <ele>84.497055</ele>
        <time>2009-03-22T08:04:59Z</time>
      </trkpt>
      <trkpt lat="43.98412" lon="4.69582">
        <ele>85.31395</ele>
        <time>2009-03-22T08:05:02Z</time>
      </trkpt>
      <trkpt lat="43.98412" lon="4.6957">
        <ele>83.710518</ele>
        <time>2009-03-22T08:05:07Z</time>
      </trkpt>
      <trkpt lat="43.9842" lon="4.69559">
        <ele>84.293076</ele>
        <time>2009-03-22T08:05:11Z</time>
      </trkpt>
      <trkpt lat="43.98446" lon="4.69533">
        <ele>86.150734</ele>
        <time>2009-03-22T08:05:26Z</time>
      </trkpt>
      <trkpt lat="43.98485" lon="4.69515">
        <ele>90.370972</ele>
        <time>2009-03-22T08:05:46Z</time>
      </trkpt>
      <trkpt lat="43.98501" lon="4.69505">
        <ele>91.828285</ele>
        <time>2009-03-22T08:05:54Z</time>
      </trkpt>
      <trkpt lat="43.98516" lon="4.69486">
        <ele>91.81855</ele>
        <time>2009-03-22T08:06:01Z</time>
      </trkpt>
      <trkpt lat="43.9853" lon="4.69463">
        <ele>90.693718</ele>
        <time>2009-03-22T08:06:08Z</time>
      </trkpt>
      <trkpt lat="43.98546" lon="4.69436">
        <ele>90.510849</ele>
        <time>2009-03-22T08:06:15Z</time>
      </trkpt>
      <trkpt lat="43.98555" lon="4.69405">
        <ele>89.581467</ele>
        <time>2009-03-22T08:06:21Z</time>
      </trkpt>
      <trkpt lat="43.9856" lon="4.69378">
        <ele>89.618614</ele>
        <time>2009-03-22T08:06:28Z</time>
      </trkpt>
      <trkpt lat="43.98562" lon="4.69359">
        <ele>89.487007</ele>
        <time>2009-03-22T08:06:34Z</time>
      </trkpt>
      <trkpt lat="43.98567" lon="4.6935">
        <ele>90.275627</ele>
        <time>2009-03-22T08:06:38Z</time>
      </trkpt>
      <trkpt lat="43.98576" lon="4.69344">
        <ele>91.773941</ele>
        <time>2009-03-22T08:06:44Z</time>
      </trkpt>
      <trkpt lat="43.98587" lon="4.69343">
        <ele>93.874702</ele>
        <time>2009-03-22T08:06:51Z</time>
      </trkpt>
      <trkpt lat="43.98592" lon="4.69343">
        <ele>94.956375</ele>
        <time>2009-03-22T08:06:55Z</time>
      </trkpt>
      <trkpt lat="43.98598" lon="4.69347">
        <ele>97.441307</ele>
        <time>2009-03-22T08:07:02Z</time>
      </trkpt>
      <trkpt lat="43.98606" lon="4.69342">
        <ele>100.341187</ele>
        <time>2009-03-22T08:07:12Z</time>
      </trkpt>
      <trkpt lat="43.98609" lon="4.69335">
        <ele>101.364487</ele>
        <time>2009-03-22T08:07:20Z</time>
      </trkpt>
      <trkpt lat="43.98608" lon="4.69327">
        <ele>101.207161</ele>
        <time>2009-03-22T08:07:27Z</time>
      </trkpt>
      <trkpt lat="43.98609" lon="4.69316">
        <ele>101.792572</ele>
        <time>2009-03-22T08:07:35Z</time>
      </trkpt>
      <trkpt lat="43.98613" lon="4.69307">
        <ele>102.90992</ele>
        <time>2009-03-22T08:07:43Z</time>
      </trkpt>
      <trkpt lat="43.98616" lon="4.69306">
        <ele>103.905159</ele>
        <time>2009-03-22T08:07:47Z</time>
      </trkpt>
      <trkpt lat="43.9863" lon="4.69317">
        <ele>108.507874</ele>
        <time>2009-03-22T08:08:06Z</time>
      </trkpt>
      <trkpt lat="43.98647" lon="4.69321">
        <ele>113.594551</ele>
        <time>2009-03-22T08:08:29Z</time>
      </trkpt>
      <trkpt lat="43.98656" lon="4.69319">
        <ele>115.469803</ele>
        <time>2009-03-22T08:08:39Z</time>
      </trkpt>
      <trkpt lat="43.98657" lon="4.69311">
        <ele>115.247673</ele>
        <time>2009-03-22T08:08:46Z</time>
      </trkpt>
      <trkpt lat="43.98656" lon="4.69302">
        <ele>114.187744</ele>
        <time>2009-03-22T08:08:54Z</time>
      </trkpt>
      <trkpt lat="43.98648" lon="4.69284">
        <ele>111.140999</ele>
        <time>2009-03-22T08:09:11Z</time>
      </trkpt>
      <trkpt lat="43.98643" lon="4.69276">
        <ele>109.628105</ele>
        <time>2009-03-22T08:09:19Z</time>
      </trkpt>
      <trkpt lat="43.98641" lon="4.69263">
        <ele>109.090492</ele>
        <time>2009-03-22T08:09:27Z</time>
      </trkpt>
      <trkpt lat="43.98644" lon="4.69257">
        <ele>109.386742</ele>
        <time>2009-03-22T08:09:34Z</time>
      </trkpt>
      <trkpt lat="43.98651" lon="4.69245">
        <ele>110.306801</ele>
        <time>2009-03-22T08:09:39Z</time>
      </trkpt>
      <trkpt lat="43.98664" lon="4.6923">
        <ele>111.696297</ele>
        <time>2009-03-22T08:09:46Z</time>
      </trkpt>
      <trkpt lat="43.98678" lon="4.69221">
        <ele>113.199043</ele>
        <time>2009-03-22T08:09:54Z</time>
      </trkpt>
      <trkpt lat="43.98685" lon="4.69213">
        <ele>114.353622</ele>
        <time>2009-03-22T08:10:00Z</time>
      </trkpt>
      <trkpt lat="43.98694" lon="4.69217">
        <ele>115.478447</ele>
        <time>2009-03-22T08:10:29Z</time>
      </trkpt>
      <trkpt lat="43.98729" lon="4.69229">
        <ele>121.014557</ele>
        <time>2009-03-22T08:10:44Z</time>
      </trkpt>
      <trkpt lat="43.98749" lon="4.69229">
        <ele>122.438324</ele>
        <time>2009-03-22T08:10:51Z</time>
      </trkpt>
      <trkpt lat="43.9876" lon="4.69236">
        <ele>123.316864</ele>
        <time>2009-03-22T08:10:56Z</time>
      </trkpt>
      <trkpt lat="43.98767" lon="4.69256">
        <ele>124.126488</ele>
        <time>2009-03-22T08:11:02Z</time>
      </trkpt>
      <trkpt lat="43.98765" lon="4.69275">
        <ele>124.427185</ele>
        <time>2009-03-22T08:11:08Z</time>
      </trkpt>
      <trkpt lat="43.98762" lon="4.69293">
        <ele>124.82798</ele>
        <time>2009-03-22T08:11:13Z</time>
      </trkpt>
      <trkpt lat="43.98758" lon="4.69326">
        <ele>126.148079</ele>
        <time>2009-03-22T08:11:21Z</time>
      </trkpt>
      <trkpt lat="43.98757" lon="4.69329">
        <ele>126.276245</ele>
        <time>2009-03-22T08:11:22Z</time>
      </trkpt>
      <trkpt lat="43.98745" lon="4.69326">
        <ele>125.992935</ele>
        <time>2009-03-22T08:11:27Z</time>
      </trkpt>
      <trkpt lat="43.98722" lon="4.69311">
        <ele>124.256721</ele>
        <time>2009-03-22T08:11:37Z</time>
      </trkpt>
      <trkpt lat="43.98706" lon="4.69317">
        <ele>123.387726</ele>
        <time>2009-03-22T08:11:43Z</time>
      </trkpt>
      <trkpt lat="43.98698" lon="4.69322">
        <ele>123.124756</ele>
        <time>2009-03-22T08:11:47Z</time>
      </trkpt>
      <trkpt lat="43.98685" lon="4.69338">
        <ele>123.692352</ele>
        <time>2009-03-22T08:11:54Z</time>
      </trkpt>
      <trkpt lat="43.98672" lon="4.6936">
        <ele>122.828094</ele>
        <time>2009-03-22T08:12:02Z</time>
      </trkpt>
      <trkpt lat="43.9867" lon="4.69381">
        <ele>124.046875</ele>
        <time>2009-03-22T08:12:08Z</time>
      </trkpt>
      <trkpt lat="43.98664" lon="4.69411">
        <ele>125.283752</ele>
        <time>2009-03-22T08:12:16Z</time>
      </trkpt>
      <trkpt lat="43.98644" lon="4.69473">
        <ele>126.066055</ele>
        <time>2009-03-22T08:12:32Z</time>
      </trkpt>
      <trkpt lat="43.98634" lon="4.69499">
        <ele>126.9627</ele>
        <time>2009-03-22T08:12:39Z</time>
      </trkpt>
      <trkpt lat="43.98622" lon="4.69514">
        <ele>125.406647</ele>
        <time>2009-03-22T08:12:44Z</time>
      </trkpt>
      <trkpt lat="43.98618" lon="4.6953">
        <ele>126.292</ele>
        <time>2009-03-22T08:12:48Z</time>
      </trkpt>
      <trkpt lat="43.98621" lon="4.69592">
        <ele>129.568085</ele>
        <time>2009-03-22T08:13:02Z</time>
      </trkpt>
      <trkpt lat="43.98614" lon="4.69607">
        <ele>129.964661</ele>
        <time>2009-03-22T08:13:06Z</time>
      </trkpt>
      <trkpt lat="43.98605" lon="4.69623">
        <ele>130.684097</ele>
        <time>2009-03-22T08:13:10Z</time>
      </trkpt>
      <trkpt lat="43.98578" lon="4.69643">
        <ele>132.351059</ele>
        <time>2009-03-22T08:13:17Z</time>
      </trkpt>
      <trkpt lat="43.98563" lon="4.69661">
        <ele>132.813599</ele>
        <time>2009-03-22T08:13:21Z</time>
      </trkpt>
      <trkpt lat="43.98539" lon="4.69703">
        <ele>129.96579</ele>
        <time>2009-03-22T08:13:30Z</time>
      </trkpt>
      <trkpt lat="43.98533" lon="4.6971">
        <ele>127.921364</ele>
        <time>2009-03-22T08:13:32Z</time>
      </trkpt>
      <trkpt lat="43.98518" lon="4.6972">
        <ele>121.722809</ele>
        <time>2009-03-22T08:13:36Z</time>
      </trkpt>
      <trkpt lat="43.98507" lon="4.69745">
        <ele>114.271477</ele>
        <time>2009-03-22T08:13:41Z</time>
      </trkpt>
      <trkpt lat="43.98507" lon="4.69754">
        <ele>112.6642</ele>
        <time>2009-03-22T08:13:43Z</time>
      </trkpt>
      <trkpt lat="43.98516" lon="4.69767">
        <ele>114.567291</ele>
        <time>2009-03-22T08:13:47Z</time>
      </trkpt>
      <trkpt lat="43.98521" lon="4.69759">
        <ele>117.881363</ele>
        <time>2009-03-22T08:13:50Z</time>
      </trkpt>
      <trkpt lat="43.98529" lon="4.69742">
        <ele>123.054207</ele>
        <time>2009-03-22T08:13:56Z</time>
      </trkpt>
      <trkpt lat="43.98543" lon="4.6973">
        <ele>128.580658</ele>
        <time>2009-03-22T08:14:02Z</time>
      </trkpt>
      <trkpt lat="43.98563" lon="4.69715">
        <ele>131.78598</ele>
        <time>2009-03-22T08:14:10Z</time>
      </trkpt>
      <trkpt lat="43.98578" lon="4.69707">
        <ele>133.307083</ele>
        <time>2009-03-22T08:14:16Z</time>
      </trkpt>
      <trkpt lat="43.98637" lon="4.69656">
        <ele>131.043518</ele>
        <time>2009-03-22T08:14:42Z</time>
      </trkpt>
      <trkpt lat="43.98669" lon="4.69654">
        <ele>130.997879</ele>
        <time>2009-03-22T08:14:55Z</time>
      </trkpt>
      <trkpt lat="43.98683" lon="4.69646">
        <ele>131.157501</ele>
        <time>2009-03-22T08:15:00Z</time>
      </trkpt>
      <trkpt lat="43.987" lon="4.6964">
        <ele>131.367096</ele>
        <time>2009-03-22T08:15:05Z</time>
      </trkpt>
      <trkpt lat="43.98721" lon="4.6964">
        <ele>131.503036</ele>
        <time>2009-03-22T08:15:11Z</time>
      </trkpt>
      <trkpt lat="43.98739" lon="4.69644">
        <ele>131.002701</ele>
        <time>2009-03-22T08:15:16Z</time>
      </trkpt>
      <trkpt lat="43.98755" lon="4.69645">
        <ele>130.642487</ele>
        <time>2009-03-22T08:15:21Z</time>
      </trkpt>
      <trkpt lat="43.98766" lon="4.69654">
        <ele>130.113495</ele>
        <time>2009-03-22T08:15:25Z</time>
      </trkpt>
      <trkpt lat="43.98775" lon="4.69667">
        <ele>129.724854</ele>
        <time>2009-03-22T08:15:29Z</time>
      </trkpt>
      <trkpt lat="43.98793" lon="4.69673">
        <ele>129.535492</ele>
        <time>2009-03-22T08:15:34Z</time>
      </trkpt>
      <trkpt lat="43.98806" lon="4.69667">
        <ele>129.767822</ele>
        <time>2009-03-22T08:15:38Z</time>
      </trkpt>
      <trkpt lat="43.98819" lon="4.69663">
        <ele>130.06781</ele>
        <time>2009-03-22T08:15:42Z</time>
      </trkpt>
      <trkpt lat="43.98846" lon="4.69666">
        <ele>130.539703</ele>
        <time>2009-03-22T08:15:49Z</time>
      </trkpt>
      <trkpt lat="43.98867" lon="4.69674">
        <ele>130.417603</ele>
        <time>2009-03-22T08:15:55Z</time>
      </trkpt>
      <trkpt lat="43.98892" lon="4.69686">
        <ele>129.891983</ele>
        <time>2009-03-22T08:16:03Z</time>
      </trkpt>
      <trkpt lat="43.98913" lon="4.697">
        <ele>129.033829</ele>
        <time>2009-03-22T08:16:10Z</time>
      </trkpt>
      <trkpt lat="43.9893" lon="4.69713">
        <ele>128.373138</ele>
        <time>2009-03-22T08:16:16Z</time>
      </trkpt>
      <trkpt lat="43.98951" lon="4.69723">
        <ele>127.783249</ele>
        <time>2009-03-22T08:16:22Z</time>
      </trkpt>
      <trkpt lat="43.98971" lon="4.69737">
        <ele>126.565613</ele>
        <time>2009-03-22T08:16:28Z</time>
      </trkpt>
      <trkpt lat="43.98994" lon="4.69748">
        <ele>125.58136</ele>
        <time>2009-03-22T08:16:35Z</time>
      </trkpt>
      <trkpt lat="43.99017" lon="4.69767">
        <ele>124.777939</ele>
        <time>2009-03-22T08:16:43Z</time>
      </trkpt>
      <trkpt lat="43.99032" lon="4.69782">
        <ele>124.208633</ele>
        <time>2009-03-22T08:16:49Z</time>
      </trkpt>
      <trkpt lat="43.99068" lon="4.69802">
        <ele>123.210472</ele>
        <time>2009-03-22T08:17:01Z</time>
      </trkpt>
      <trkpt lat="43.99097" lon="4.69826">
        <ele>122.316193</ele>
        <time>2009-03-22T08:17:11Z</time>
      </trkpt>
      <trkpt lat="43.99113" lon="4.69826">
        <ele>121.771667</ele>
        <time>2009-03-22T08:17:17Z</time>
      </trkpt>
      <trkpt lat="43.99135" lon="4.69829">
        <ele>120.791321</ele>
        <time>2009-03-22T08:17:23Z</time>
      </trkpt>
      <trkpt lat="43.99171" lon="4.69827">
        <ele>118.845055</ele>
        <time>2009-03-22T08:17:34Z</time>
      </trkpt>
      <trkpt lat="43.99189" lon="4.69828">
        <ele>118.013809</ele>
        <time>2009-03-22T08:17:40Z</time>
      </trkpt>
      <trkpt lat="43.99207" lon="4.69825">
        <ele>117.226944</ele>
        <time>2009-03-22T08:17:45Z</time>
      </trkpt>
      <trkpt lat="43.99221" lon="4.69827">
        <ele>116.791016</ele>
        <time>2009-03-22T08:17:49Z</time>
      </trkpt>
      <trkpt lat="43.99246" lon="4.69829">
        <ele>116.245682</ele>
        <time>2009-03-22T08:17:57Z</time>
      </trkpt>
      <trkpt lat="43.99246" lon="4.6982">
        <ele>116.24794</ele>
        <time>2009-03-22T08:18:01Z</time>
      </trkpt>
      <trkpt lat="43.99243" lon="4.69809">
        <ele>116.330963</ele>
        <time>2009-03-22T08:18:04Z</time>
      </trkpt>
      <trkpt lat="43.99213" lon="4.69766">
        <ele>116.999825</ele>
        <time>2009-03-22T08:18:18Z</time>
      </trkpt>
      <trkpt lat="43.99208" lon="4.69746">
        <ele>117.132217</ele>
        <time>2009-03-22T08:18:23Z</time>
      </trkpt>
      <trkpt lat="43.99201" lon="4.69721">
        <ele>117.299492</ele>
        <time>2009-03-22T08:18:29Z</time>
      </trkpt>
      <trkpt lat="43.99177" lon="4.69692">
        <ele>117.854156</ele>
        <time>2009-03-22T08:18:39Z</time>
      </trkpt>
      <trkpt lat="43.99141" lon="4.69641">
        <ele>118.49144</ele>
        <time>2009-03-22T08:18:55Z</time>
      </trkpt>
      <trkpt lat="43.99138" lon="4.69635">
        <ele>118.564384</ele>
        <time>2009-03-22T08:18:59Z</time>
      </trkpt>
      <trkpt lat="43.99141" lon="4.69635">
        <ele>118.474892</ele>
        <time>2009-03-22T08:19:04Z</time>
      </trkpt>
      <trkpt lat="43.99149" lon="4.6964">
        <ele>118.214485</ele>
        <time>2009-03-22T08:19:13Z</time>
      </trkpt>
      <trkpt lat="43.99169" lon="4.69656">
        <ele>117.750961</ele>
        <time>2009-03-22T08:19:20Z</time>
      </trkpt>
      <trkpt lat="43.99188" lon="4.69667">
        <ele>117.522873</ele>
        <time>2009-03-22T08:19:26Z</time>
      </trkpt>
      <trkpt lat="43.99202" lon="4.69671">
        <ele>117.265671</ele>
        <time>2009-03-22T08:19:30Z</time>
      </trkpt>
      <trkpt lat="43.99215" lon="4.69657">
        <ele>117.007172</ele>
        <time>2009-03-22T08:19:35Z</time>
      </trkpt>
      <trkpt lat="43.99228" lon="4.69648">
        <ele>117</ele>
        <time>2009-03-22T08:19:39Z</time>
      </trkpt>
      <trkpt lat="43.99247" lon="4.69631">
        <ele>117</ele>
        <time>2009-03-22T08:19:46Z</time>
      </trkpt>
      <trkpt lat="43.99265" lon="4.69617">
        <ele>116.999603</ele>
        <time>2009-03-22T08:19:52Z</time>
      </trkpt>
      <trkpt lat="43.99279" lon="4.69611">
        <ele>117.091408</ele>
        <time>2009-03-22T08:19:57Z</time>
      </trkpt>
      <trkpt lat="43.99292" lon="4.69599">
        <ele>117.291916</ele>
        <time>2009-03-22T08:20:02Z</time>
      </trkpt>
      <trkpt lat="43.99311" lon="4.69584">
        <ele>117.543434</ele>
        <time>2009-03-22T08:20:09Z</time>
      </trkpt>
      <trkpt lat="43.99329" lon="4.69589">
        <ele>117.479584</ele>
        <time>2009-03-22T08:20:15Z</time>
      </trkpt>
      <trkpt lat="43.99349" lon="4.69602">
        <ele>117.287422</ele>
        <time>2009-03-22T08:20:22Z</time>
      </trkpt>
      <trkpt lat="43.9936" lon="4.69598">
        <ele>117.419556</ele>
        <time>2009-03-22T08:20:26Z</time>
      </trkpt>
      <trkpt lat="43.99368" lon="4.69583">
        <ele>117.813614</ele>
        <time>2009-03-22T08:20:31Z</time>
      </trkpt>
      <trkpt lat="43.99392" lon="4.69577">
        <ele>118.33329</ele>
        <time>2009-03-22T08:20:40Z</time>
      </trkpt>
      <trkpt lat="43.99401" lon="4.69571">
        <ele>118.699173</ele>
        <time>2009-03-22T08:20:44Z</time>
      </trkpt>
      <trkpt lat="43.99422" lon="4.69542">
        <ele>121.014519</ele>
        <time>2009-03-22T08:20:56Z</time>
      </trkpt>
      <trkpt lat="43.9943" lon="4.69537">
        <ele>121.794403</ele>
        <time>2009-03-22T08:21:00Z</time>
      </trkpt>
      <trkpt lat="43.99458" lon="4.69527">
        <ele>123.843933</ele>
        <time>2009-03-22T08:21:14Z</time>
      </trkpt>
      <trkpt lat="43.99475" lon="4.69524">
        <ele>124.705574</ele>
        <time>2009-03-22T08:21:21Z</time>
      </trkpt>
      <trkpt lat="43.99487" lon="4.69516">
        <ele>125.749886</ele>
        <time>2009-03-22T08:21:27Z</time>
      </trkpt>
      <trkpt lat="43.99497" lon="4.69508">
        <ele>126.670494</ele>
        <time>2009-03-22T08:21:32Z</time>
      </trkpt>
      <trkpt lat="43.99507" lon="4.69497">
        <ele>127.843155</ele>
        <time>2009-03-22T08:21:38Z</time>
      </trkpt>
      <trkpt lat="43.99531" lon="4.69477">
        <ele>130.390518</ele>
        <time>2009-03-22T08:21:52Z</time>
      </trkpt>
      <trkpt lat="43.99543" lon="4.69472">
        <ele>131.369522</ele>
        <time>2009-03-22T08:21:58Z</time>
      </trkpt>
      <trkpt lat="43.99551" lon="4.69464">
        <ele>132.538925</ele>
        <time>2009-03-22T08:22:03Z</time>
      </trkpt>
      <trkpt lat="43.99566" lon="4.69443">
        <ele>135.287338</ele>
        <time>2009-03-22T08:22:16Z</time>
      </trkpt>
      <trkpt lat="43.99574" lon="4.69437">
        <ele>136.175552</ele>
        <time>2009-03-22T08:22:21Z</time>
      </trkpt>
      <trkpt lat="43.99591" lon="4.6943">
        <ele>137.121811</ele>
        <time>2009-03-22T08:22:31Z</time>
      </trkpt>
      <trkpt lat="43.99602" lon="4.69424">
        <ele>137.578476</ele>
        <time>2009-03-22T08:22:38Z</time>
      </trkpt>
      <trkpt lat="43.99613" lon="4.69426">
        <ele>137.53598</ele>
        <time>2009-03-22T08:22:51Z</time>
      </trkpt>
      <trkpt lat="43.99623" lon="4.69421">
        <ele>137.742249</ele>
        <time>2009-03-22T08:22:55Z</time>
      </trkpt>
      <trkpt lat="43.99633" lon="4.69414">
        <ele>137.887772</ele>
        <time>2009-03-22T08:23:01Z</time>
      </trkpt>
      <trkpt lat="43.99641" lon="4.69413">
        <ele>137.862686</ele>
        <time>2009-03-22T08:23:06Z</time>
      </trkpt>
      <trkpt lat="43.99652" lon="4.69426">
        <ele>137.440308</ele>
        <time>2009-03-22T08:23:12Z</time>
      </trkpt>
      <trkpt lat="43.99662" lon="4.69435">
        <ele>137.211456</ele>
        <time>2009-03-22T08:23:16Z</time>
      </trkpt>
      <trkpt lat="43.99677" lon="4.69455">
        <ele>136.432648</ele>
        <time>2009-03-22T08:23:22Z</time>
      </trkpt>
      <trkpt lat="43.99727" lon="4.69518">
        <ele>132.572769</ele>
        <time>2009-03-22T08:23:36Z</time>
      </trkpt>
      <trkpt lat="43.99743" lon="4.69536">
        <ele>132.333191</ele>
        <time>2009-03-22T08:23:41Z</time>
      </trkpt>
      <trkpt lat="43.99752" lon="4.69532">
        <ele>132.324966</ele>
        <time>2009-03-22T08:23:45Z</time>
      </trkpt>
      <trkpt lat="43.99759" lon="4.69519">
        <ele>132.147324</ele>
        <time>2009-03-22T08:23:49Z</time>
      </trkpt>
      <trkpt lat="43.99779" lon="4.69504">
        <ele>134.288605</ele>
        <time>2009-03-22T08:23:55Z</time>
      </trkpt>
      <trkpt lat="43.99784" lon="4.69494">
        <ele>134.699005</ele>
        <time>2009-03-22T08:23:58Z</time>
      </trkpt>
      <trkpt lat="43.99792" lon="4.69488">
        <ele>135.250519</ele>
        <time>2009-03-22T08:24:01Z</time>
      </trkpt>
      <trkpt lat="43.99792" lon="4.69468">
        <ele>134.974136</ele>
        <time>2009-03-22T08:24:05Z</time>
      </trkpt>
      <trkpt lat="43.99781" lon="4.69453">
        <ele>134.470779</ele>
        <time>2009-03-22T08:24:09Z</time>
      </trkpt>
      <trkpt lat="43.99767" lon="4.69431">
        <ele>135.320374</ele>
        <time>2009-03-22T08:24:14Z</time>
      </trkpt>
      <trkpt lat="43.99772" lon="4.69417">
        <ele>136.275681</ele>
        <time>2009-03-22T08:24:18Z</time>
      </trkpt>
      <trkpt lat="43.99781" lon="4.69401">
        <ele>137.303375</ele>
        <time>2009-03-22T08:24:23Z</time>
      </trkpt>
      <trkpt lat="43.99798" lon="4.69376">
        <ele>138.370499</ele>
        <time>2009-03-22T08:24:30Z</time>
      </trkpt>
      <trkpt lat="43.99812" lon="4.69354">
        <ele>138.951096</ele>
        <time>2009-03-22T08:24:36Z</time>
      </trkpt>
      <trkpt lat="43.99819" lon="4.69331">
        <ele>139.999222</ele>
        <time>2009-03-22T08:24:42Z</time>
      </trkpt>
      <trkpt lat="43.99826" lon="4.69304">
        <ele>141.857117</ele>
        <time>2009-03-22T08:24:48Z</time>
      </trkpt>
      <trkpt lat="43.99835" lon="4.69285">
        <ele>142.654312</ele>
        <time>2009-03-22T08:24:53Z</time>
      </trkpt>
      <trkpt lat="43.99853" lon="4.69265">
        <ele>142.24086</ele>
        <time>2009-03-22T08:25:00Z</time>
      </trkpt>
      <trkpt lat="43.99866" lon="4.69246">
        <ele>145.320938</ele>
        <time>2009-03-22T08:25:05Z</time>
      </trkpt>
      <trkpt lat="43.99881" lon="4.69222">
        <ele>146.791733</ele>
        <time>2009-03-22T08:25:12Z</time>
      </trkpt>
      <trkpt lat="43.99886" lon="4.69212">
        <ele>146.702698</ele>
        <time>2009-03-22T08:25:15Z</time>
      </trkpt>
      <trkpt lat="43.99897" lon="4.69195">
        <ele>146.618423</ele>
        <time>2009-03-22T08:25:21Z</time>
      </trkpt>
      <trkpt lat="43.99919" lon="4.69185">
        <ele>148.399612</ele>
        <time>2009-03-22T08:25:29Z</time>
      </trkpt>
      <trkpt lat="43.99928" lon="4.69185">
        <ele>149.276154</ele>
        <time>2009-03-22T08:25:33Z</time>
      </trkpt>
      <trkpt lat="43.99944" lon="4.69181">
        <ele>150.543777</ele>
        <time>2009-03-22T08:25:40Z</time>
      </trkpt>
      <trkpt lat="43.99968" lon="4.69156">
        <ele>151.88858</ele>
        <time>2009-03-22T08:25:53Z</time>
      </trkpt>
      <trkpt lat="43.9998" lon="4.69147">
        <ele>152.761505</ele>
        <time>2009-03-22T08:25:58Z</time>
      </trkpt>
      <trkpt lat="43.99999" lon="4.69136">
        <ele>154.370621</ele>
        <time>2009-03-22T08:26:05Z</time>
      </trkpt>
      <trkpt lat="44.00011" lon="4.69135">
        <ele>155.294891</ele>
        <time>2009-03-22T08:26:10Z</time>
      </trkpt>
      <trkpt lat="44.00038" lon="4.69128">
        <ele>157.080612</ele>
        <time>2009-03-22T08:26:21Z</time>
      </trkpt>
      <trkpt lat="44.00051" lon="4.69128">
        <ele>157.978287</ele>
        <time>2009-03-22T08:26:26Z</time>
      </trkpt>
      <trkpt lat="44.00066" lon="4.69125">
        <ele>158.841858</ele>
        <time>2009-03-22T08:26:32Z</time>
      </trkpt>
      <trkpt lat="44.00081" lon="4.69121">
        <ele>159.442184</ele>
        <time>2009-03-22T08:26:38Z</time>
      </trkpt>
      <trkpt lat="44.00092" lon="4.69121">
        <ele>160.430084</ele>
        <time>2009-03-22T08:26:43Z</time>
      </trkpt>
      <trkpt lat="44.00107" lon="4.69119">
        <ele>161.51709</ele>
        <time>2009-03-22T08:26:49Z</time>
      </trkpt>
      <trkpt lat="44.00117" lon="4.6911">
        <ele>161.630142</ele>
        <time>2009-03-22T08:26:54Z</time>
      </trkpt>
      <trkpt lat="44.0012" lon="4.69095">
        <ele>160.63382</ele>
        <time>2009-03-22T08:26:59Z</time>
      </trkpt>
      <trkpt lat="44.00127" lon="4.69082">
        <ele>160.946793</ele>
        <time>2009-03-22T08:27:05Z</time>
      </trkpt>
      <trkpt lat="44.00134" lon="4.69077">
        <ele>161.774216</ele>
        <time>2009-03-22T08:27:10Z</time>
      </trkpt>
      <trkpt lat="44.0014" lon="4.69063">
        <ele>162.473907</ele>
        <time>2009-03-22T08:27:17Z</time>
      </trkpt>
      <trkpt lat="44.0014" lon="4.69044">
        <ele>162.534897</ele>
        <time>2009-03-22T08:27:25Z</time>
      </trkpt>
      <trkpt lat="44.00137" lon="4.69022">
        <ele>162.659225</ele>
        <time>2009-03-22T08:27:30Z</time>
      </trkpt>
      <trkpt lat="44.00119" lon="4.68974">
        <ele>162.628448</ele>
        <time>2009-03-22T08:27:38Z</time>
      </trkpt>
      <trkpt lat="44.0012" lon="4.68941">
        <ele>163.893417</ele>
        <time>2009-03-22T08:27:44Z</time>
      </trkpt>
      <trkpt lat="44.00114" lon="4.68918">
        <ele>163.146408</ele>
        <time>2009-03-22T08:27:49Z</time>
      </trkpt>
      <trkpt lat="44.00107" lon="4.6889">
        <ele>161.919312</ele>
        <time>2009-03-22T08:27:54Z</time>
      </trkpt>
      <trkpt lat="44.00097" lon="4.68864">
        <ele>159.729996</ele>
        <time>2009-03-22T08:27:58Z</time>
      </trkpt>
      <trkpt lat="44.00085" lon="4.68843">
        <ele>157.725632</ele>
        <time>2009-03-22T08:28:02Z</time>
      </trkpt>
      <trkpt lat="44.0007" lon="4.68823">
        <ele>156.931854</ele>
        <time>2009-03-22T08:28:07Z</time>
      </trkpt>
      <trkpt lat="44.00046" lon="4.68784">
        <ele>158.40123</ele>
        <time>2009-03-22T08:28:15Z</time>
      </trkpt>
      <trkpt lat="44.00031" lon="4.68777">
        <ele>159.220001</ele>
        <time>2009-03-22T08:28:20Z</time>
      </trkpt>
      <trkpt lat="44.00018" lon="4.68778">
        <ele>159.391281</ele>
        <time>2009-03-22T08:28:24Z</time>
      </trkpt>
      <trkpt lat="43.99986" lon="4.6876">
        <ele>162.174255</ele>
        <time>2009-03-22T08:28:36Z</time>
      </trkpt>
      <trkpt lat="43.99965" lon="4.68756">
        <ele>163.759842</ele>
        <time>2009-03-22T08:28:42Z</time>
      </trkpt>
      <trkpt lat="43.99946" lon="4.68749">
        <ele>165.704132</ele>
        <time>2009-03-22T08:28:47Z</time>
      </trkpt>
      <trkpt lat="43.9994" lon="4.68744">
        <ele>166.63031</ele>
        <time>2009-03-22T08:28:49Z</time>
      </trkpt>
      <trkpt lat="43.99924" lon="4.68748">
        <ele>167.767365</ele>
        <time>2009-03-22T08:28:53Z</time>
      </trkpt>
      <trkpt lat="43.99916" lon="4.68755">
        <ele>168.150177</ele>
        <time>2009-03-22T08:28:55Z</time>
      </trkpt>
      <trkpt lat="43.999" lon="4.68762">
        <ele>169.672348</ele>
        <time>2009-03-22T08:28:59Z</time>
      </trkpt>
      <trkpt lat="43.99867" lon="4.6878">
        <ele>172.891891</ele>
        <time>2009-03-22T08:29:11Z</time>
      </trkpt>
      <trkpt lat="43.99865" lon="4.68782">
        <ele>173.010468</ele>
        <time>2009-03-22T08:29:12Z</time>
      </trkpt>
      <trkpt lat="43.99855" lon="4.68784">
        <ele>174.279465</ele>
        <time>2009-03-22T08:29:16Z</time>
      </trkpt>
      <trkpt lat="43.9985" lon="4.68786">
        <ele>174.749832</ele>
        <time>2009-03-22T08:29:18Z</time>
      </trkpt>
      <trkpt lat="43.99839" lon="4.68795">
        <ele>175.40332</ele>
        <time>2009-03-22T08:29:24Z</time>
      </trkpt>
      <trkpt lat="43.99821" lon="4.68816">
        <ele>175.331192</ele>
        <time>2009-03-22T08:29:35Z</time>
      </trkpt>
      <trkpt lat="43.99808" lon="4.68822">
        <ele>175.006027</ele>
        <time>2009-03-22T08:29:42Z</time>
      </trkpt>
      <trkpt lat="43.99794" lon="4.68811">
        <ele>176.617599</ele>
        <time>2009-03-22T08:29:50Z</time>
      </trkpt>
      <trkpt lat="43.99783" lon="4.68809">
        <ele>177.126297</ele>
        <time>2009-03-22T08:29:56Z</time>
      </trkpt>
      <trkpt lat="43.99767" lon="4.68813">
        <ele>176.65921</ele>
        <time>2009-03-22T08:30:04Z</time>
      </trkpt>
      <trkpt lat="43.9975" lon="4.68815">
        <ele>175.90152</ele>
        <time>2009-03-22T08:30:12Z</time>
      </trkpt>
      <trkpt lat="43.99732" lon="4.68808">
        <ele>176.109268</ele>
        <time>2009-03-22T08:30:21Z</time>
      </trkpt>
      <trkpt lat="43.99717" lon="4.68789">
        <ele>176.769119</ele>
        <time>2009-03-22T08:30:29Z</time>
      </trkpt>
      <trkpt lat="43.99706" lon="4.68763">
        <ele>177.820755</ele>
        <time>2009-03-22T08:30:38Z</time>
      </trkpt>
      <trkpt lat="43.99706" lon="4.68744">
        <ele>177.614212</ele>
        <time>2009-03-22T08:30:44Z</time>
      </trkpt>
      <trkpt lat="43.99714" lon="4.68722">
        <ele>178.705261</ele>
        <time>2009-03-22T08:30:51Z</time>
      </trkpt>
      <trkpt lat="43.99733" lon="4.68699">
        <ele>182.000534</ele>
        <time>2009-03-22T08:31:00Z</time>
      </trkpt>
      <trkpt lat="43.99774" lon="4.68661">
        <ele>185.169235</ele>
        <time>2009-03-22T08:31:16Z</time>
      </trkpt>
      <trkpt lat="43.99792" lon="4.68641">
        <ele>184.963547</ele>
        <time>2009-03-22T08:31:23Z</time>
      </trkpt>
      <trkpt lat="43.99813" lon="4.68612">
        <ele>184.99408</ele>
        <time>2009-03-22T08:31:32Z</time>
      </trkpt>
      <trkpt lat="43.99822" lon="4.68584">
        <ele>184.12851</ele>
        <time>2009-03-22T08:31:39Z</time>
      </trkpt>
      <trkpt lat="43.99823" lon="4.68564">
        <ele>186.004395</ele>
        <time>2009-03-22T08:31:45Z</time>
      </trkpt>
      <trkpt lat="43.99824" lon="4.68562">
        <ele>186.330063</ele>
        <time>2009-03-22T08:31:46Z</time>
      </trkpt>
      <trkpt lat="43.99838" lon="4.6856">
        <ele>185.006409</ele>
        <time>2009-03-22T08:31:53Z</time>
      </trkpt>
      <trkpt lat="43.99857" lon="4.68544">
        <ele>184.179031</ele>
        <time>2009-03-22T08:32:01Z</time>
      </trkpt>
      <trkpt lat="43.9987" lon="4.6855">
        <ele>181.942673</ele>
        <time>2009-03-22T08:32:06Z</time>
      </trkpt>
      <trkpt lat="43.99879" lon="4.68557">
        <ele>180.486588</ele>
        <time>2009-03-22T08:32:10Z</time>
      </trkpt>
      <trkpt lat="43.99891" lon="4.68559">
        <ele>179.138901</ele>
        <time>2009-03-22T08:32:14Z</time>
      </trkpt>
      <trkpt lat="43.99906" lon="4.68567">
        <ele>177.020081</ele>
        <time>2009-03-22T08:32:20Z</time>
      </trkpt>
      <trkpt lat="43.99932" lon="4.68571">
        <ele>174.97612</ele>
        <time>2009-03-22T08:32:27Z</time>
      </trkpt>
      <trkpt lat="43.99944" lon="4.68563">
        <ele>174.872742</ele>
        <time>2009-03-22T08:32:33Z</time>
      </trkpt>
      <trkpt lat="43.99949" lon="4.68557">
        <ele>174.935776</ele>
        <time>2009-03-22T08:32:36Z</time>
      </trkpt>
      <trkpt lat="43.99954" lon="4.68539">
        <ele>175.580032</ele>
        <time>2009-03-22T08:32:43Z</time>
      </trkpt>
      <trkpt lat="43.99954" lon="4.68517">
        <ele>177.135818</ele>
        <time>2009-03-22T08:32:51Z</time>
      </trkpt>
      <trkpt lat="43.99953" lon="4.6851">
        <ele>178.071014</ele>
        <time>2009-03-22T08:32:54Z</time>
      </trkpt>
      <trkpt lat="43.99961" lon="4.68488">
        <ele>180.100021</ele>
        <time>2009-03-22T08:33:06Z</time>
      </trkpt>
      <trkpt lat="43.99959" lon="4.68479">
        <ele>181.219482</ele>
        <time>2009-03-22T08:33:11Z</time>
      </trkpt>
      <trkpt lat="43.99959" lon="4.68457">
        <ele>183.717087</ele>
        <time>2009-03-22T08:33:24Z</time>
      </trkpt>
      <trkpt lat="43.99961" lon="4.68447">
        <ele>184.61438</ele>
        <time>2009-03-22T08:33:30Z</time>
      </trkpt>
      <trkpt lat="43.99967" lon="4.68431">
        <ele>186.651657</ele>
        <time>2009-03-22T08:33:38Z</time>
      </trkpt>
      <trkpt lat="43.99966" lon="4.68421">
        <ele>187.652756</ele>
        <time>2009-03-22T08:33:43Z</time>
      </trkpt>
      <trkpt lat="43.99973" lon="4.68414">
        <ele>188.5569</ele>
        <time>2009-03-22T08:33:49Z</time>
      </trkpt>
      <trkpt lat="43.99979" lon="4.68403">
        <ele>189.739822</ele>
        <time>2009-03-22T08:33:55Z</time>
      </trkpt>
      <trkpt lat="43.99991" lon="4.68394">
        <ele>189.810181</ele>
        <time>2009-03-22T08:34:02Z</time>
      </trkpt>
      <trkpt lat="43.99992" lon="4.68381">
        <ele>189.39386</ele>
        <time>2009-03-22T08:34:07Z</time>
      </trkpt>
      <trkpt lat="44.00002" lon="4.68362">
        <ele>188.406097</ele>
        <time>2009-03-22T08:34:12Z</time>
      </trkpt>
      <trkpt lat="44.00009" lon="4.68342">
        <ele>187.131424</ele>
        <time>2009-03-22T08:34:16Z</time>
      </trkpt>
      <trkpt lat="44.00018" lon="4.68305">
        <ele>184.891953</ele>
        <time>2009-03-22T08:34:22Z</time>
      </trkpt>
      <trkpt lat="44.00021" lon="4.68299">
        <ele>184.549591</ele>
        <time>2009-03-22T08:34:23Z</time>
      </trkpt>
      <trkpt lat="44.00018" lon="4.6828">
        <ele>184.524887</ele>
        <time>2009-03-22T08:34:29Z</time>
      </trkpt>
      <trkpt lat="44.00007" lon="4.68274">
        <ele>184.810516</ele>
        <time>2009-03-22T08:34:32Z</time>
      </trkpt>
      <trkpt lat="43.99992" lon="4.68269">
        <ele>184.369614</ele>
        <time>2009-03-22T08:34:36Z</time>
      </trkpt>
      <trkpt lat="43.99986" lon="4.68255">
        <ele>182.976868</ele>
        <time>2009-03-22T08:34:41Z</time>
      </trkpt>
      <trkpt lat="43.99983" lon="4.68241">
        <ele>181.404068</ele>
        <time>2009-03-22T08:34:44Z</time>
      </trkpt>
      <trkpt lat="43.99974" lon="4.68219">
        <ele>178.408554</ele>
        <time>2009-03-22T08:34:48Z</time>
      </trkpt>
      <trkpt lat="43.99968" lon="4.68214">
        <ele>177.257278</ele>
        <time>2009-03-22T08:34:51Z</time>
      </trkpt>
      <trkpt lat="43.99966" lon="4.68202">
        <ele>176.331116</ele>
        <time>2009-03-22T08:34:54Z</time>
      </trkpt>
      <trkpt lat="43.99962" lon="4.68192">
        <ele>175.707367</ele>
        <time>2009-03-22T08:34:57Z</time>
      </trkpt>
      <trkpt lat="43.99927" lon="4.68164">
        <ele>175.138657</ele>
        <time>2009-03-22T08:35:08Z</time>
      </trkpt>
      <trkpt lat="43.99913" lon="4.68172">
        <ele>175.630447</ele>
        <time>2009-03-22T08:35:13Z</time>
      </trkpt>
      <trkpt lat="43.99904" lon="4.68179">
        <ele>175.909393</ele>
        <time>2009-03-22T08:35:17Z</time>
      </trkpt>
      <trkpt lat="43.99888" lon="4.68199">
        <ele>176.083984</ele>
        <time>2009-03-22T08:35:24Z</time>
      </trkpt>
      <trkpt lat="43.99876" lon="4.68205">
        <ele>176.053757</ele>
        <time>2009-03-22T08:35:30Z</time>
      </trkpt>
      <trkpt lat="43.99872" lon="4.68205">
        <ele>175.974823</ele>
        <time>2009-03-22T08:35:32Z</time>
      </trkpt>
      <trkpt lat="43.99864" lon="4.682">
        <ele>175.924271</ele>
        <time>2009-03-22T08:35:38Z</time>
      </trkpt>
      <trkpt lat="43.99861" lon="4.682">
        <ele>175.88414</ele>
        <time>2009-03-22T08:35:41Z</time>
      </trkpt>
      <trkpt lat="43.99853" lon="4.68203">
        <ele>175.648987</ele>
        <time>2009-03-22T08:35:53Z</time>
      </trkpt>
      <trkpt lat="43.99811" lon="4.68206">
        <ele>174.587234</ele>
        <time>2009-03-22T08:36:06Z</time>
      </trkpt>
      <trkpt lat="43.99798" lon="4.6821">
        <ele>174.205048</ele>
        <time>2009-03-22T08:36:09Z</time>
      </trkpt>
      <trkpt lat="43.99775" lon="4.6823">
        <ele>173.422287</ele>
        <time>2009-03-22T08:36:15Z</time>
      </trkpt>
      <trkpt lat="43.99751" lon="4.68247">
        <ele>172.245941</ele>
        <time>2009-03-22T08:36:24Z</time>
      </trkpt>
      <trkpt lat="43.99747" lon="4.68261">
        <ele>170.767609</ele>
        <time>2009-03-22T08:36:48Z</time>
      </trkpt>
      <trkpt lat="43.99706" lon="4.68284">
        <ele>170.50528</ele>
        <time>2009-03-22T08:36:59Z</time>
      </trkpt>
      <trkpt lat="43.99681" lon="4.68302">
        <ele>169.221878</ele>
        <time>2009-03-22T08:37:04Z</time>
      </trkpt>
      <trkpt lat="43.99671" lon="4.68307">
        <ele>168.396439</ele>
        <time>2009-03-22T08:37:06Z</time>
      </trkpt>
      <trkpt lat="43.9965" lon="4.68314">
        <ele>166.349045</ele>
        <time>2009-03-22T08:37:10Z</time>
      </trkpt>
      <trkpt lat="43.9963" lon="4.6833">
        <ele>164.963211</ele>
        <time>2009-03-22T08:37:14Z</time>
      </trkpt>
      <trkpt lat="43.99616" lon="4.68345">
        <ele>165.004166</ele>
        <time>2009-03-22T08:37:17Z</time>
      </trkpt>
      <trkpt lat="43.99595" lon="4.68359">
        <ele>164.358795</ele>
        <time>2009-03-22T08:37:21Z</time>
      </trkpt>
      <trkpt lat="43.99584" lon="4.68364">
        <ele>163.885468</ele>
        <time>2009-03-22T08:37:23Z</time>
      </trkpt>
      <trkpt lat="43.99555" lon="4.68386">
        <ele>161.34581</ele>
        <time>2009-03-22T08:37:28Z</time>
      </trkpt>
      <trkpt lat="43.99543" lon="4.68393">
        <ele>161.964767</ele>
        <time>2009-03-22T08:37:30Z</time>
      </trkpt>
      <trkpt lat="43.99518" lon="4.684">
        <ele>161.767136</ele>
        <time>2009-03-22T08:37:34Z</time>
      </trkpt>
      <trkpt lat="43.99487" lon="4.68404">
        <ele>160.883118</ele>
        <time>2009-03-22T08:37:39Z</time>
      </trkpt>
      <trkpt lat="43.99458" lon="4.68421">
        <ele>159.280304</ele>
        <time>2009-03-22T08:37:44Z</time>
      </trkpt>
      <trkpt lat="43.99439" lon="4.68428">
        <ele>158.229446</ele>
        <time>2009-03-22T08:37:47Z</time>
      </trkpt>
      <trkpt lat="43.99406" lon="4.68447">
        <ele>156.393082</ele>
        <time>2009-03-22T08:37:53Z</time>
      </trkpt>
      <trkpt lat="43.99386" lon="4.68454">
        <ele>155.234909</ele>
        <time>2009-03-22T08:37:57Z</time>
      </trkpt>
      <trkpt lat="43.9938" lon="4.68461">
        <ele>155.042633</ele>
        <time>2009-03-22T08:38:00Z</time>
      </trkpt>
      <trkpt lat="43.99361" lon="4.68476">
        <ele>154.096848</ele>
        <time>2009-03-22T08:38:06Z</time>
      </trkpt>
      <trkpt lat="43.9934" lon="4.68496">
        <ele>152.056992</ele>
        <time>2009-03-22T08:38:11Z</time>
      </trkpt>
      <trkpt lat="43.99304" lon="4.68544">
        <ele>149.61499</ele>
        <time>2009-03-22T08:38:21Z</time>
      </trkpt>
      <trkpt lat="43.99301" lon="4.68559">
        <ele>149.442703</ele>
        <time>2009-03-22T08:38:26Z</time>
      </trkpt>
      <trkpt lat="43.99297" lon="4.68566">
        <ele>149.24913</ele>
        <time>2009-03-22T08:38:31Z</time>
      </trkpt>
      <trkpt lat="43.99286" lon="4.68574">
        <ele>148.41214</ele>
        <time>2009-03-22T08:38:37Z</time>
      </trkpt>
      <trkpt lat="43.9928" lon="4.68585">
        <ele>148.231232</ele>
        <time>2009-03-22T08:38:43Z</time>
      </trkpt>
      <trkpt lat="43.9927" lon="4.68591">
        <ele>147.76207</ele>
        <time>2009-03-22T08:38:47Z</time>
      </trkpt>
      <trkpt lat="43.99263" lon="4.68589">
        <ele>147.356995</ele>
        <time>2009-03-22T08:38:51Z</time>
      </trkpt>
      <trkpt lat="43.99258" lon="4.68574">
        <ele>146.964478</ele>
        <time>2009-03-22T08:38:58Z</time>
      </trkpt>
      <trkpt lat="43.99244" lon="4.68549">
        <ele>146.17041</ele>
        <time>2009-03-22T08:39:10Z</time>
      </trkpt>
      <trkpt lat="43.9923" lon="4.68537">
        <ele>145.609375</ele>
        <time>2009-03-22T08:39:15Z</time>
      </trkpt>
      <trkpt lat="43.99227" lon="4.68522">
        <ele>145.554962</ele>
        <time>2009-03-22T08:39:19Z</time>
      </trkpt>
      <trkpt lat="43.99229" lon="4.68501">
        <ele>145.700897</ele>
        <time>2009-03-22T08:39:24Z</time>
      </trkpt>
      <trkpt lat="43.99226" lon="4.68484">
        <ele>146.012283</ele>
        <time>2009-03-22T08:39:28Z</time>
      </trkpt>
      <trkpt lat="43.99228" lon="4.68465">
        <ele>146.770584</ele>
        <time>2009-03-22T08:39:32Z</time>
      </trkpt>
      <trkpt lat="43.99234" lon="4.68454">
        <ele>147.5495</ele>
        <time>2009-03-22T08:39:36Z</time>
      </trkpt>
      <trkpt lat="43.99239" lon="4.68444">
        <ele>148.220764</ele>
        <time>2009-03-22T08:39:39Z</time>
      </trkpt>
      <trkpt lat="43.9923" lon="4.68439">
        <ele>147.897263</ele>
        <time>2009-03-22T08:39:42Z</time>
      </trkpt>
      <trkpt lat="43.99219" lon="4.68439">
        <ele>147.228165</ele>
        <time>2009-03-22T08:39:45Z</time>
      </trkpt>
      <trkpt lat="43.99201" lon="4.68429">
        <ele>146.249863</ele>
        <time>2009-03-22T08:39:50Z</time>
      </trkpt>
      <trkpt lat="43.9919" lon="4.68414">
        <ele>145.842529</ele>
        <time>2009-03-22T08:39:53Z</time>
      </trkpt>
      <trkpt lat="43.99171" lon="4.68395">
        <ele>144.648315</ele>
        <time>2009-03-22T08:39:58Z</time>
      </trkpt>
      <trkpt lat="43.99152" lon="4.6838">
        <ele>143.488724</ele>
        <time>2009-03-22T08:40:03Z</time>
      </trkpt>
      <trkpt lat="43.99135" lon="4.68374">
        <ele>142.868622</ele>
        <time>2009-03-22T08:40:08Z</time>
      </trkpt>
      <trkpt lat="43.99128" lon="4.68356">
        <ele>143.203583</ele>
        <time>2009-03-22T08:40:12Z</time>
      </trkpt>
      <trkpt lat="43.99122" lon="4.68324">
        <ele>144.025436</ele>
        <time>2009-03-22T08:40:18Z</time>
      </trkpt>
      <trkpt lat="43.99115" lon="4.68305">
        <ele>144.204346</ele>
        <time>2009-03-22T08:40:22Z</time>
      </trkpt>
      <trkpt lat="43.9911" lon="4.6828">
        <ele>144.695007</ele>
        <time>2009-03-22T08:40:27Z</time>
      </trkpt>
      <trkpt lat="43.9911" lon="4.68256">
        <ele>145.444244</ele>
        <time>2009-03-22T08:40:32Z</time>
      </trkpt>
      <trkpt lat="43.99104" lon="4.68229">
        <ele>146.128525</ele>
        <time>2009-03-22T08:40:38Z</time>
      </trkpt>
      <trkpt lat="43.99098" lon="4.68209">
        <ele>146.509674</ele>
        <time>2009-03-22T08:40:43Z</time>
      </trkpt>
      <trkpt lat="43.99087" lon="4.68181">
        <ele>146.756531</ele>
        <time>2009-03-22T08:40:52Z</time>
      </trkpt>
      <trkpt lat="43.99069" lon="4.68141">
        <ele>147.11853</ele>
        <time>2009-03-22T08:41:06Z</time>
      </trkpt>
      <trkpt lat="43.99066" lon="4.68116">
        <ele>147.826599</ele>
        <time>2009-03-22T08:41:12Z</time>
      </trkpt>
      <trkpt lat="43.99072" lon="4.68089">
        <ele>148.435394</ele>
        <time>2009-03-22T08:41:20Z</time>
      </trkpt>
      <trkpt lat="43.99081" lon="4.68069">
        <ele>148.964386</ele>
        <time>2009-03-22T08:41:27Z</time>
      </trkpt>
      <trkpt lat="43.99082" lon="4.68042">
        <ele>149.538467</ele>
        <time>2009-03-22T08:41:33Z</time>
      </trkpt>
      <trkpt lat="43.99084" lon="4.68019">
        <ele>150.334137</ele>
        <time>2009-03-22T08:41:38Z</time>
      </trkpt>
      <trkpt lat="43.99098" lon="4.67957">
        <ele>152.607788</ele>
        <time>2009-03-22T08:41:54Z</time>
      </trkpt>
      <trkpt lat="43.99103" lon="4.67928">
        <ele>153.660019</ele>
        <time>2009-03-22T08:42:03Z</time>
      </trkpt>
      <trkpt lat="43.99104" lon="4.67902">
        <ele>154.505402</ele>
        <time>2009-03-22T08:42:11Z</time>
      </trkpt>
      <trkpt lat="43.99115" lon="4.6784">
        <ele>156.665909</ele>
        <time>2009-03-22T08:42:27Z</time>
      </trkpt>
      <trkpt lat="43.99113" lon="4.67822">
        <ele>157.133224</ele>
        <time>2009-03-22T08:42:32Z</time>
      </trkpt>
      <trkpt lat="43.99109" lon="4.67795">
        <ele>157.553757</ele>
        <time>2009-03-22T08:42:40Z</time>
      </trkpt>
      <trkpt lat="43.9911" lon="4.67792">
        <ele>157.634659</ele>
        <time>2009-03-22T08:42:43Z</time>
      </trkpt>
      <trkpt lat="43.99108" lon="4.6779">
        <ele>157.582886</ele>
        <time>2009-03-22T08:45:34Z</time>
      </trkpt>
      <trkpt lat="43.99109" lon="4.67791">
        <ele>157.591339</ele>
        <time>2009-03-22T08:45:47Z</time>
      </trkpt>
      <trkpt lat="43.99111" lon="4.67787">
        <ele>157.76828</ele>
        <time>2009-03-22T08:45:51Z</time>
      </trkpt>
      <trkpt lat="43.99115" lon="4.67774">
        <ele>158.137207</ele>
        <time>2009-03-22T08:45:57Z</time>
      </trkpt>
      <trkpt lat="43.99116" lon="4.67749">
        <ele>158.483047</ele>
        <time>2009-03-22T08:46:05Z</time>
      </trkpt>
      <trkpt lat="43.99118" lon="4.67716">
        <ele>159.032532</ele>
        <time>2009-03-22T08:46:14Z</time>
      </trkpt>
      <trkpt lat="43.99124" lon="4.67691">
        <ele>159.891174</ele>
        <time>2009-03-22T08:46:22Z</time>
      </trkpt>
      <trkpt lat="43.99132" lon="4.67645">
        <ele>159.05455</ele>
        <time>2009-03-22T08:46:35Z</time>
      </trkpt>
      <trkpt lat="43.99142" lon="4.67612">
        <ele>158.061874</ele>
        <time>2009-03-22T08:46:42Z</time>
      </trkpt>
      <trkpt lat="43.99161" lon="4.67579">
        <ele>156.422867</ele>
        <time>2009-03-22T08:46:49Z</time>
      </trkpt>
      <trkpt lat="43.99186" lon="4.67549">
        <ele>155.55835</ele>
        <time>2009-03-22T08:46:56Z</time>
      </trkpt>
      <trkpt lat="43.99243" lon="4.67505">
        <ele>155.394501</ele>
        <time>2009-03-22T08:47:10Z</time>
      </trkpt>
      <trkpt lat="43.99264" lon="4.67478">
        <ele>154.867676</ele>
        <time>2009-03-22T08:47:16Z</time>
      </trkpt>
      <trkpt lat="43.99314" lon="4.67419">
        <ele>155.539566</ele>
        <time>2009-03-22T08:47:32Z</time>
      </trkpt>
      <trkpt lat="43.99333" lon="4.67403">
        <ele>156.082321</ele>
        <time>2009-03-22T08:47:38Z</time>
      </trkpt>
      <trkpt lat="43.99331" lon="4.67391">
        <ele>155.207001</ele>
        <time>2009-03-22T08:47:42Z</time>
      </trkpt>
      <trkpt lat="43.99324" lon="4.67382">
        <ele>154.25676</ele>
        <time>2009-03-22T08:47:45Z</time>
      </trkpt>
      <trkpt lat="43.99328" lon="4.67373">
        <ele>154.414703</ele>
        <time>2009-03-22T08:47:49Z</time>
      </trkpt>
      <trkpt lat="43.99333" lon="4.67365">
        <ele>155.178619</ele>
        <time>2009-03-22T08:47:52Z</time>
      </trkpt>
      <trkpt lat="43.99337" lon="4.67349">
        <ele>156.051849</ele>
        <time>2009-03-22T08:47:56Z</time>
      </trkpt>
      <trkpt lat="43.9936" lon="4.67307">
        <ele>156.401428</ele>
        <time>2009-03-22T08:48:08Z</time>
      </trkpt>
      <trkpt lat="43.99365" lon="4.67285">
        <ele>157.123016</ele>
        <time>2009-03-22T08:48:13Z</time>
      </trkpt>
      <trkpt lat="43.99365" lon="4.67276">
        <ele>157.402527</ele>
        <time>2009-03-22T08:48:15Z</time>
      </trkpt>
      <trkpt lat="43.99371" lon="4.67256">
        <ele>157.478607</ele>
        <time>2009-03-22T08:48:20Z</time>
      </trkpt>
      <trkpt lat="43.99375" lon="4.6723">
        <ele>157.267365</ele>
        <time>2009-03-22T08:48:27Z</time>
      </trkpt>
      <trkpt lat="43.9938" lon="4.67209">
        <ele>156.953293</ele>
        <time>2009-03-22T08:48:35Z</time>
      </trkpt>
      <trkpt lat="43.99379" lon="4.67209">
        <ele>157.008942</ele>
        <time>2009-03-22T08:48:40Z</time>
      </trkpt>
      <trkpt lat="43.9938" lon="4.67211">
        <ele>156.966461</ele>
        <time>2009-03-22T08:48:41Z</time>
      </trkpt>
      <trkpt lat="43.99389" lon="4.67217">
        <ele>155.953201</ele>
        <time>2009-03-22T08:48:46Z</time>
      </trkpt>
      <trkpt lat="43.99396" lon="4.67218">
        <ele>155.34285</ele>
        <time>2009-03-22T08:48:48Z</time>
      </trkpt>
      <trkpt lat="43.99403" lon="4.67207">
        <ele>154.806534</ele>
        <time>2009-03-22T08:48:52Z</time>
      </trkpt>
      <trkpt lat="43.99405" lon="4.67181">
        <ele>156.013855</ele>
        <time>2009-03-22T08:48:58Z</time>
      </trkpt>
      <trkpt lat="43.99406" lon="4.67151">
        <ele>158.510925</ele>
        <time>2009-03-22T08:49:05Z</time>
      </trkpt>
      <trkpt lat="43.9942" lon="4.67123">
        <ele>161.681015</ele>
        <time>2009-03-22T08:49:16Z</time>
      </trkpt>
      <trkpt lat="43.99424" lon="4.67117">
        <ele>162.458603</ele>
        <time>2009-03-22T08:49:19Z</time>
      </trkpt>
      <trkpt lat="43.99427" lon="4.67095">
        <ele>163.839645</ele>
        <time>2009-03-22T08:49:25Z</time>
      </trkpt>
      <trkpt lat="43.99424" lon="4.6708">
        <ele>164.368256</ele>
        <time>2009-03-22T08:49:29Z</time>
      </trkpt>
      <trkpt lat="43.99426" lon="4.67055">
        <ele>165.200912</ele>
        <time>2009-03-22T08:49:35Z</time>
      </trkpt>
      <trkpt lat="43.99429" lon="4.67028">
        <ele>165.729675</ele>
        <time>2009-03-22T08:49:41Z</time>
      </trkpt>
      <trkpt lat="43.99429" lon="4.67005">
        <ele>165.810318</ele>
        <time>2009-03-22T08:49:46Z</time>
      </trkpt>
      <trkpt lat="43.99434" lon="4.66993">
        <ele>166.201172</ele>
        <time>2009-03-22T08:49:49Z</time>
      </trkpt>
      <trkpt lat="43.99437" lon="4.66976">
        <ele>166.18364</ele>
        <time>2009-03-22T08:49:54Z</time>
      </trkpt>
      <trkpt lat="43.99462" lon="4.66963">
        <ele>168.605682</ele>
        <time>2009-03-22T08:50:06Z</time>
      </trkpt>
      <trkpt lat="43.99466" lon="4.66947">
        <ele>168.39975</ele>
        <time>2009-03-22T08:50:11Z</time>
      </trkpt>
      <trkpt lat="43.99472" lon="4.66941">
        <ele>168.692322</ele>
        <time>2009-03-22T08:50:13Z</time>
      </trkpt>
      <trkpt lat="43.99479" lon="4.6693">
        <ele>168.7827</ele>
        <time>2009-03-22T08:50:18Z</time>
      </trkpt>
      <trkpt lat="43.99483" lon="4.66912">
        <ele>167.992722</ele>
        <time>2009-03-22T08:50:22Z</time>
      </trkpt>
      <trkpt lat="43.99489" lon="4.66897">
        <ele>167.379608</ele>
        <time>2009-03-22T08:50:25Z</time>
      </trkpt>
      <trkpt lat="43.99493" lon="4.66894">
        <ele>167.399689</ele>
        <time>2009-03-22T08:50:26Z</time>
      </trkpt>
      <trkpt lat="43.99531" lon="4.66881">
        <ele>167.769333</ele>
        <time>2009-03-22T08:50:38Z</time>
      </trkpt>
      <trkpt lat="43.9955" lon="4.66879">
        <ele>168.366074</ele>
        <time>2009-03-22T08:50:45Z</time>
      </trkpt>
      <trkpt lat="43.99578" lon="4.66887">
        <ele>168.11792</ele>
        <time>2009-03-22T08:50:55Z</time>
      </trkpt>
      <trkpt lat="43.99593" lon="4.66895">
        <ele>168.287659</ele>
        <time>2009-03-22T08:51:00Z</time>
      </trkpt>
      <trkpt lat="43.99604" lon="4.66902">
        <ele>168.128159</ele>
        <time>2009-03-22T08:51:04Z</time>
      </trkpt>
      <trkpt lat="43.99622" lon="4.66899">
        <ele>167.260696</ele>
        <time>2009-03-22T08:51:08Z</time>
      </trkpt>
      <trkpt lat="43.99637" lon="4.66886">
        <ele>167.795074</ele>
        <time>2009-03-22T08:51:12Z</time>
      </trkpt>
      <trkpt lat="43.99696" lon="4.66851">
        <ele>171.56105</ele>
        <time>2009-03-22T08:51:26Z</time>
      </trkpt>
      <trkpt lat="43.99707" lon="4.66834">
        <ele>172.524673</ele>
        <time>2009-03-22T08:51:30Z</time>
      </trkpt>
      <trkpt lat="43.99705" lon="4.66811">
        <ele>173.095169</ele>
        <time>2009-03-22T08:51:34Z</time>
      </trkpt>
      <trkpt lat="43.99671" lon="4.66757">
        <ele>172.800949</ele>
        <time>2009-03-22T08:51:45Z</time>
      </trkpt>
      <trkpt lat="43.99643" lon="4.66736">
        <ele>174.167801</ele>
        <time>2009-03-22T08:51:51Z</time>
      </trkpt>
      <trkpt lat="43.99607" lon="4.66717">
        <ele>174.035156</ele>
        <time>2009-03-22T08:51:58Z</time>
      </trkpt>
      <trkpt lat="43.9958" lon="4.66711">
        <ele>174.200577</ele>
        <time>2009-03-22T08:52:03Z</time>
      </trkpt>
      <trkpt lat="43.99557" lon="4.66694">
        <ele>175.297821</ele>
        <time>2009-03-22T08:52:08Z</time>
      </trkpt>
      <trkpt lat="43.99543" lon="4.66675">
        <ele>175.445435</ele>
        <time>2009-03-22T08:52:12Z</time>
      </trkpt>
      <trkpt lat="43.99527" lon="4.66652">
        <ele>174.730057</ele>
        <time>2009-03-22T08:52:17Z</time>
      </trkpt>
      <trkpt lat="43.99519" lon="4.66635">
        <ele>174.395828</ele>
        <time>2009-03-22T08:52:22Z</time>
      </trkpt>
      <trkpt lat="43.99521" lon="4.66617">
        <ele>175.575592</ele>
        <time>2009-03-22T08:52:27Z</time>
      </trkpt>
      <trkpt lat="43.99517" lon="4.6658">
        <ele>177.58255</ele>
        <time>2009-03-22T08:52:35Z</time>
      </trkpt>
      <trkpt lat="43.99516" lon="4.6656">
        <ele>178.496994</ele>
        <time>2009-03-22T08:52:39Z</time>
      </trkpt>
      <trkpt lat="43.99517" lon="4.66534">
        <ele>179.754349</ele>
        <time>2009-03-22T08:52:44Z</time>
      </trkpt>
      <trkpt lat="43.99524" lon="4.66505">
        <ele>181.555679</ele>
        <time>2009-03-22T08:52:50Z</time>
      </trkpt>
      <trkpt lat="43.99548" lon="4.66491">
        <ele>182.120453</ele>
        <time>2009-03-22T08:52:56Z</time>
      </trkpt>
      <trkpt lat="43.99584" lon="4.66483">
        <ele>182.168137</ele>
        <time>2009-03-22T08:53:04Z</time>
      </trkpt>
      <trkpt lat="43.99611" lon="4.6647">
        <ele>181.609833</ele>
        <time>2009-03-22T08:53:11Z</time>
      </trkpt>
      <trkpt lat="43.99618" lon="4.66465">
        <ele>181.314362</ele>
        <time>2009-03-22T08:53:13Z</time>
      </trkpt>
      <trkpt lat="43.9963" lon="4.66461">
        <ele>180.793121</ele>
        <time>2009-03-22T08:53:16Z</time>
      </trkpt>
      <trkpt lat="43.99642" lon="4.66461">
        <ele>180.287781</ele>
        <time>2009-03-22T08:53:19Z</time>
      </trkpt>
      <trkpt lat="43.99677" lon="4.66472">
        <ele>181.426926</ele>
        <time>2009-03-22T08:53:28Z</time>
      </trkpt>
      <trkpt lat="43.99695" lon="4.66489">
        <ele>182.923126</ele>
        <time>2009-03-22T08:53:39Z</time>
      </trkpt>
      <trkpt lat="43.99702" lon="4.66488">
        <ele>183.26091</ele>
        <time>2009-03-22T08:53:44Z</time>
      </trkpt>
      <trkpt lat="43.99729" lon="4.66474">
        <ele>182.373352</ele>
        <time>2009-03-22T08:53:57Z</time>
      </trkpt>
      <trkpt lat="43.99744" lon="4.66459">
        <ele>181.601318</ele>
        <time>2009-03-22T08:54:04Z</time>
      </trkpt>
      <trkpt lat="43.99764" lon="4.66437">
        <ele>185.947617</ele>
        <time>2009-03-22T08:54:13Z</time>
      </trkpt>
      <trkpt lat="43.99799" lon="4.66393">
        <ele>189.446045</ele>
        <time>2009-03-22T08:54:29Z</time>
      </trkpt>
      <trkpt lat="43.99802" lon="4.66376">
        <ele>191.013596</ele>
        <time>2009-03-22T08:54:34Z</time>
      </trkpt>
      <trkpt lat="43.99811" lon="4.66354">
        <ele>192.493927</ele>
        <time>2009-03-22T08:54:41Z</time>
      </trkpt>
      <trkpt lat="43.99818" lon="4.66333">
        <ele>193.348099</ele>
        <time>2009-03-22T08:54:47Z</time>
      </trkpt>
      <trkpt lat="43.99833" lon="4.66304">
        <ele>194.279068</ele>
        <time>2009-03-22T08:54:57Z</time>
      </trkpt>
      <trkpt lat="43.99845" lon="4.66283">
        <ele>195.052917</ele>
        <time>2009-03-22T08:55:06Z</time>
      </trkpt>
      <trkpt lat="43.99858" lon="4.66265">
        <ele>194.590515</ele>
        <time>2009-03-22T08:55:14Z</time>
      </trkpt>
      <trkpt lat="43.99863" lon="4.66245">
        <ele>193.932846</ele>
        <time>2009-03-22T08:55:21Z</time>
      </trkpt>
      <trkpt lat="43.99861" lon="4.66227">
        <ele>193.884903</ele>
        <time>2009-03-22T08:55:27Z</time>
      </trkpt>
      <trkpt lat="43.99853" lon="4.66196">
        <ele>195.37854</ele>
        <time>2009-03-22T08:55:38Z</time>
      </trkpt>
      <trkpt lat="43.99843" lon="4.66148">
        <ele>197.210037</ele>
        <time>2009-03-22T08:55:51Z</time>
      </trkpt>
      <trkpt lat="43.99835" lon="4.66104">
        <ele>196.64328</ele>
        <time>2009-03-22T08:56:04Z</time>
      </trkpt>
      <trkpt lat="43.99823" lon="4.6605">
        <ele>197.285568</ele>
        <time>2009-03-22T08:56:18Z</time>
      </trkpt>
      <trkpt lat="43.9982" lon="4.66029">
        <ele>197.277832</ele>
        <time>2009-03-22T08:56:24Z</time>
      </trkpt>
      <trkpt lat="43.99812" lon="4.66">
        <ele>198.38623</ele>
        <time>2009-03-22T08:56:32Z</time>
      </trkpt>
      <trkpt lat="43.99817" lon="4.6599">
        <ele>198.390991</ele>
        <time>2009-03-22T08:56:36Z</time>
      </trkpt>
      <trkpt lat="43.99852" lon="4.65971">
        <ele>199.289154</ele>
        <time>2009-03-22T08:56:50Z</time>
      </trkpt>
      <trkpt lat="43.9987" lon="4.65967">
        <ele>199.814102</ele>
        <time>2009-03-22T08:56:57Z</time>
      </trkpt>
      <trkpt lat="43.99899" lon="4.65964">
        <ele>200.26918</ele>
        <time>2009-03-22T08:57:08Z</time>
      </trkpt>
      <trkpt lat="43.99919" lon="4.65958">
        <ele>200.802124</ele>
        <time>2009-03-22T08:57:16Z</time>
      </trkpt>
      <trkpt lat="43.99937" lon="4.65949">
        <ele>202.236237</ele>
        <time>2009-03-22T08:57:23Z</time>
      </trkpt>
      <trkpt lat="43.9995" lon="4.65931">
        <ele>203.114243</ele>
        <time>2009-03-22T08:57:30Z</time>
      </trkpt>
      <trkpt lat="43.99962" lon="4.65921">
        <ele>202.898987</ele>
        <time>2009-03-22T08:57:36Z</time>
      </trkpt>
      <trkpt lat="43.99975" lon="4.65924">
        <ele>202.901886</ele>
        <time>2009-03-22T08:57:41Z</time>
      </trkpt>
      <trkpt lat="43.99996" lon="4.65935">
        <ele>204.288055</ele>
        <time>2009-03-22T08:57:50Z</time>
      </trkpt>
      <trkpt lat="44.00011" lon="4.65931">
        <ele>204.301208</ele>
        <time>2009-03-22T08:57:56Z</time>
      </trkpt>
      <trkpt lat="44.00032" lon="4.65909">
        <ele>202.88649</ele>
        <time>2009-03-22T08:58:06Z</time>
      </trkpt>
      <trkpt lat="44.00048" lon="4.65898">
        <ele>205.752701</ele>
        <time>2009-03-22T08:58:13Z</time>
      </trkpt>
      <trkpt lat="44.00062" lon="4.65896">
        <ele>206.532043</ele>
        <time>2009-03-22T08:58:19Z</time>
      </trkpt>
      <trkpt lat="44.00079" lon="4.65909">
        <ele>205.608826</ele>
        <time>2009-03-22T08:58:27Z</time>
      </trkpt>
      <trkpt lat="44.00091" lon="4.65917">
        <ele>206.652298</ele>
        <time>2009-03-22T08:58:33Z</time>
      </trkpt>
      <trkpt lat="44.00103" lon="4.65914">
        <ele>206.884644</ele>
        <time>2009-03-22T08:58:38Z</time>
      </trkpt>
      <trkpt lat="44.0013" lon="4.65895">
        <ele>209.920166</ele>
        <time>2009-03-22T08:58:52Z</time>
      </trkpt>
      <trkpt lat="44.00167" lon="4.65889">
        <ele>211.864761</ele>
        <time>2009-03-22T08:59:06Z</time>
      </trkpt>
      <trkpt lat="44.00185" lon="4.65883">
        <ele>212.625748</ele>
        <time>2009-03-22T08:59:13Z</time>
      </trkpt>
      <trkpt lat="44.00202" lon="4.6587">
        <ele>212.646667</ele>
        <time>2009-03-22T08:59:21Z</time>
      </trkpt>
      <trkpt lat="44.00239" lon="4.6585">
        <ele>212.730347</ele>
        <time>2009-03-22T08:59:37Z</time>
      </trkpt>
      <trkpt lat="44.00258" lon="4.65845">
        <ele>214.716171</ele>
        <time>2009-03-22T08:59:45Z</time>
      </trkpt>
      <trkpt lat="44.00282" lon="4.65844">
        <ele>216.779755</ele>
        <time>2009-03-22T08:59:54Z</time>
      </trkpt>
      <trkpt lat="44.003" lon="4.65839">
        <ele>217.892624</ele>
        <time>2009-03-22T09:00:01Z</time>
      </trkpt>
      <trkpt lat="44.00327" lon="4.65836">
        <ele>219.1436</ele>
        <time>2009-03-22T09:00:13Z</time>
      </trkpt>
      <trkpt lat="44.00342" lon="4.65844">
        <ele>219.112869</ele>
        <time>2009-03-22T09:00:19Z</time>
      </trkpt>
      <trkpt lat="44.00352" lon="4.6585">
        <ele>218.802017</ele>
        <time>2009-03-22T09:00:24Z</time>
      </trkpt>
      <trkpt lat="44.00356" lon="4.65868">
        <ele>218.517441</ele>
        <time>2009-03-22T09:00:29Z</time>
      </trkpt>
      <trkpt lat="44.00359" lon="4.65903">
        <ele>218.799789</ele>
        <time>2009-03-22T09:00:38Z</time>
      </trkpt>
      <trkpt lat="44.00364" lon="4.65924">
        <ele>219.004288</ele>
        <time>2009-03-22T09:00:44Z</time>
      </trkpt>
      <trkpt lat="44.00386" lon="4.65969">
        <ele>220.86293</ele>
        <time>2009-03-22T09:00:59Z</time>
      </trkpt>
      <trkpt lat="44.00384" lon="4.65987">
        <ele>221.790253</ele>
        <time>2009-03-22T09:01:07Z</time>
      </trkpt>
      <trkpt lat="44.00394" lon="4.65991">
        <ele>221.761902</ele>
        <time>2009-03-22T09:01:15Z</time>
      </trkpt>
      <trkpt lat="44.00401" lon="4.66001">
        <ele>222.112518</ele>
        <time>2009-03-22T09:01:19Z</time>
      </trkpt>
      <trkpt lat="44.00402" lon="4.66016">
        <ele>222.887146</ele>
        <time>2009-03-22T09:01:28Z</time>
      </trkpt>
      <trkpt lat="44.00401" lon="4.66026">
        <ele>223.464539</ele>
        <time>2009-03-22T09:01:33Z</time>
      </trkpt>
      <trkpt lat="44.00396" lon="4.66041">
        <ele>224.464691</ele>
        <time>2009-03-22T09:01:41Z</time>
      </trkpt>
      <trkpt lat="44.00397" lon="4.66048">
        <ele>224.825455</ele>
        <time>2009-03-22T09:01:45Z</time>
      </trkpt>
      <trkpt lat="44.00396" lon="4.66053">
        <ele>225.14299</ele>
        <time>2009-03-22T09:02:01Z</time>
      </trkpt>
      <trkpt lat="44.0039" lon="4.66062">
        <ele>225.986984</ele>
        <time>2009-03-22T09:02:07Z</time>
      </trkpt>
      <trkpt lat="44.00383" lon="4.66062">
        <ele>226.527863</ele>
        <time>2009-03-22T09:02:15Z</time>
      </trkpt>
      <trkpt lat="44.00383" lon="4.66066">
        <ele>226.788391</ele>
        <time>2009-03-22T09:02:20Z</time>
      </trkpt>
      <trkpt lat="44.00381" lon="4.66077">
        <ele>227.857925</ele>
        <time>2009-03-22T09:02:26Z</time>
      </trkpt>
      <trkpt lat="44.00368" lon="4.66085">
        <ele>229.570053</ele>
        <time>2009-03-22T09:02:32Z</time>
      </trkpt>
      <trkpt lat="44.00369" lon="4.66097">
        <ele>230.660538</ele>
        <time>2009-03-22T09:02:36Z</time>
      </trkpt>
      <trkpt lat="44.00374" lon="4.66104">
        <ele>230.933609</ele>
        <time>2009-03-22T09:02:40Z</time>
      </trkpt>
      <trkpt lat="44.0038" lon="4.66108">
        <ele>230.480743</ele>
        <time>2009-03-22T09:02:44Z</time>
      </trkpt>
      <trkpt lat="44.00383" lon="4.66117">
        <ele>229.287003</ele>
        <time>2009-03-22T09:02:48Z</time>
      </trkpt>
      <trkpt lat="44.00391" lon="4.66124">
        <ele>226.714432</ele>
        <time>2009-03-22T09:02:53Z</time>
      </trkpt>
      <trkpt lat="44.00398" lon="4.66133">
        <ele>223.95343</ele>
        <time>2009-03-22T09:03:00Z</time>
      </trkpt>
      <trkpt lat="44.004" lon="4.6612">
        <ele>226.003616</ele>
        <time>2009-03-22T09:03:13Z</time>
      </trkpt>
      <trkpt lat="44.0042" lon="4.66107">
        <ele>224.248108</ele>
        <time>2009-03-22T09:03:20Z</time>
      </trkpt>
      <trkpt lat="44.00431" lon="4.66107">
        <ele>222.353317</ele>
        <time>2009-03-22T09:03:25Z</time>
      </trkpt>
      <trkpt lat="44.00449" lon="4.661">
        <ele>219.702469</ele>
        <time>2009-03-22T09:03:31Z</time>
      </trkpt>
      <trkpt lat="44.0046" lon="4.66092">
        <ele>219.155167</ele>
        <time>2009-03-22T09:03:36Z</time>
      </trkpt>
      <trkpt lat="44.0047" lon="4.66087">
        <ele>218.974915</ele>
        <time>2009-03-22T09:03:40Z</time>
      </trkpt>
      <trkpt lat="44.00476" lon="4.66082">
        <ele>219.392624</ele>
        <time>2009-03-22T09:03:43Z</time>
      </trkpt>
      <trkpt lat="44.00483" lon="4.66072">
        <ele>220.321671</ele>
        <time>2009-03-22T09:03:47Z</time>
      </trkpt>
      <trkpt lat="44.0049" lon="4.66068">
        <ele>220.644699</ele>
        <time>2009-03-22T09:03:51Z</time>
      </trkpt>
      <trkpt lat="44.00507" lon="4.66065">
        <ele>220.200989</ele>
        <time>2009-03-22T09:03:58Z</time>
      </trkpt>
      <trkpt lat="44.00527" lon="4.66053">
        <ele>221.067627</ele>
        <time>2009-03-22T09:04:08Z</time>
      </trkpt>
      <trkpt lat="44.00533" lon="4.66045">
        <ele>220.647659</ele>
        <time>2009-03-22T09:04:12Z</time>
      </trkpt>
      <trkpt lat="44.00549" lon="4.66046">
        <ele>220.134079</ele>
        <time>2009-03-22T09:04:19Z</time>
      </trkpt>
      <trkpt lat="44.00556" lon="4.66045">
        <ele>219.854721</ele>
        <time>2009-03-22T09:04:22Z</time>
      </trkpt>
      <trkpt lat="44.00568" lon="4.66034">
        <ele>219.447205</ele>
        <time>2009-03-22T09:04:27Z</time>
      </trkpt>
      <trkpt lat="44.00583" lon="4.66024">
        <ele>219.044495</ele>
        <time>2009-03-22T09:04:32Z</time>
      </trkpt>
      <trkpt lat="44.00585" lon="4.66024">
        <ele>218.955292</ele>
        <time>2009-03-22T09:04:35Z</time>
      </trkpt>
      <trkpt lat="44.00598" lon="4.66033">
        <ele>218.410919</ele>
        <time>2009-03-22T09:04:45Z</time>
      </trkpt>
      <trkpt lat="44.00591" lon="4.66029">
        <ele>218.686752</ele>
        <time>2009-03-22T09:04:57Z</time>
      </trkpt>
      <trkpt lat="44.00589" lon="4.66021">
        <ele>218.882568</ele>
        <time>2009-03-22T09:05:03Z</time>
      </trkpt>
      <trkpt lat="44.00588" lon="4.66016">
        <ele>218.975433</ele>
        <time>2009-03-22T09:05:19Z</time>
      </trkpt>
      <trkpt lat="44.00594" lon="4.66012">
        <ele>218.850311</ele>
        <time>2009-03-22T09:05:23Z</time>
      </trkpt>
      <trkpt lat="44.00654" lon="4.66038">
        <ele>212.224075</ele>
        <time>2009-03-22T09:05:44Z</time>
      </trkpt>
      <trkpt lat="44.00662" lon="4.66026">
        <ele>210.878311</ele>
        <time>2009-03-22T09:05:53Z</time>
      </trkpt>
      <trkpt lat="44.00668" lon="4.66023">
        <ele>209.706406</ele>
        <time>2009-03-22T09:05:57Z</time>
      </trkpt>
      <trkpt lat="44.00678" lon="4.66017">
        <ele>208.013245</ele>
        <time>2009-03-22T09:06:03Z</time>
      </trkpt>
      <trkpt lat="44.00683" lon="4.66017">
        <ele>207.203079</ele>
        <time>2009-03-22T09:06:05Z</time>
      </trkpt>
      <trkpt lat="44.00698" lon="4.6601">
        <ele>205.078247</ele>
        <time>2009-03-22T09:06:11Z</time>
      </trkpt>
      <trkpt lat="44.00698" lon="4.66004">
        <ele>205.016769</ele>
        <time>2009-03-22T09:06:15Z</time>
      </trkpt>
      <trkpt lat="44.00691" lon="4.65993">
        <ele>205.028</ele>
        <time>2009-03-22T09:06:34Z</time>
      </trkpt>
      <trkpt lat="44.00689" lon="4.65981">
        <ele>203.936996</ele>
        <time>2009-03-22T09:06:38Z</time>
      </trkpt>
      <trkpt lat="44.00672" lon="4.6595">
        <ele>202.058487</ele>
        <time>2009-03-22T09:06:45Z</time>
      </trkpt>
      <trkpt lat="44.00655" lon="4.65929">
        <ele>201.019379</ele>
        <time>2009-03-22T09:06:50Z</time>
      </trkpt>
      <trkpt lat="44.0064" lon="4.65908">
        <ele>201.276184</ele>
        <time>2009-03-22T09:06:54Z</time>
      </trkpt>
      <trkpt lat="44.00633" lon="4.65861">
        <ele>200.395294</ele>
        <time>2009-03-22T09:07:01Z</time>
      </trkpt>
      <trkpt lat="44.0063" lon="4.65857">
        <ele>200.773666</ele>
        <time>2009-03-22T09:07:04Z</time>
      </trkpt>
      <trkpt lat="44.00631" lon="4.65856">
        <ele>200.744461</ele>
        <time>2009-03-22T09:07:06Z</time>
      </trkpt>
      <trkpt lat="44.00633" lon="4.65817">
        <ele>202.340256</ele>
        <time>2009-03-22T09:07:17Z</time>
      </trkpt>
      <trkpt lat="44.00636" lon="4.65808">
        <ele>202.810959</ele>
        <time>2009-03-22T09:07:20Z</time>
      </trkpt>
      <trkpt lat="44.0065" lon="4.6577">
        <ele>206.538666</ele>
        <time>2009-03-22T09:07:34Z</time>
      </trkpt>
      <trkpt lat="44.00656" lon="4.65744">
        <ele>208.782516</ele>
        <time>2009-03-22T09:07:42Z</time>
      </trkpt>
      <trkpt lat="44.00656" lon="4.65728">
        <ele>209.58696</ele>
        <time>2009-03-22T09:07:47Z</time>
      </trkpt>
      <trkpt lat="44.00651" lon="4.65695">
        <ele>211.489746</ele>
        <time>2009-03-22T09:07:57Z</time>
      </trkpt>
      <trkpt lat="44.00645" lon="4.6568">
        <ele>212.737503</ele>
        <time>2009-03-22T09:08:02Z</time>
      </trkpt>
      <trkpt lat="44.00639" lon="4.65647">
        <ele>214.882111</ele>
        <time>2009-03-22T09:08:12Z</time>
      </trkpt>
      <trkpt lat="44.0064" lon="4.65641">
        <ele>215.15332</ele>
        <time>2009-03-22T09:08:14Z</time>
      </trkpt>
      <trkpt lat="44.00637" lon="4.65626">
        <ele>216.194473</ele>
        <time>2009-03-22T09:08:20Z</time>
      </trkpt>
      <trkpt lat="44.00638" lon="4.65591">
        <ele>217.640198</ele>
        <time>2009-03-22T09:08:31Z</time>
      </trkpt>
      <trkpt lat="44.00645" lon="4.65563">
        <ele>218.428314</ele>
        <time>2009-03-22T09:08:40Z</time>
      </trkpt>
      <trkpt lat="44.00663" lon="4.65532">
        <ele>220.920334</ele>
        <time>2009-03-22T09:08:54Z</time>
      </trkpt>
      <trkpt lat="44.00666" lon="4.65514">
        <ele>222.885773</ele>
        <time>2009-03-22T09:09:01Z</time>
      </trkpt>
      <trkpt lat="44.00672" lon="4.65497">
        <ele>224.481262</ele>
        <time>2009-03-22T09:09:08Z</time>
      </trkpt>
      <trkpt lat="44.00687" lon="4.65465">
        <ele>226.664612</ele>
        <time>2009-03-22T09:09:22Z</time>
      </trkpt>
      <trkpt lat="44.0069" lon="4.65445">
        <ele>228.204254</ele>
        <time>2009-03-22T09:09:30Z</time>
      </trkpt>
      <trkpt lat="44.00689" lon="4.65422">
        <ele>228.477463</ele>
        <time>2009-03-22T09:09:38Z</time>
      </trkpt>
      <trkpt lat="44.00665" lon="4.65377">
        <ele>228.687912</ele>
        <time>2009-03-22T09:09:51Z</time>
      </trkpt>
      <trkpt lat="44.00631" lon="4.65348">
        <ele>228.915405</ele>
        <time>2009-03-22T09:10:00Z</time>
      </trkpt>
      <trkpt lat="44.00619" lon="4.65333">
        <ele>228.780579</ele>
        <time>2009-03-22T09:10:04Z</time>
      </trkpt>
      <trkpt lat="44.00619" lon="4.65324">
        <ele>228.372437</ele>
        <time>2009-03-22T09:10:06Z</time>
      </trkpt>
      <trkpt lat="44.00623" lon="4.65288">
        <ele>228.555771</ele>
        <time>2009-03-22T09:10:13Z</time>
      </trkpt>
      <trkpt lat="44.00624" lon="4.65284">
        <ele>228.639893</ele>
        <time>2009-03-22T09:10:14Z</time>
      </trkpt>
      <trkpt lat="44.00634" lon="4.65287">
        <ele>227.949036</ele>
        <time>2009-03-22T09:10:18Z</time>
      </trkpt>
      <trkpt lat="44.0065" lon="4.65309">
        <ele>226.448853</ele>
        <time>2009-03-22T09:10:24Z</time>
      </trkpt>
      <trkpt lat="44.0067" lon="4.65316">
        <ele>225.099442</ele>
        <time>2009-03-22T09:10:29Z</time>
      </trkpt>
      <trkpt lat="44.00694" lon="4.65313">
        <ele>222.842224</ele>
        <time>2009-03-22T09:10:36Z</time>
      </trkpt>
      <trkpt lat="44.00705" lon="4.65304">
        <ele>222.088699</ele>
        <time>2009-03-22T09:10:40Z</time>
      </trkpt>
      <trkpt lat="44.00715" lon="4.65299">
        <ele>221.60025</ele>
        <time>2009-03-22T09:10:43Z</time>
      </trkpt>
      <trkpt lat="44.0073" lon="4.65299">
        <ele>220.775772</ele>
        <time>2009-03-22T09:10:47Z</time>
      </trkpt>
      <trkpt lat="44.00754" lon="4.65306">
        <ele>219.495789</ele>
        <time>2009-03-22T09:10:52Z</time>
      </trkpt>
      <trkpt lat="44.00781" lon="4.65322">
        <ele>218.561478</ele>
        <time>2009-03-22T09:11:00Z</time>
      </trkpt>
      <trkpt lat="44.00796" lon="4.65323">
        <ele>218.435852</ele>
        <time>2009-03-22T09:11:05Z</time>
      </trkpt>
      <trkpt lat="44.00803" lon="4.65325">
        <ele>218.93399</ele>
        <time>2009-03-22T09:11:08Z</time>
      </trkpt>
      <trkpt lat="44.00813" lon="4.65334">
        <ele>219.556396</ele>
        <time>2009-03-22T09:11:14Z</time>
      </trkpt>
      <trkpt lat="44.0082" lon="4.65348">
        <ele>219.704651</ele>
        <time>2009-03-22T09:11:18Z</time>
      </trkpt>
      <trkpt lat="44.00827" lon="4.65355">
        <ele>219.519302</ele>
        <time>2009-03-22T09:11:22Z</time>
      </trkpt>
      <trkpt lat="44.00836" lon="4.65373">
        <ele>218.488495</ele>
        <time>2009-03-22T09:11:28Z</time>
      </trkpt>
      <trkpt lat="44.0085" lon="4.65393">
        <ele>217.314758</ele>
        <time>2009-03-22T09:11:34Z</time>
      </trkpt>
      <trkpt lat="44.0086" lon="4.65401">
        <ele>216.97551</ele>
        <time>2009-03-22T09:11:38Z</time>
      </trkpt>
      <trkpt lat="44.00873" lon="4.65405">
        <ele>216.166794</ele>
        <time>2009-03-22T09:11:42Z</time>
      </trkpt>
      <trkpt lat="44.00895" lon="4.65408">
        <ele>214.912079</ele>
        <time>2009-03-22T09:11:49Z</time>
      </trkpt>
      <trkpt lat="44.00903" lon="4.65405">
        <ele>214.5177</ele>
        <time>2009-03-22T09:11:51Z</time>
      </trkpt>
      <trkpt lat="44.00918" lon="4.65416">
        <ele>213.253006</ele>
        <time>2009-03-22T09:11:56Z</time>
      </trkpt>
      <trkpt lat="44.00923" lon="4.65422">
        <ele>212.301788</ele>
        <time>2009-03-22T09:12:00Z</time>
      </trkpt>
      <trkpt lat="44.00925" lon="4.65428">
        <ele>211.317139</ele>
        <time>2009-03-22T09:12:08Z</time>
      </trkpt>
      <trkpt lat="44.00926" lon="4.65445">
        <ele>209.414642</ele>
        <time>2009-03-22T09:12:13Z</time>
      </trkpt>
      <trkpt lat="44.00925" lon="4.65457">
        <ele>208.727554</ele>
        <time>2009-03-22T09:12:16Z</time>
      </trkpt>
      <trkpt lat="44.00915" lon="4.65478">
        <ele>209.85524</ele>
        <time>2009-03-22T09:12:21Z</time>
      </trkpt>
      <trkpt lat="44.00875" lon="4.65545">
        <ele>208.189392</ele>
        <time>2009-03-22T09:12:34Z</time>
      </trkpt>
      <trkpt lat="44.00869" lon="4.65568">
        <ele>205.296082</ele>
        <time>2009-03-22T09:12:38Z</time>
      </trkpt>
      <trkpt lat="44.00873" lon="4.65578">
        <ele>204.005447</ele>
        <time>2009-03-22T09:12:42Z</time>
      </trkpt>
      <trkpt lat="44.00857" lon="4.65592">
        <ele>203.974701</ele>
        <time>2009-03-22T09:12:49Z</time>
      </trkpt>
      <trkpt lat="44.00839" lon="4.65612">
        <ele>202.602081</ele>
        <time>2009-03-22T09:12:55Z</time>
      </trkpt>
      <trkpt lat="44.00833" lon="4.65621">
        <ele>201.501587</ele>
        <time>2009-03-22T09:12:59Z</time>
      </trkpt>
      <trkpt lat="44.00834" lon="4.65622">
        <ele>201.300919</ele>
        <time>2009-03-22T09:13:03Z</time>
      </trkpt>
      <trkpt lat="44.00831" lon="4.65626">
        <ele>200.755753</ele>
        <time>2009-03-22T09:13:09Z</time>
      </trkpt>
      <trkpt lat="44.00826" lon="4.65637">
        <ele>199.966949</ele>
        <time>2009-03-22T09:13:13Z</time>
      </trkpt>
      <trkpt lat="44.00812" lon="4.6566">
        <ele>199.619293</ele>
        <time>2009-03-22T09:13:24Z</time>
      </trkpt>
      <trkpt lat="44.0081" lon="4.65679">
        <ele>198.909958</ele>
        <time>2009-03-22T09:13:29Z</time>
      </trkpt>
      <trkpt lat="44.00813" lon="4.65697">
        <ele>198.135117</ele>
        <time>2009-03-22T09:13:33Z</time>
      </trkpt>
      <trkpt lat="44.0082" lon="4.65721">
        <ele>197.537048</ele>
        <time>2009-03-22T09:13:38Z</time>
      </trkpt>
      <trkpt lat="44.00825" lon="4.65729">
        <ele>197.203613</ele>
        <time>2009-03-22T09:13:41Z</time>
      </trkpt>
      <trkpt lat="44.00831" lon="4.65731">
        <ele>196.81163</ele>
        <time>2009-03-22T09:13:43Z</time>
      </trkpt>
      <trkpt lat="44.00853" lon="4.65743">
        <ele>194.273834</ele>
        <time>2009-03-22T09:13:50Z</time>
      </trkpt>
      <trkpt lat="44.00871" lon="4.6575">
        <ele>191.753647</ele>
        <time>2009-03-22T09:13:56Z</time>
      </trkpt>
      <trkpt lat="44.00879" lon="4.6575">
        <ele>191.297089</ele>
        <time>2009-03-22T09:13:58Z</time>
      </trkpt>
      <trkpt lat="44.00911" lon="4.6577">
        <ele>189.545105</ele>
        <time>2009-03-22T09:14:08Z</time>
      </trkpt>
      <trkpt lat="44.00953" lon="4.65781">
        <ele>188.040329</ele>
        <time>2009-03-22T09:14:21Z</time>
      </trkpt>
      <trkpt lat="44.00976" lon="4.65796">
        <ele>186.226227</ele>
        <time>2009-03-22T09:14:26Z</time>
      </trkpt>
      <trkpt lat="44.00991" lon="4.65802">
        <ele>184.333603</ele>
        <time>2009-03-22T09:14:29Z</time>
      </trkpt>
      <trkpt lat="44.01006" lon="4.65819">
        <ele>180.926712</ele>
        <time>2009-03-22T09:14:33Z</time>
      </trkpt>
      <trkpt lat="44.01006" lon="4.65829">
        <ele>180.295868</ele>
        <time>2009-03-22T09:14:35Z</time>
      </trkpt>
      <trkpt lat="44.01005" lon="4.65858">
        <ele>181.723038</ele>
        <time>2009-03-22T09:14:41Z</time>
      </trkpt>
      <trkpt lat="44.01013" lon="4.65901">
        <ele>182.3526</ele>
        <time>2009-03-22T09:14:51Z</time>
      </trkpt>
      <trkpt lat="44.01014" lon="4.65961">
        <ele>180.954315</ele>
        <time>2009-03-22T09:15:03Z</time>
      </trkpt>
      <trkpt lat="44.01025" lon="4.66005">
        <ele>178.602737</ele>
        <time>2009-03-22T09:15:11Z</time>
      </trkpt>
      <trkpt lat="44.01034" lon="4.66034">
        <ele>176.077454</ele>
        <time>2009-03-22T09:15:17Z</time>
      </trkpt>
      <trkpt lat="44.01035" lon="4.66058">
        <ele>174.999832</ele>
        <time>2009-03-22T09:15:21Z</time>
      </trkpt>
      <trkpt lat="44.01046" lon="4.66105">
        <ele>176.160416</ele>
        <time>2009-03-22T09:15:29Z</time>
      </trkpt>
      <trkpt lat="44.01065" lon="4.66135">
        <ele>175.923004</ele>
        <time>2009-03-22T09:15:35Z</time>
      </trkpt>
      <trkpt lat="44.01074" lon="4.66151">
        <ele>174.361893</ele>
        <time>2009-03-22T09:15:39Z</time>
      </trkpt>
      <trkpt lat="44.0108" lon="4.66145">
        <ele>173.1129</ele>
        <time>2009-03-22T09:15:43Z</time>
      </trkpt>
      <trkpt lat="44.01095" lon="4.66139">
        <ele>171.392197</ele>
        <time>2009-03-22T09:15:50Z</time>
      </trkpt>
      <trkpt lat="44.01108" lon="4.66127">
        <ele>172.972855</ele>
        <time>2009-03-22T09:15:55Z</time>
      </trkpt>
      <trkpt lat="44.01124" lon="4.66106">
        <ele>175.060562</ele>
        <time>2009-03-22T09:16:02Z</time>
      </trkpt>
      <trkpt lat="44.01138" lon="4.66093">
        <ele>176.54335</ele>
        <time>2009-03-22T09:16:07Z</time>
      </trkpt>
      <trkpt lat="44.01142" lon="4.66085">
        <ele>177.199005</ele>
        <time>2009-03-22T09:16:09Z</time>
      </trkpt>
      <trkpt lat="44.01148" lon="4.66079">
        <ele>177.804153</ele>
        <time>2009-03-22T09:16:11Z</time>
      </trkpt>
      <trkpt lat="44.01163" lon="4.66055">
        <ele>178.957443</ele>
        <time>2009-03-22T09:16:18Z</time>
      </trkpt>
      <trkpt lat="44.01165" lon="4.66043">
        <ele>179.025497</ele>
        <time>2009-03-22T09:16:21Z</time>
      </trkpt>
      <trkpt lat="44.01176" lon="4.6603">
        <ele>178.62706</ele>
        <time>2009-03-22T09:16:26Z</time>
      </trkpt>
      <trkpt lat="44.01181" lon="4.66014">
        <ele>178.464462</ele>
        <time>2009-03-22T09:16:30Z</time>
      </trkpt>
      <trkpt lat="44.01186" lon="4.6599">
        <ele>180.202698</ele>
        <time>2009-03-22T09:16:36Z</time>
      </trkpt>
      <trkpt lat="44.01194" lon="4.65969">
        <ele>182.059113</ele>
        <time>2009-03-22T09:16:41Z</time>
      </trkpt>
      <trkpt lat="44.01199" lon="4.6594">
        <ele>183.840698</ele>
        <time>2009-03-22T09:16:48Z</time>
      </trkpt>
      <trkpt lat="44.01224" lon="4.65889">
        <ele>182.286362</ele>
        <time>2009-03-22T09:17:04Z</time>
      </trkpt>
      <trkpt lat="44.01233" lon="4.65881">
        <ele>182.120621</ele>
        <time>2009-03-22T09:17:08Z</time>
      </trkpt>
      <trkpt lat="44.01241" lon="4.6587">
        <ele>183.523651</ele>
        <time>2009-03-22T09:17:12Z</time>
      </trkpt>
      <trkpt lat="44.01256" lon="4.65859">
        <ele>183.959091</ele>
        <time>2009-03-22T09:17:18Z</time>
      </trkpt>
      <trkpt lat="44.01267" lon="4.65844">
        <ele>183.336853</ele>
        <time>2009-03-22T09:17:23Z</time>
      </trkpt>
      <trkpt lat="44.01286" lon="4.65822">
        <ele>185.627655</ele>
        <time>2009-03-22T09:17:31Z</time>
      </trkpt>
      <trkpt lat="44.01297" lon="4.65802">
        <ele>188.421906</ele>
        <time>2009-03-22T09:17:37Z</time>
      </trkpt>
      <trkpt lat="44.01315" lon="4.65768">
        <ele>188.562576</ele>
        <time>2009-03-22T09:17:51Z</time>
      </trkpt>
      <trkpt lat="44.01318" lon="4.65748">
        <ele>189.456619</ele>
        <time>2009-03-22T09:17:57Z</time>
      </trkpt>
      <trkpt lat="44.01314" lon="4.6572">
        <ele>192.001694</ele>
        <time>2009-03-22T09:18:07Z</time>
      </trkpt>
      <trkpt lat="44.01313" lon="4.65705">
        <ele>192.419205</ele>
        <time>2009-03-22T09:18:12Z</time>
      </trkpt>
      <trkpt lat="44.01316" lon="4.65692">
        <ele>191.86731</ele>
        <time>2009-03-22T09:18:16Z</time>
      </trkpt>
      <trkpt lat="44.01317" lon="4.65681">
        <ele>191.505325</ele>
        <time>2009-03-22T09:18:20Z</time>
      </trkpt>
      <trkpt lat="44.01328" lon="4.65665">
        <ele>190.727264</ele>
        <time>2009-03-22T09:18:26Z</time>
      </trkpt>
      <trkpt lat="44.01335" lon="4.65647">
        <ele>191.520813</ele>
        <time>2009-03-22T09:18:31Z</time>
      </trkpt>
      <trkpt lat="44.01338" lon="4.65611">
        <ele>192.584885</ele>
        <time>2009-03-22T09:18:42Z</time>
      </trkpt>
      <trkpt lat="44.01344" lon="4.65591">
        <ele>192.991928</ele>
        <time>2009-03-22T09:18:48Z</time>
      </trkpt>
      <trkpt lat="44.01344" lon="4.65575">
        <ele>193.800919</ele>
        <time>2009-03-22T09:18:53Z</time>
      </trkpt>
      <trkpt lat="44.01335" lon="4.65548">
        <ele>195.105057</ele>
        <time>2009-03-22T09:18:59Z</time>
      </trkpt>
      <trkpt lat="44.01328" lon="4.65538">
        <ele>195.537842</ele>
        <time>2009-03-22T09:19:03Z</time>
      </trkpt>
      <trkpt lat="44.01325" lon="4.65536">
        <ele>195.962036</ele>
        <time>2009-03-22T09:19:04Z</time>
      </trkpt>
      <trkpt lat="44.01315" lon="4.65518">
        <ele>197.853622</ele>
        <time>2009-03-22T09:19:10Z</time>
      </trkpt>
      <trkpt lat="44.01312" lon="4.65511">
        <ele>198.392151</ele>
        <time>2009-03-22T09:19:12Z</time>
      </trkpt>
      <trkpt lat="44.01311" lon="4.65493">
        <ele>199.040848</ele>
        <time>2009-03-22T09:19:17Z</time>
      </trkpt>
      <trkpt lat="44.01309" lon="4.65482">
        <ele>199.491013</ele>
        <time>2009-03-22T09:19:21Z</time>
      </trkpt>
      <trkpt lat="44.01295" lon="4.65471">
        <ele>199.977676</ele>
        <time>2009-03-22T09:19:27Z</time>
      </trkpt>
      <trkpt lat="44.01277" lon="4.65447">
        <ele>200.75145</ele>
        <time>2009-03-22T09:19:37Z</time>
      </trkpt>
      <trkpt lat="44.01264" lon="4.65433">
        <ele>201.4505</ele>
        <time>2009-03-22T09:19:44Z</time>
      </trkpt>
      <trkpt lat="44.01263" lon="4.65422">
        <ele>201.361938</ele>
        <time>2009-03-22T09:19:48Z</time>
      </trkpt>
      <trkpt lat="44.01265" lon="4.65413">
        <ele>201.173386</ele>
        <time>2009-03-22T09:19:51Z</time>
      </trkpt>
      <trkpt lat="44.01264" lon="4.65409">
        <ele>201.138733</ele>
        <time>2009-03-22T09:19:52Z</time>
      </trkpt>
      <trkpt lat="44.01263" lon="4.65387">
        <ele>200.800995</ele>
        <time>2009-03-22T09:19:58Z</time>
      </trkpt>
      <trkpt lat="44.01264" lon="4.65377">
        <ele>200.642349</ele>
        <time>2009-03-22T09:20:01Z</time>
      </trkpt>
      <trkpt lat="44.0127" lon="4.65359">
        <ele>200.342285</ele>
        <time>2009-03-22T09:20:07Z</time>
      </trkpt>
      <trkpt lat="44.01277" lon="4.65341">
        <ele>200.048416</ele>
        <time>2009-03-22T09:20:13Z</time>
      </trkpt>
      <trkpt lat="44.01296" lon="4.65315">
        <ele>204.89505</ele>
        <time>2009-03-22T09:20:24Z</time>
      </trkpt>
      <trkpt lat="44.01309" lon="4.65306">
        <ele>206.758957</ele>
        <time>2009-03-22T09:20:30Z</time>
      </trkpt>
      <trkpt lat="44.0132" lon="4.65283">
        <ele>207.408646</ele>
        <time>2009-03-22T09:20:37Z</time>
      </trkpt>
      <trkpt lat="44.0132" lon="4.65237">
        <ele>207.554565</ele>
        <time>2009-03-22T09:20:49Z</time>
      </trkpt>
      <trkpt lat="44.01321" lon="4.65207">
        <ele>207.653198</ele>
        <time>2009-03-22T09:20:56Z</time>
      </trkpt>
      <trkpt lat="44.01324" lon="4.65184">
        <ele>208.038742</ele>
        <time>2009-03-22T09:21:02Z</time>
      </trkpt>
      <trkpt lat="44.01327" lon="4.65175">
        <ele>207.98967</ele>
        <time>2009-03-22T09:21:05Z</time>
      </trkpt>
      <trkpt lat="44.01325" lon="4.65162">
        <ele>208.699951</ele>
        <time>2009-03-22T09:21:09Z</time>
      </trkpt>
      <trkpt lat="44.01316" lon="4.6515">
        <ele>209.884842</ele>
        <time>2009-03-22T09:21:14Z</time>
      </trkpt>
      <trkpt lat="44.01317" lon="4.65136">
        <ele>210.031357</ele>
        <time>2009-03-22T09:21:19Z</time>
      </trkpt>
      <trkpt lat="44.01327" lon="4.65108">
        <ele>209.992599</ele>
        <time>2009-03-22T09:21:27Z</time>
      </trkpt>
      <trkpt lat="44.01327" lon="4.65089">
        <ele>210.536911</ele>
        <time>2009-03-22T09:21:34Z</time>
      </trkpt>
      <trkpt lat="44.01318" lon="4.65079">
        <ele>211.280975</ele>
        <time>2009-03-22T09:21:41Z</time>
      </trkpt>
      <trkpt lat="44.0131" lon="4.65075">
        <ele>211.647903</ele>
        <time>2009-03-22T09:21:45Z</time>
      </trkpt>
      <trkpt lat="44.01293" lon="4.65043">
        <ele>212.779022</ele>
        <time>2009-03-22T09:21:58Z</time>
      </trkpt>
      <trkpt lat="44.01285" lon="4.65034">
        <ele>213.337296</ele>
        <time>2009-03-22T09:22:03Z</time>
      </trkpt>
      <trkpt lat="44.01277" lon="4.6503">
        <ele>213.721924</ele>
        <time>2009-03-22T09:22:07Z</time>
      </trkpt>
      <trkpt lat="44.01262" lon="4.65014">
        <ele>214.618073</ele>
        <time>2009-03-22T09:22:15Z</time>
      </trkpt>
      <trkpt lat="44.01242" lon="4.65009">
        <ele>215.752823</ele>
        <time>2009-03-22T09:22:26Z</time>
      </trkpt>
      <trkpt lat="44.01231" lon="4.65001">
        <ele>216.62149</ele>
        <time>2009-03-22T09:22:31Z</time>
      </trkpt>
      <trkpt lat="44.01218" lon="4.65001">
        <ele>217.454086</ele>
        <time>2009-03-22T09:22:37Z</time>
      </trkpt>
      <trkpt lat="44.01203" lon="4.64997">
        <ele>218.567535</ele>
        <time>2009-03-22T09:22:44Z</time>
      </trkpt>
      <trkpt lat="44.0119" lon="4.65">
        <ele>219.487946</ele>
        <time>2009-03-22T09:22:50Z</time>
      </trkpt>
      <trkpt lat="44.01181" lon="4.64999">
        <ele>220.21347</ele>
        <time>2009-03-22T09:22:54Z</time>
      </trkpt>
      <trkpt lat="44.01172" lon="4.64986">
        <ele>220.547516</ele>
        <time>2009-03-22T09:22:59Z</time>
      </trkpt>
      <trkpt lat="44.01161" lon="4.64979">
        <ele>220.901489</ele>
        <time>2009-03-22T09:23:05Z</time>
      </trkpt>
      <trkpt lat="44.01155" lon="4.64985">
        <ele>221.761902</ele>
        <time>2009-03-22T09:23:09Z</time>
      </trkpt>
      <trkpt lat="44.0115" lon="4.6501">
        <ele>223.70195</ele>
        <time>2009-03-22T09:23:18Z</time>
      </trkpt>
      <trkpt lat="44.01155" lon="4.65024">
        <ele>223.684998</ele>
        <time>2009-03-22T09:23:22Z</time>
      </trkpt>
      <trkpt lat="44.01152" lon="4.65039">
        <ele>224.526718</ele>
        <time>2009-03-22T09:23:28Z</time>
      </trkpt>
      <trkpt lat="44.01145" lon="4.65051">
        <ele>225.795105</ele>
        <time>2009-03-22T09:23:34Z</time>
      </trkpt>
      <trkpt lat="44.01121" lon="4.65068">
        <ele>229.464188</ele>
        <time>2009-03-22T09:23:49Z</time>
      </trkpt>
      <trkpt lat="44.01109" lon="4.65084">
        <ele>230.997223</ele>
        <time>2009-03-22T09:24:00Z</time>
      </trkpt>
      <trkpt lat="44.01106" lon="4.65086">
        <ele>231.020554</ele>
        <time>2009-03-22T09:24:02Z</time>
      </trkpt>
      <trkpt lat="44.01101" lon="4.65101">
        <ele>230.395004</ele>
        <time>2009-03-22T09:24:08Z</time>
      </trkpt>
      <trkpt lat="44.01082" lon="4.6512">
        <ele>231.304611</ele>
        <time>2009-03-22T09:24:17Z</time>
      </trkpt>
      <trkpt lat="44.01076" lon="4.65141">
        <ele>231.560028</ele>
        <time>2009-03-22T09:24:25Z</time>
      </trkpt>
      <trkpt lat="44.01077" lon="4.6515">
        <ele>231.05484</ele>
        <time>2009-03-22T09:24:28Z</time>
      </trkpt>
      <trkpt lat="44.01069" lon="4.65157">
        <ele>231.882706</ele>
        <time>2009-03-22T09:24:33Z</time>
      </trkpt>
      <trkpt lat="44.01063" lon="4.65155">
        <ele>232.694397</ele>
        <time>2009-03-22T09:24:36Z</time>
      </trkpt>
      <trkpt lat="44.01054" lon="4.65158">
        <ele>233.46138</ele>
        <time>2009-03-22T09:24:41Z</time>
      </trkpt>
      <trkpt lat="44.01042" lon="4.65173">
        <ele>234.462692</ele>
        <time>2009-03-22T09:24:49Z</time>
      </trkpt>
      <trkpt lat="44.01038" lon="4.65164">
        <ele>235.049072</ele>
        <time>2009-03-22T09:24:54Z</time>
      </trkpt>
      <trkpt lat="44.01039" lon="4.65154">
        <ele>235.133392</ele>
        <time>2009-03-22T09:24:57Z</time>
      </trkpt>
      <trkpt lat="44.01038" lon="4.65148">
        <ele>235.42717</ele>
        <time>2009-03-22T09:24:59Z</time>
      </trkpt>
      <trkpt lat="44.01034" lon="4.65145">
        <ele>235.805206</ele>
        <time>2009-03-22T09:25:01Z</time>
      </trkpt>
      <trkpt lat="44.01033" lon="4.65127">
        <ele>235.510651</ele>
        <time>2009-03-22T09:25:06Z</time>
      </trkpt>
      <trkpt lat="44.01027" lon="4.65111">
        <ele>235.272217</ele>
        <time>2009-03-22T09:25:10Z</time>
      </trkpt>
      <trkpt lat="44.01023" lon="4.65102">
        <ele>235.142532</ele>
        <time>2009-03-22T09:25:12Z</time>
      </trkpt>
      <trkpt lat="44.01024" lon="4.6509">
        <ele>234.535812</ele>
        <time>2009-03-22T09:25:16Z</time>
      </trkpt>
      <trkpt lat="44.0104" lon="4.65045">
        <ele>231.848846</ele>
        <time>2009-03-22T09:25:26Z</time>
      </trkpt>
      <trkpt lat="44.01036" lon="4.65035">
        <ele>231.322418</ele>
        <time>2009-03-22T09:25:30Z</time>
      </trkpt>
      <trkpt lat="44.01025" lon="4.65032">
        <ele>231.038254</ele>
        <time>2009-03-22T09:25:33Z</time>
      </trkpt>
      <trkpt lat="44.01013" lon="4.65033">
        <ele>231.379181</ele>
        <time>2009-03-22T09:25:36Z</time>
      </trkpt>
      <trkpt lat="44.00988" lon="4.65029">
        <ele>231.726257</ele>
        <time>2009-03-22T09:25:42Z</time>
      </trkpt>
      <trkpt lat="44.00973" lon="4.65019">
        <ele>231.630569</ele>
        <time>2009-03-22T09:25:46Z</time>
      </trkpt>
      <trkpt lat="44.00969" lon="4.65016">
        <ele>231.581848</ele>
        <time>2009-03-22T09:25:47Z</time>
      </trkpt>
      <trkpt lat="44.00955" lon="4.64997">
        <ele>232.208237</ele>
        <time>2009-03-22T09:25:52Z</time>
      </trkpt>
      <trkpt lat="44.00942" lon="4.64968">
        <ele>232.816193</ele>
        <time>2009-03-22T09:25:59Z</time>
      </trkpt>
      <trkpt lat="44.00928" lon="4.64941">
        <ele>233.18454</ele>
        <time>2009-03-22T09:26:07Z</time>
      </trkpt>
      <trkpt lat="44.00928" lon="4.64925">
        <ele>233.174164</ele>
        <time>2009-03-22T09:26:11Z</time>
      </trkpt>
      <trkpt lat="44.00927" lon="4.64904">
        <ele>233.222595</ele>
        <time>2009-03-22T09:26:16Z</time>
      </trkpt>
      <trkpt lat="44.00919" lon="4.64886">
        <ele>233.407104</ele>
        <time>2009-03-22T09:26:21Z</time>
      </trkpt>
      <trkpt lat="44.0089" lon="4.64854">
        <ele>234</ele>
        <time>2009-03-22T09:26:32Z</time>
      </trkpt>
      <trkpt lat="44.00884" lon="4.64841">
        <ele>234</ele>
        <time>2009-03-22T09:26:35Z</time>
      </trkpt>
      <trkpt lat="44.00868" lon="4.6478">
        <ele>234.688095</ele>
        <time>2009-03-22T09:26:45Z</time>
      </trkpt>
      <trkpt lat="44.00859" lon="4.64706">
        <ele>235.722534</ele>
        <time>2009-03-22T09:26:56Z</time>
      </trkpt>
      <trkpt lat="44.00851" lon="4.64675">
        <ele>236</ele>
        <time>2009-03-22T09:27:01Z</time>
      </trkpt>
      <trkpt lat="44.00841" lon="4.64638">
        <ele>236</ele>
        <time>2009-03-22T09:27:07Z</time>
      </trkpt>
      <trkpt lat="44.00847" lon="4.64629">
        <ele>235.931442</ele>
        <time>2009-03-22T09:27:11Z</time>
      </trkpt>
      <trkpt lat="44.00853" lon="4.64628">
        <ele>235.881302</ele>
        <time>2009-03-22T09:27:13Z</time>
      </trkpt>
      <trkpt lat="44.00867" lon="4.64629">
        <ele>235.578568</ele>
        <time>2009-03-22T09:27:17Z</time>
      </trkpt>
      <trkpt lat="44.00876" lon="4.64641">
        <ele>235.467987</ele>
        <time>2009-03-22T09:27:21Z</time>
      </trkpt>
      <trkpt lat="44.00898" lon="4.64641">
        <ele>234.963593</ele>
        <time>2009-03-22T09:27:28Z</time>
      </trkpt>
      <trkpt lat="44.00911" lon="4.64632">
        <ele>234.290268</ele>
        <time>2009-03-22T09:27:32Z</time>
      </trkpt>
      <trkpt lat="44.00921" lon="4.64604">
        <ele>233.423462</ele>
        <time>2009-03-22T09:27:38Z</time>
      </trkpt>
      <trkpt lat="44.00925" lon="4.64591">
        <ele>233.065704</ele>
        <time>2009-03-22T09:27:42Z</time>
      </trkpt>
      <trkpt lat="44.00931" lon="4.64582">
        <ele>232.668869</ele>
        <time>2009-03-22T09:27:45Z</time>
      </trkpt>
      <trkpt lat="44.00967" lon="4.64594">
        <ele>230.810028</ele>
        <time>2009-03-22T09:27:56Z</time>
      </trkpt>
      <trkpt lat="44.00998" lon="4.6459">
        <ele>228.53511</ele>
        <time>2009-03-22T09:28:03Z</time>
      </trkpt>
      <trkpt lat="44.01026" lon="4.64582">
        <ele>225.748505</ele>
        <time>2009-03-22T09:28:08Z</time>
      </trkpt>
      <trkpt lat="44.0105" lon="4.64573">
        <ele>223.333405</ele>
        <time>2009-03-22T09:28:13Z</time>
      </trkpt>
      <trkpt lat="44.0106" lon="4.64567">
        <ele>222.310257</ele>
        <time>2009-03-22T09:28:17Z</time>
      </trkpt>
      <trkpt lat="44.01075" lon="4.64582">
        <ele>221.301147</ele>
        <time>2009-03-22T09:28:22Z</time>
      </trkpt>
      <trkpt lat="44.01085" lon="4.64588">
        <ele>220.83728</ele>
        <time>2009-03-22T09:28:25Z</time>
      </trkpt>
      <trkpt lat="44.01089" lon="4.64591">
        <ele>220.744553</ele>
        <time>2009-03-22T09:28:26Z</time>
      </trkpt>
      <trkpt lat="44.01109" lon="4.64601">
        <ele>219.800171</ele>
        <time>2009-03-22T09:28:31Z</time>
      </trkpt>
      <trkpt lat="44.01128" lon="4.64604">
        <ele>218.882431</ele>
        <time>2009-03-22T09:28:35Z</time>
      </trkpt>
      <trkpt lat="44.01141" lon="4.64616">
        <ele>218.597275</ele>
        <time>2009-03-22T09:28:38Z</time>
      </trkpt>
      <trkpt lat="44.01172" lon="4.64637">
        <ele>217.906372</ele>
        <time>2009-03-22T09:28:44Z</time>
      </trkpt>
      <trkpt lat="44.01189" lon="4.64632">
        <ele>217.6465</ele>
        <time>2009-03-22T09:28:48Z</time>
      </trkpt>
      <trkpt lat="44.01192" lon="4.64621">
        <ele>217.699249</ele>
        <time>2009-03-22T09:28:50Z</time>
      </trkpt>
      <trkpt lat="44.01191" lon="4.64592">
        <ele>217.955048</ele>
        <time>2009-03-22T09:28:55Z</time>
      </trkpt>
      <trkpt lat="44.01181" lon="4.64549">
        <ele>218</ele>
        <time>2009-03-22T09:29:02Z</time>
      </trkpt>
      <trkpt lat="44.01172" lon="4.64537">
        <ele>218</ele>
        <time>2009-03-22T09:29:05Z</time>
      </trkpt>
      <trkpt lat="44.01165" lon="4.64521">
        <ele>218.10643</ele>
        <time>2009-03-22T09:29:08Z</time>
      </trkpt>
      <trkpt lat="44.01164" lon="4.64509">
        <ele>218.104263</ele>
        <time>2009-03-22T09:29:10Z</time>
      </trkpt>
      <trkpt lat="44.01168" lon="4.6447">
        <ele>218.010223</ele>
        <time>2009-03-22T09:29:17Z</time>
      </trkpt>
      <trkpt lat="44.01176" lon="4.64471">
        <ele>218</ele>
        <time>2009-03-22T09:29:22Z</time>
      </trkpt>
      <trkpt lat="44.01184" lon="4.6447">
        <ele>218</ele>
        <time>2009-03-22T09:29:25Z</time>
      </trkpt>
      <trkpt lat="44.01206" lon="4.64461">
        <ele>218</ele>
        <time>2009-03-22T09:29:32Z</time>
      </trkpt>
      <trkpt lat="44.01213" lon="4.6446">
        <ele>218</ele>
        <time>2009-03-22T09:29:34Z</time>
      </trkpt>
      <trkpt lat="44.01219" lon="4.64447">
        <ele>218</ele>
        <time>2009-03-22T09:29:38Z</time>
      </trkpt>
      <trkpt lat="44.01218" lon="4.644">
        <ele>218.034653</ele>
        <time>2009-03-22T09:29:47Z</time>
      </trkpt>
      <trkpt lat="44.01219" lon="4.64374">
        <ele>218.853073</ele>
        <time>2009-03-22T09:29:52Z</time>
      </trkpt>
      <trkpt lat="44.0122" lon="4.64298">
        <ele>221.297684</ele>
        <time>2009-03-22T09:30:11Z</time>
      </trkpt>
      <trkpt lat="44.01224" lon="4.6428">
        <ele>221.782562</ele>
        <time>2009-03-22T09:30:18Z</time>
      </trkpt>
      <trkpt lat="44.01236" lon="4.64277">
        <ele>221.632889</ele>
        <time>2009-03-22T09:30:23Z</time>
      </trkpt>
      <trkpt lat="44.01243" lon="4.64278">
        <ele>221.450623</ele>
        <time>2009-03-22T09:30:25Z</time>
      </trkpt>
      <trkpt lat="44.01251" lon="4.64267">
        <ele>221.426743</ele>
        <time>2009-03-22T09:30:29Z</time>
      </trkpt>
      <trkpt lat="44.01255" lon="4.6424">
        <ele>221.692261</ele>
        <time>2009-03-22T09:30:35Z</time>
      </trkpt>
      <trkpt lat="44.01257" lon="4.64236">
        <ele>221.733856</ele>
        <time>2009-03-22T09:30:36Z</time>
      </trkpt>
      <trkpt lat="44.01275" lon="4.64222">
        <ele>221.54512</ele>
        <time>2009-03-22T09:30:41Z</time>
      </trkpt>
      <trkpt lat="44.01286" lon="4.64216">
        <ele>221.075974</ele>
        <time>2009-03-22T09:30:44Z</time>
      </trkpt>
      <trkpt lat="44.01317" lon="4.64211">
        <ele>219.775131</ele>
        <time>2009-03-22T09:30:51Z</time>
      </trkpt>
      <trkpt lat="44.01338" lon="4.64203">
        <ele>219.304169</ele>
        <time>2009-03-22T09:30:56Z</time>
      </trkpt>
      <trkpt lat="44.01346" lon="4.64186">
        <ele>219.106735</ele>
        <time>2009-03-22T09:31:00Z</time>
      </trkpt>
      <trkpt lat="44.01345" lon="4.64162">
        <ele>219.021881</ele>
        <time>2009-03-22T09:31:04Z</time>
      </trkpt>
      <trkpt lat="44.01339" lon="4.64134">
        <ele>218.641357</ele>
        <time>2009-03-22T09:31:09Z</time>
      </trkpt>
      <trkpt lat="44.01335" lon="4.64119">
        <ele>218.397263</ele>
        <time>2009-03-22T09:31:12Z</time>
      </trkpt>
      <trkpt lat="44.01304" lon="4.6407">
        <ele>218.141953</ele>
        <time>2009-03-22T09:31:24Z</time>
      </trkpt>
      <trkpt lat="44.01274" lon="4.64006">
        <ele>218.376831</ele>
        <time>2009-03-22T09:31:39Z</time>
      </trkpt>
      <trkpt lat="44.01262" lon="4.63982">
        <ele>218.755234</ele>
        <time>2009-03-22T09:31:45Z</time>
      </trkpt>
      <trkpt lat="44.01238" lon="4.63946">
        <ele>220.17421</ele>
        <time>2009-03-22T09:31:56Z</time>
      </trkpt>
      <trkpt lat="44.01227" lon="4.63923">
        <ele>221.745026</ele>
        <time>2009-03-22T09:32:03Z</time>
      </trkpt>
      <trkpt lat="44.01221" lon="4.63901">
        <ele>223.348312</ele>
        <time>2009-03-22T09:32:09Z</time>
      </trkpt>
      <trkpt lat="44.01211" lon="4.63887">
        <ele>224.479385</ele>
        <time>2009-03-22T09:32:14Z</time>
      </trkpt>
      <trkpt lat="44.01191" lon="4.63856">
        <ele>226.869705</ele>
        <time>2009-03-22T09:32:26Z</time>
      </trkpt>
      <trkpt lat="44.01183" lon="4.6384">
        <ele>228.023224</ele>
        <time>2009-03-22T09:32:32Z</time>
      </trkpt>
      <trkpt lat="44.01161" lon="4.63807">
        <ele>230.319305</ele>
        <time>2009-03-22T09:32:46Z</time>
      </trkpt>
      <trkpt lat="44.01139" lon="4.63764">
        <ele>232.512451</ele>
        <time>2009-03-22T09:33:02Z</time>
      </trkpt>
      <trkpt lat="44.0113" lon="4.63749">
        <ele>233.619019</ele>
        <time>2009-03-22T09:33:08Z</time>
      </trkpt>
      <trkpt lat="44.0112" lon="4.63728">
        <ele>234.686615</ele>
        <time>2009-03-22T09:33:16Z</time>
      </trkpt>
      <trkpt lat="44.01118" lon="4.63722">
        <ele>234.865082</ele>
        <time>2009-03-22T09:33:18Z</time>
      </trkpt>
      <trkpt lat="44.01109" lon="4.63714">
        <ele>235.428497</ele>
        <time>2009-03-22T09:33:24Z</time>
      </trkpt>
      <trkpt lat="44.01099" lon="4.63717">
        <ele>235.909973</ele>
        <time>2009-03-22T09:33:29Z</time>
      </trkpt>
      <trkpt lat="44.01088" lon="4.63733">
        <ele>236.802612</ele>
        <time>2009-03-22T09:33:36Z</time>
      </trkpt>
      <trkpt lat="44.01076" lon="4.63734">
        <ele>237.987183</ele>
        <time>2009-03-22T09:33:41Z</time>
      </trkpt>
      <trkpt lat="44.01053" lon="4.63722">
        <ele>240.13298</ele>
        <time>2009-03-22T09:33:53Z</time>
      </trkpt>
      <trkpt lat="44.0103" lon="4.6372">
        <ele>242.817886</ele>
        <time>2009-03-22T09:34:06Z</time>
      </trkpt>
      <trkpt lat="44.01015" lon="4.63717">
        <ele>244.722977</ele>
        <time>2009-03-22T09:34:17Z</time>
      </trkpt>
      <trkpt lat="44.01005" lon="4.63722">
        <ele>245.59343</ele>
        <time>2009-03-22T09:34:25Z</time>
      </trkpt>
      <trkpt lat="44.00998" lon="4.63733">
        <ele>245.644058</ele>
        <time>2009-03-22T09:34:31Z</time>
      </trkpt>
      <trkpt lat="44.00973" lon="4.63722">
        <ele>247.86235</ele>
        <time>2009-03-22T09:34:48Z</time>
      </trkpt>
      <trkpt lat="44.00961" lon="4.63719">
        <ele>248.910019</ele>
        <time>2009-03-22T09:34:55Z</time>
      </trkpt>
      <trkpt lat="44.00948" lon="4.63721">
        <ele>248.66803</ele>
        <time>2009-03-22T09:35:02Z</time>
      </trkpt>
      <trkpt lat="44.00936" lon="4.63721">
        <ele>248.602188</ele>
        <time>2009-03-22T09:35:08Z</time>
      </trkpt>
      <trkpt lat="44.0092" lon="4.63718">
        <ele>248.824188</ele>
        <time>2009-03-22T09:35:14Z</time>
      </trkpt>
      <trkpt lat="44.00904" lon="4.63718">
        <ele>248.834305</ele>
        <time>2009-03-22T09:35:19Z</time>
      </trkpt>
      <trkpt lat="44.00888" lon="4.63716">
        <ele>249.006348</ele>
        <time>2009-03-22T09:35:25Z</time>
      </trkpt>
      <trkpt lat="44.00875" lon="4.63724">
        <ele>248.524567</ele>
        <time>2009-03-22T09:38:38Z</time>
      </trkpt>
      <trkpt lat="44.00851" lon="4.63751">
        <ele>247.141617</ele>
        <time>2009-03-22T09:38:51Z</time>
      </trkpt>
      <trkpt lat="44.00823" lon="4.6377">
        <ele>246.311966</ele>
        <time>2009-03-22T09:38:57Z</time>
      </trkpt>
      <trkpt lat="44.00809" lon="4.63793">
        <ele>244.840271</ele>
        <time>2009-03-22T09:39:01Z</time>
      </trkpt>
      <trkpt lat="44.00809" lon="4.63818">
        <ele>243.074692</ele>
        <time>2009-03-22T09:39:05Z</time>
      </trkpt>
      <trkpt lat="44.00794" lon="4.6384">
        <ele>242.696854</ele>
        <time>2009-03-22T09:39:10Z</time>
      </trkpt>
      <trkpt lat="44.00786" lon="4.63842">
        <ele>243.053207</ele>
        <time>2009-03-22T09:39:12Z</time>
      </trkpt>
      <trkpt lat="44.00766" lon="4.63841">
        <ele>243.765137</ele>
        <time>2009-03-22T09:39:17Z</time>
      </trkpt>
      <trkpt lat="44.0075" lon="4.63838">
        <ele>244.283264</ele>
        <time>2009-03-22T09:39:22Z</time>
      </trkpt>
      <trkpt lat="44.00727" lon="4.63847">
        <ele>244.718445</ele>
        <time>2009-03-22T09:39:29Z</time>
      </trkpt>
      <trkpt lat="44.00716" lon="4.63872">
        <ele>244.538223</ele>
        <time>2009-03-22T09:39:36Z</time>
      </trkpt>
      <trkpt lat="44.00705" lon="4.63882">
        <ele>244.62175</ele>
        <time>2009-03-22T09:39:40Z</time>
      </trkpt>
      <trkpt lat="44.00681" lon="4.63888">
        <ele>244.719162</ele>
        <time>2009-03-22T09:39:47Z</time>
      </trkpt>
      <trkpt lat="44.00672" lon="4.63923">
        <ele>243.965729</ele>
        <time>2009-03-22T09:39:55Z</time>
      </trkpt>
      <trkpt lat="44.00657" lon="4.63922">
        <ele>243.639511</ele>
        <time>2009-03-22T09:40:00Z</time>
      </trkpt>
      <trkpt lat="44.00624" lon="4.63914">
        <ele>242.823502</ele>
        <time>2009-03-22T09:40:16Z</time>
      </trkpt>
      <trkpt lat="44.00616" lon="4.63912">
        <ele>242.598358</ele>
        <time>2009-03-22T09:40:34Z</time>
      </trkpt>
      <trkpt lat="44.00582" lon="4.63915">
        <ele>241.415237</ele>
        <time>2009-03-22T09:40:54Z</time>
      </trkpt>
      <trkpt lat="44.00558" lon="4.63911">
        <ele>240.624466</ele>
        <time>2009-03-22T09:41:01Z</time>
      </trkpt>
      <trkpt lat="44.00528" lon="4.63909">
        <ele>240.14061</ele>
        <time>2009-03-22T09:41:10Z</time>
      </trkpt>
      <trkpt lat="44.00466" lon="4.6392">
        <ele>238.51326</ele>
        <time>2009-03-22T09:41:27Z</time>
      </trkpt>
      <trkpt lat="44.0044" lon="4.63928">
        <ele>238.123459</ele>
        <time>2009-03-22T09:41:34Z</time>
      </trkpt>
      <trkpt lat="44.00424" lon="4.63939">
        <ele>237.813736</ele>
        <time>2009-03-22T09:41:39Z</time>
      </trkpt>
      <trkpt lat="44.00391" lon="4.63963">
        <ele>236.389786</ele>
        <time>2009-03-22T09:41:48Z</time>
      </trkpt>
      <trkpt lat="44.00371" lon="4.63974">
        <ele>235.581711</ele>
        <time>2009-03-22T09:41:53Z</time>
      </trkpt>
      <trkpt lat="44.00363" lon="4.63976">
        <ele>235.503311</ele>
        <time>2009-03-22T09:41:55Z</time>
      </trkpt>
      <trkpt lat="44.0034" lon="4.63973">
        <ele>235.575089</ele>
        <time>2009-03-22T09:42:00Z</time>
      </trkpt>
      <trkpt lat="44.00259" lon="4.63939">
        <ele>236.67868</ele>
        <time>2009-03-22T09:42:18Z</time>
      </trkpt>
      <trkpt lat="44.00227" lon="4.63928">
        <ele>237.172455</ele>
        <time>2009-03-22T09:42:26Z</time>
      </trkpt>
      <trkpt lat="44.00167" lon="4.63904">
        <ele>239.457123</ele>
        <time>2009-03-22T09:42:45Z</time>
      </trkpt>
      <trkpt lat="44.0012" lon="4.63883">
        <ele>241.223801</ele>
        <time>2009-03-22T09:43:01Z</time>
      </trkpt>
      <trkpt lat="44.00103" lon="4.63877">
        <ele>241.677856</ele>
        <time>2009-03-22T09:43:07Z</time>
      </trkpt>
      <trkpt lat="44.00064" lon="4.63871">
        <ele>241.746552</ele>
        <time>2009-03-22T09:43:19Z</time>
      </trkpt>
      <trkpt lat="44.00024" lon="4.63868">
        <ele>240.985306</ele>
        <time>2009-03-22T09:43:30Z</time>
      </trkpt>
      <trkpt lat="44.00006" lon="4.63869">
        <ele>240.749298</ele>
        <time>2009-03-22T09:43:35Z</time>
      </trkpt>
      <trkpt lat="43.9998" lon="4.63864">
        <ele>240.811172</ele>
        <time>2009-03-22T09:43:45Z</time>
      </trkpt>
      <trkpt lat="43.99962" lon="4.63868">
        <ele>240.735687</ele>
        <time>2009-03-22T09:43:51Z</time>
      </trkpt>
      <trkpt lat="43.99916" lon="4.63884">
        <ele>240.443954</ele>
        <time>2009-03-22T09:44:04Z</time>
      </trkpt>
      <trkpt lat="43.99894" lon="4.6389">
        <ele>240.328003</ele>
        <time>2009-03-22T09:44:10Z</time>
      </trkpt>
      <trkpt lat="43.99862" lon="4.63891">
        <ele>240.296219</ele>
        <time>2009-03-22T09:44:18Z</time>
      </trkpt>
      <trkpt lat="43.99788" lon="4.63896">
        <ele>240.335327</ele>
        <time>2009-03-22T09:44:35Z</time>
      </trkpt>
      <trkpt lat="43.99757" lon="4.63905">
        <ele>240.009171</ele>
        <time>2009-03-22T09:44:43Z</time>
      </trkpt>
      <trkpt lat="43.9975" lon="4.6391">
        <ele>239.988983</ele>
        <time>2009-03-22T09:44:45Z</time>
      </trkpt>
      <trkpt lat="43.99734" lon="4.63923">
        <ele>240.060364</ele>
        <time>2009-03-22T09:44:50Z</time>
      </trkpt>
      <trkpt lat="43.99711" lon="4.63904">
        <ele>240.004364</ele>
        <time>2009-03-22T09:45:04Z</time>
      </trkpt>
      <trkpt lat="43.99697" lon="4.63899">
        <ele>239.809662</ele>
        <time>2009-03-22T09:45:09Z</time>
      </trkpt>
      <trkpt lat="43.99687" lon="4.63891">
        <ele>238.930588</ele>
        <time>2009-03-22T09:45:14Z</time>
      </trkpt>
      <trkpt lat="43.99679" lon="4.63883">
        <ele>238.059692</ele>
        <time>2009-03-22T09:45:18Z</time>
      </trkpt>
      <trkpt lat="43.99668" lon="4.63882">
        <ele>237.359604</ele>
        <time>2009-03-22T09:45:22Z</time>
      </trkpt>
      <trkpt lat="43.99665" lon="4.63878">
        <ele>236.890976</ele>
        <time>2009-03-22T09:45:24Z</time>
      </trkpt>
      <trkpt lat="43.99653" lon="4.63856">
        <ele>234.247681</ele>
        <time>2009-03-22T09:45:30Z</time>
      </trkpt>
      <trkpt lat="43.99643" lon="4.63844">
        <ele>232.439148</ele>
        <time>2009-03-22T09:45:34Z</time>
      </trkpt>
      <trkpt lat="43.99635" lon="4.6384">
        <ele>231.405853</ele>
        <time>2009-03-22T09:45:38Z</time>
      </trkpt>
      <trkpt lat="43.99631" lon="4.63847">
        <ele>231.939972</ele>
        <time>2009-03-22T09:46:13Z</time>
      </trkpt>
      <trkpt lat="43.99629" lon="4.6385">
        <ele>232.076462</ele>
        <time>2009-03-22T09:46:22Z</time>
      </trkpt>
      <trkpt lat="43.99614" lon="4.63832">
        <ele>229.528687</ele>
        <time>2009-03-22T09:47:14Z</time>
      </trkpt>
      <trkpt lat="43.99591" lon="4.63818">
        <ele>230.1922</ele>
        <time>2009-03-22T09:47:19Z</time>
      </trkpt>
      <trkpt lat="43.99581" lon="4.63817">
        <ele>230.383987</ele>
        <time>2009-03-22T09:47:21Z</time>
      </trkpt>
      <trkpt lat="43.99561" lon="4.63818">
        <ele>230.37175</ele>
        <time>2009-03-22T09:47:25Z</time>
      </trkpt>
      <trkpt lat="43.99538" lon="4.63823">
        <ele>229.351563</ele>
        <time>2009-03-22T09:47:30Z</time>
      </trkpt>
      <trkpt lat="43.99515" lon="4.63829">
        <ele>228.107239</ele>
        <time>2009-03-22T09:47:36Z</time>
      </trkpt>
      <trkpt lat="43.99487" lon="4.63835">
        <ele>227.465439</ele>
        <time>2009-03-22T09:47:43Z</time>
      </trkpt>
      <trkpt lat="43.9947" lon="4.63825">
        <ele>226.60881</ele>
        <time>2009-03-22T09:47:48Z</time>
      </trkpt>
      <trkpt lat="43.99464" lon="4.63813">
        <ele>226.150909</ele>
        <time>2009-03-22T09:47:52Z</time>
      </trkpt>
      <trkpt lat="43.99448" lon="4.63804">
        <ele>224.681763</ele>
        <time>2009-03-22T09:47:59Z</time>
      </trkpt>
      <trkpt lat="43.99438" lon="4.63809">
        <ele>223.710815</ele>
        <time>2009-03-22T09:48:03Z</time>
      </trkpt>
      <trkpt lat="43.99433" lon="4.63879">
        <ele>226.409241</ele>
        <time>2009-03-22T09:48:31Z</time>
      </trkpt>
      <trkpt lat="43.99432" lon="4.63904">
        <ele>228.004364</ele>
        <time>2009-03-22T09:48:40Z</time>
      </trkpt>
      <trkpt lat="43.99427" lon="4.63948">
        <ele>230.554092</ele>
        <time>2009-03-22T09:48:51Z</time>
      </trkpt>
      <trkpt lat="43.99426" lon="4.63974">
        <ele>232.798004</ele>
        <time>2009-03-22T09:48:57Z</time>
      </trkpt>
      <trkpt lat="43.99422" lon="4.6403">
        <ele>237.293808</ele>
        <time>2009-03-22T09:49:16Z</time>
      </trkpt>
      <trkpt lat="43.99417" lon="4.64068">
        <ele>238.943527</ele>
        <time>2009-03-22T09:49:32Z</time>
      </trkpt>
      <trkpt lat="43.99413" lon="4.64141">
        <ele>240.508194</ele>
        <time>2009-03-22T09:49:56Z</time>
      </trkpt>
      <trkpt lat="43.99407" lon="4.64188">
        <ele>240.291992</ele>
        <time>2009-03-22T09:50:07Z</time>
      </trkpt>
      <trkpt lat="43.99403" lon="4.64268">
        <ele>239.704315</ele>
        <time>2009-03-22T09:50:22Z</time>
      </trkpt>
      <trkpt lat="43.99395" lon="4.64354">
        <ele>238.793167</ele>
        <time>2009-03-22T09:50:36Z</time>
      </trkpt>
      <trkpt lat="43.99395" lon="4.64371">
        <ele>239.09938</ele>
        <time>2009-03-22T09:50:38Z</time>
      </trkpt>
      <trkpt lat="43.9939" lon="4.64387">
        <ele>239.084183</ele>
        <time>2009-03-22T09:50:42Z</time>
      </trkpt>
      <trkpt lat="43.99376" lon="4.64396">
        <ele>238.558197</ele>
        <time>2009-03-22T09:50:48Z</time>
      </trkpt>
      <trkpt lat="43.99347" lon="4.64396">
        <ele>237.189194</ele>
        <time>2009-03-22T09:50:56Z</time>
      </trkpt>
      <trkpt lat="43.99332" lon="4.64402">
        <ele>236.647324</ele>
        <time>2009-03-22T09:51:02Z</time>
      </trkpt>
      <trkpt lat="43.99316" lon="4.64411">
        <ele>235.627579</ele>
        <time>2009-03-22T09:51:08Z</time>
      </trkpt>
      <trkpt lat="43.99298" lon="4.64427">
        <ele>234.270203</ele>
        <time>2009-03-22T09:51:15Z</time>
      </trkpt>
      <trkpt lat="43.99283" lon="4.64443">
        <ele>232.960266</ele>
        <time>2009-03-22T09:51:20Z</time>
      </trkpt>
      <trkpt lat="43.99264" lon="4.64468">
        <ele>231.529083</ele>
        <time>2009-03-22T09:51:25Z</time>
      </trkpt>
      <trkpt lat="43.99244" lon="4.64508">
        <ele>230.508331</ele>
        <time>2009-03-22T09:51:35Z</time>
      </trkpt>
      <trkpt lat="43.99239" lon="4.64513">
        <ele>229.943878</ele>
        <time>2009-03-22T09:51:39Z</time>
      </trkpt>
      <trkpt lat="43.99228" lon="4.64509">
        <ele>229.316391</ele>
        <time>2009-03-22T09:51:45Z</time>
      </trkpt>
      <trkpt lat="43.99217" lon="4.645">
        <ele>228.6138</ele>
        <time>2009-03-22T09:51:50Z</time>
      </trkpt>
      <trkpt lat="43.99197" lon="4.64507">
        <ele>227.342651</ele>
        <time>2009-03-22T09:51:58Z</time>
      </trkpt>
      <trkpt lat="43.99191" lon="4.64513">
        <ele>226.872314</ele>
        <time>2009-03-22T09:52:02Z</time>
      </trkpt>
      <trkpt lat="43.9919" lon="4.6452">
        <ele>226.741394</ele>
        <time>2009-03-22T09:52:11Z</time>
      </trkpt>
      <trkpt lat="43.99191" lon="4.64521">
        <ele>226.756149</ele>
        <time>2009-03-22T09:52:21Z</time>
      </trkpt>
      <trkpt lat="43.99192" lon="4.64517">
        <ele>226.884628</ele>
        <time>2009-03-22T09:52:26Z</time>
      </trkpt>
      <trkpt lat="43.99194" lon="4.64519">
        <ele>226.96138</ele>
        <time>2009-03-22T09:52:31Z</time>
      </trkpt>
      <trkpt lat="43.99195" lon="4.64522">
        <ele>226.960678</ele>
        <time>2009-03-22T09:52:34Z</time>
      </trkpt>
      <trkpt lat="43.99194" lon="4.64525">
        <ele>226.867722</ele>
        <time>2009-03-22T09:52:39Z</time>
      </trkpt>
      <trkpt lat="43.99194" lon="4.64525">
        <ele>226.825684</ele>
        <time>2009-03-22T09:52:40Z</time>
      </trkpt>
      <trkpt lat="43.99193" lon="4.64527">
        <ele>226.759857</ele>
        <time>2009-03-22T09:52:44Z</time>
      </trkpt>
      <trkpt lat="43.99193" lon="4.64526">
        <ele>226.777832</ele>
        <time>2009-03-22T09:52:47Z</time>
      </trkpt>
      <trkpt lat="43.99192" lon="4.64526">
        <ele>226.710175</ele>
        <time>2009-03-22T09:52:51Z</time>
      </trkpt>
      <trkpt lat="43.99192" lon="4.64527">
        <ele>226.741852</ele>
        <time>2009-03-22T09:52:52Z</time>
      </trkpt>
      <trkpt lat="43.99192" lon="4.64527">
        <ele>226.688538</ele>
        <time>2009-03-22T09:52:57Z</time>
      </trkpt>
      <trkpt lat="43.99192" lon="4.64526">
        <ele>226.72641</ele>
        <time>2009-03-22T09:53:04Z</time>
      </trkpt>
      <trkpt lat="43.99192" lon="4.64527">
        <ele>226.697556</ele>
        <time>2009-03-22T09:53:05Z</time>
      </trkpt>
      <trkpt lat="43.99193" lon="4.64528">
        <ele>226.767944</ele>
        <time>2009-03-22T09:53:12Z</time>
      </trkpt>
      <trkpt lat="43.99192" lon="4.64523">
        <ele>226.770416</ele>
        <time>2009-03-22T09:53:16Z</time>
      </trkpt>
      <trkpt lat="43.99194" lon="4.64522">
        <ele>226.922791</ele>
        <time>2009-03-22T09:53:27Z</time>
      </trkpt>
      <trkpt lat="43.99191" lon="4.64521">
        <ele>226.768539</ele>
        <time>2009-03-22T09:53:42Z</time>
      </trkpt>
      <trkpt lat="43.99192" lon="4.6452">
        <ele>226.832794</ele>
        <time>2009-03-22T09:53:44Z</time>
      </trkpt>
      <trkpt lat="43.99191" lon="4.6452">
        <ele>226.760803</ele>
        <time>2009-03-22T09:53:48Z</time>
      </trkpt>
      <trkpt lat="43.99192" lon="4.64528">
        <ele>226.683243</ele>
        <time>2009-03-22T09:53:57Z</time>
      </trkpt>
      <trkpt lat="43.99193" lon="4.64531">
        <ele>226.709183</ele>
        <time>2009-03-22T09:54:00Z</time>
      </trkpt>
      <trkpt lat="43.99192" lon="4.64529">
        <ele>226.700882</ele>
        <time>2009-03-22T09:54:05Z</time>
      </trkpt>
      <trkpt lat="43.99193" lon="4.64525">
        <ele>226.806549</ele>
        <time>2009-03-22T09:54:15Z</time>
      </trkpt>
      <trkpt lat="43.99191" lon="4.64524">
        <ele>226.700729</ele>
        <time>2009-03-22T09:54:21Z</time>
      </trkpt>
      <trkpt lat="43.99191" lon="4.64526">
        <ele>226.662582</ele>
        <time>2009-03-22T09:54:25Z</time>
      </trkpt>
      <trkpt lat="43.99191" lon="4.64524">
        <ele>226.705246</ele>
        <time>2009-03-22T09:54:29Z</time>
      </trkpt>
      <trkpt lat="43.99189" lon="4.64523">
        <ele>226.655289</ele>
        <time>2009-03-22T09:54:30Z</time>
      </trkpt>
      <trkpt lat="43.99191" lon="4.64527">
        <ele>226.6707</ele>
        <time>2009-03-22T09:54:49Z</time>
      </trkpt>
      <trkpt lat="43.99189" lon="4.64523">
        <ele>226.641846</ele>
        <time>2009-03-22T09:54:55Z</time>
      </trkpt>
      <trkpt lat="43.99191" lon="4.64524">
        <ele>226.697342</ele>
        <time>2009-03-22T09:55:04Z</time>
      </trkpt>
      <trkpt lat="43.9919" lon="4.64522">
        <ele>226.694443</ele>
        <time>2009-03-22T09:55:12Z</time>
      </trkpt>
      <trkpt lat="43.99191" lon="4.64525">
        <ele>226.686401</ele>
        <time>2009-03-22T09:55:19Z</time>
      </trkpt>
      <trkpt lat="43.99191" lon="4.64524">
        <ele>226.705582</ele>
        <time>2009-03-22T09:55:24Z</time>
      </trkpt>
      <trkpt lat="43.99196" lon="4.64529">
        <ele>226.889847</ele>
        <time>2009-03-22T09:55:38Z</time>
      </trkpt>
      <trkpt lat="43.99193" lon="4.64528">
        <ele>226.759445</ele>
        <time>2009-03-22T09:55:45Z</time>
      </trkpt>
      <trkpt lat="43.99195" lon="4.64528">
        <ele>226.837967</ele>
        <time>2009-03-22T09:55:49Z</time>
      </trkpt>
      <trkpt lat="43.99195" lon="4.64533">
        <ele>226.752945</ele>
        <time>2009-03-22T09:55:55Z</time>
      </trkpt>
      <trkpt lat="43.99193" lon="4.64531">
        <ele>226.7164</ele>
        <time>2009-03-22T09:55:59Z</time>
      </trkpt>
      <trkpt lat="43.99196" lon="4.64526">
        <ele>226.949951</ele>
        <time>2009-03-22T09:56:04Z</time>
      </trkpt>
      <trkpt lat="43.99195" lon="4.64527">
        <ele>226.864395</ele>
        <time>2009-03-22T09:56:09Z</time>
      </trkpt>
      <trkpt lat="43.99194" lon="4.64531">
        <ele>226.767502</ele>
        <time>2009-03-22T09:56:12Z</time>
      </trkpt>
      <trkpt lat="43.99192" lon="4.64529">
        <ele>226.695374</ele>
        <time>2009-03-22T09:56:18Z</time>
      </trkpt>
      <trkpt lat="43.99193" lon="4.64529">
        <ele>226.738373</ele>
        <time>2009-03-22T09:56:20Z</time>
      </trkpt>
      <trkpt lat="43.99191" lon="4.64528">
        <ele>226.64624</ele>
        <time>2009-03-22T09:56:25Z</time>
      </trkpt>
      <trkpt lat="43.99194" lon="4.64533">
        <ele>226.694794</ele>
        <time>2009-03-22T09:56:50Z</time>
      </trkpt>
      <trkpt lat="43.99192" lon="4.64534">
        <ele>226.603516</ele>
        <time>2009-03-22T09:56:57Z</time>
      </trkpt>
      <trkpt lat="43.99191" lon="4.64538">
        <ele>226.50528</ele>
        <time>2009-03-22T09:57:03Z</time>
      </trkpt>
      <trkpt lat="43.99192" lon="4.6454">
        <ele>226.521912</ele>
        <time>2009-03-22T09:57:09Z</time>
      </trkpt>
      <trkpt lat="43.99194" lon="4.64536">
        <ele>226.668976</ele>
        <time>2009-03-22T09:57:14Z</time>
      </trkpt>
      <trkpt lat="43.99191" lon="4.64539">
        <ele>226.458862</ele>
        <time>2009-03-22T09:57:23Z</time>
      </trkpt>
      <trkpt lat="43.9919" lon="4.64538">
        <ele>226.446548</ele>
        <time>2009-03-22T09:57:27Z</time>
      </trkpt>
      <trkpt lat="43.99191" lon="4.64537">
        <ele>226.522491</ele>
        <time>2009-03-22T09:57:43Z</time>
      </trkpt>
      <trkpt lat="43.99192" lon="4.64533">
        <ele>226.602722</ele>
        <time>2009-03-22T09:57:49Z</time>
      </trkpt>
      <trkpt lat="43.99191" lon="4.64536">
        <ele>226.526581</ele>
        <time>2009-03-22T09:57:55Z</time>
      </trkpt>
      <trkpt lat="43.99194" lon="4.64532">
        <ele>226.716675</ele>
        <time>2009-03-22T09:58:07Z</time>
      </trkpt>
      <trkpt lat="43.99194" lon="4.64533">
        <ele>226.722183</ele>
        <time>2009-03-22T09:58:08Z</time>
      </trkpt>
      <trkpt lat="43.99193" lon="4.64536">
        <ele>226.599991</ele>
        <time>2009-03-22T09:58:24Z</time>
      </trkpt>
      <trkpt lat="43.99194" lon="4.64534">
        <ele>226.692383</ele>
        <time>2009-03-22T09:58:25Z</time>
      </trkpt>
      <trkpt lat="43.99194" lon="4.64534">
        <ele>226.680908</ele>
        <time>2009-03-22T09:58:33Z</time>
      </trkpt>
      <trkpt lat="43.99195" lon="4.64537">
        <ele>226.713959</ele>
        <time>2009-03-22T09:58:37Z</time>
      </trkpt>
      <trkpt lat="43.99194" lon="4.64537">
        <ele>226.626465</ele>
        <time>2009-03-22T09:58:39Z</time>
      </trkpt>
      <trkpt lat="43.99194" lon="4.64538">
        <ele>226.631485</ele>
        <time>2009-03-22T09:58:42Z</time>
      </trkpt>
      <trkpt lat="43.99192" lon="4.6454">
        <ele>226.509232</ele>
        <time>2009-03-22T09:58:44Z</time>
      </trkpt>
      <trkpt lat="43.99192" lon="4.64542">
        <ele>226.484161</ele>
        <time>2009-03-22T09:58:48Z</time>
      </trkpt>
      <trkpt lat="43.99187" lon="4.64541">
        <ele>226.323639</ele>
        <time>2009-03-22T09:58:54Z</time>
      </trkpt>
      <trkpt lat="43.99189" lon="4.64539">
        <ele>226.395966</ele>
        <time>2009-03-22T09:59:03Z</time>
      </trkpt>
      <trkpt lat="43.99187" lon="4.64533">
        <ele>226.419327</ele>
        <time>2009-03-22T09:59:10Z</time>
      </trkpt>
      <trkpt lat="43.99191" lon="4.64534">
        <ele>226.548019</ele>
        <time>2009-03-22T09:59:31Z</time>
      </trkpt>
      <trkpt lat="43.99194" lon="4.64534">
        <ele>226.707764</ele>
        <time>2009-03-22T09:59:36Z</time>
      </trkpt>
      <trkpt lat="43.99195" lon="4.64532">
        <ele>226.794662</ele>
        <time>2009-03-22T09:59:43Z</time>
      </trkpt>
      <trkpt lat="43.99194" lon="4.64529">
        <ele>226.783234</ele>
        <time>2009-03-22T09:59:48Z</time>
      </trkpt>
      <trkpt lat="43.99195" lon="4.64527">
        <ele>226.868683</ele>
        <time>2009-03-22T09:59:53Z</time>
      </trkpt>
      <trkpt lat="43.99192" lon="4.64519">
        <ele>226.823608</ele>
        <time>2009-03-22T10:00:02Z</time>
      </trkpt>
      <trkpt lat="43.99191" lon="4.64528">
        <ele>226.625366</ele>
        <time>2009-03-22T10:01:29Z</time>
      </trkpt>
      <trkpt lat="43.99187" lon="4.64537">
        <ele>226.38121</ele>
        <time>2009-03-22T10:01:36Z</time>
      </trkpt>
      <trkpt lat="43.9918" lon="4.6455">
        <ele>225.98735</ele>
        <time>2009-03-22T10:01:41Z</time>
      </trkpt>
      <trkpt lat="43.99165" lon="4.6456">
        <ele>225.474594</ele>
        <time>2009-03-22T10:01:46Z</time>
      </trkpt>
      <trkpt lat="43.99147" lon="4.64566">
        <ele>225.061829</ele>
        <time>2009-03-22T10:01:51Z</time>
      </trkpt>
      <trkpt lat="43.99129" lon="4.64554">
        <ele>224.281998</ele>
        <time>2009-03-22T10:01:55Z</time>
      </trkpt>
      <trkpt lat="43.99107" lon="4.64551">
        <ele>223.296051</ele>
        <time>2009-03-22T10:02:00Z</time>
      </trkpt>
      <trkpt lat="43.99087" lon="4.64554">
        <ele>222.619522</ele>
        <time>2009-03-22T10:02:06Z</time>
      </trkpt>
      <trkpt lat="43.99076" lon="4.64546">
        <ele>222.161301</ele>
        <time>2009-03-22T10:02:10Z</time>
      </trkpt>
      <trkpt lat="43.99064" lon="4.64535">
        <ele>221.470535</ele>
        <time>2009-03-22T10:02:14Z</time>
      </trkpt>
      <trkpt lat="43.99036" lon="4.64524">
        <ele>219.174591</ele>
        <time>2009-03-22T10:02:24Z</time>
      </trkpt>
      <trkpt lat="43.99021" lon="4.64516">
        <ele>217.675095</ele>
        <time>2009-03-22T10:02:30Z</time>
      </trkpt>
      <trkpt lat="43.99015" lon="4.64505">
        <ele>216.671631</ele>
        <time>2009-03-22T10:02:35Z</time>
      </trkpt>
      <trkpt lat="43.99009" lon="4.64491">
        <ele>215.584564</ele>
        <time>2009-03-22T10:02:41Z</time>
      </trkpt>
      <trkpt lat="43.99" lon="4.64479">
        <ele>214.517242</ele>
        <time>2009-03-22T10:02:45Z</time>
      </trkpt>
      <trkpt lat="43.98992" lon="4.64466">
        <ele>213.428558</ele>
        <time>2009-03-22T10:02:50Z</time>
      </trkpt>
      <trkpt lat="43.98987" lon="4.64452">
        <ele>212.478943</ele>
        <time>2009-03-22T10:02:55Z</time>
      </trkpt>
      <trkpt lat="43.98978" lon="4.64441">
        <ele>211.222748</ele>
        <time>2009-03-22T10:03:00Z</time>
      </trkpt>
      <trkpt lat="43.98972" lon="4.64437">
        <ele>210.48967</ele>
        <time>2009-03-22T10:03:03Z</time>
      </trkpt>
      <trkpt lat="43.98962" lon="4.64447">
        <ele>210.739853</ele>
        <time>2009-03-22T10:03:08Z</time>
      </trkpt>
      <trkpt lat="43.98945" lon="4.64469">
        <ele>211.003571</ele>
        <time>2009-03-22T10:03:15Z</time>
      </trkpt>
      <trkpt lat="43.98934" lon="4.64472">
        <ele>210.578568</ele>
        <time>2009-03-22T10:03:19Z</time>
      </trkpt>
      <trkpt lat="43.98911" lon="4.64486">
        <ele>208.746643</ele>
        <time>2009-03-22T10:03:28Z</time>
      </trkpt>
      <trkpt lat="43.98897" lon="4.64491">
        <ele>207.55275</ele>
        <time>2009-03-22T10:03:33Z</time>
      </trkpt>
      <trkpt lat="43.9888" lon="4.64493">
        <ele>206.227554</ele>
        <time>2009-03-22T10:03:39Z</time>
      </trkpt>
      <trkpt lat="43.98855" lon="4.64484">
        <ele>206.217224</ele>
        <time>2009-03-22T10:03:47Z</time>
      </trkpt>
      <trkpt lat="43.98836" lon="4.64489">
        <ele>205.241943</ele>
        <time>2009-03-22T10:03:53Z</time>
      </trkpt>
      <trkpt lat="43.98822" lon="4.64488">
        <ele>205.909119</ele>
        <time>2009-03-22T10:03:58Z</time>
      </trkpt>
      <trkpt lat="43.988" lon="4.64498">
        <ele>206.719803</ele>
        <time>2009-03-22T10:04:05Z</time>
      </trkpt>
      <trkpt lat="43.98785" lon="4.64509">
        <ele>206.550903</ele>
        <time>2009-03-22T10:04:10Z</time>
      </trkpt>
      <trkpt lat="43.98773" lon="4.64529">
        <ele>206.4375</ele>
        <time>2009-03-22T10:04:16Z</time>
      </trkpt>
      <trkpt lat="43.98764" lon="4.64548">
        <ele>205.591476</ele>
        <time>2009-03-22T10:04:21Z</time>
      </trkpt>
      <trkpt lat="43.98757" lon="4.64567">
        <ele>205.248749</ele>
        <time>2009-03-22T10:04:26Z</time>
      </trkpt>
      <trkpt lat="43.98748" lon="4.64613">
        <ele>202.973541</ele>
        <time>2009-03-22T10:04:36Z</time>
      </trkpt>
      <trkpt lat="43.98737" lon="4.64648">
        <ele>202.116501</ele>
        <time>2009-03-22T10:04:45Z</time>
      </trkpt>
      <trkpt lat="43.98731" lon="4.64673">
        <ele>203.008789</ele>
        <time>2009-03-22T10:04:50Z</time>
      </trkpt>
      <trkpt lat="43.98728" lon="4.64701">
        <ele>203.193848</ele>
        <time>2009-03-22T10:04:57Z</time>
      </trkpt>
      <trkpt lat="43.98726" lon="4.64725">
        <ele>202.831421</ele>
        <time>2009-03-22T10:05:02Z</time>
      </trkpt>
      <trkpt lat="43.98729" lon="4.64748">
        <ele>201.484589</ele>
        <time>2009-03-22T10:05:06Z</time>
      </trkpt>
      <trkpt lat="43.98739" lon="4.64774">
        <ele>199.688446</ele>
        <time>2009-03-22T10:05:12Z</time>
      </trkpt>
      <trkpt lat="43.98744" lon="4.64795">
        <ele>199.490585</ele>
        <time>2009-03-22T10:05:17Z</time>
      </trkpt>
      <trkpt lat="43.98742" lon="4.64811">
        <ele>199.592697</ele>
        <time>2009-03-22T10:05:21Z</time>
      </trkpt>
      <trkpt lat="43.98732" lon="4.64827">
        <ele>199.531647</ele>
        <time>2009-03-22T10:05:25Z</time>
      </trkpt>
      <trkpt lat="43.98705" lon="4.64848">
        <ele>199.191696</ele>
        <time>2009-03-22T10:05:30Z</time>
      </trkpt>
      <trkpt lat="43.98693" lon="4.64853">
        <ele>198.612335</ele>
        <time>2009-03-22T10:05:32Z</time>
      </trkpt>
      <trkpt lat="43.98674" lon="4.64849">
        <ele>198.543335</ele>
        <time>2009-03-22T10:05:36Z</time>
      </trkpt>
      <trkpt lat="43.98662" lon="4.64853">
        <ele>197.928543</ele>
        <time>2009-03-22T10:05:39Z</time>
      </trkpt>
      <trkpt lat="43.98658" lon="4.64857">
        <ele>197.311478</ele>
        <time>2009-03-22T10:05:40Z</time>
      </trkpt>
      <trkpt lat="43.98632" lon="4.64877">
        <ele>198.16153</ele>
        <time>2009-03-22T10:05:45Z</time>
      </trkpt>
      <trkpt lat="43.98613" lon="4.64885">
        <ele>198.489227</ele>
        <time>2009-03-22T10:05:48Z</time>
      </trkpt>
      <trkpt lat="43.98592" lon="4.649">
        <ele>198.635345</ele>
        <time>2009-03-22T10:05:52Z</time>
      </trkpt>
      <trkpt lat="43.98565" lon="4.64932">
        <ele>198.270905</ele>
        <time>2009-03-22T10:05:58Z</time>
      </trkpt>
      <trkpt lat="43.9855" lon="4.64953">
        <ele>196.709518</ele>
        <time>2009-03-22T10:06:02Z</time>
      </trkpt>
      <trkpt lat="43.98536" lon="4.64986">
        <ele>194.751678</ele>
        <time>2009-03-22T10:06:08Z</time>
      </trkpt>
      <trkpt lat="43.98535" lon="4.64993">
        <ele>194.590973</ele>
        <time>2009-03-22T10:06:09Z</time>
      </trkpt>
      <trkpt lat="43.98537" lon="4.65033">
        <ele>193.331116</ele>
        <time>2009-03-22T10:06:15Z</time>
      </trkpt>
      <trkpt lat="43.98541" lon="4.65059">
        <ele>191.006653</ele>
        <time>2009-03-22T10:06:19Z</time>
      </trkpt>
      <trkpt lat="43.98536" lon="4.65088">
        <ele>188.30246</ele>
        <time>2009-03-22T10:06:23Z</time>
      </trkpt>
      <trkpt lat="43.98534" lon="4.65096">
        <ele>187.593826</ele>
        <time>2009-03-22T10:06:24Z</time>
      </trkpt>
      <trkpt lat="43.98517" lon="4.65117">
        <ele>187.727036</ele>
        <time>2009-03-22T10:06:28Z</time>
      </trkpt>
      <trkpt lat="43.98469" lon="4.65154">
        <ele>182.136063</ele>
        <time>2009-03-22T10:06:37Z</time>
      </trkpt>
      <trkpt lat="43.98458" lon="4.65161">
        <ele>179.031021</ele>
        <time>2009-03-22T10:06:39Z</time>
      </trkpt>
      <trkpt lat="43.9843" lon="4.65165">
        <ele>180.303375</ele>
        <time>2009-03-22T10:06:44Z</time>
      </trkpt>
      <trkpt lat="43.98413" lon="4.65173">
        <ele>180.934586</ele>
        <time>2009-03-22T10:06:47Z</time>
      </trkpt>
      <trkpt lat="43.98403" lon="4.65182">
        <ele>182.261795</ele>
        <time>2009-03-22T10:06:49Z</time>
      </trkpt>
      <trkpt lat="43.98389" lon="4.65205">
        <ele>181.551437</ele>
        <time>2009-03-22T10:06:53Z</time>
      </trkpt>
      <trkpt lat="43.98385" lon="4.65217">
        <ele>180.179855</ele>
        <time>2009-03-22T10:06:55Z</time>
      </trkpt>
      <trkpt lat="43.9837" lon="4.65236">
        <ele>178.656693</ele>
        <time>2009-03-22T10:06:59Z</time>
      </trkpt>
      <trkpt lat="43.98353" lon="4.65246">
        <ele>179.422424</ele>
        <time>2009-03-22T10:07:03Z</time>
      </trkpt>
      <trkpt lat="43.98344" lon="4.65256">
        <ele>180.309982</ele>
        <time>2009-03-22T10:07:06Z</time>
      </trkpt>
      <trkpt lat="43.98336" lon="4.65258">
        <ele>180.724243</ele>
        <time>2009-03-22T10:07:10Z</time>
      </trkpt>
      <trkpt lat="43.98315" lon="4.65235">
        <ele>181.5802</ele>
        <time>2009-03-22T10:07:21Z</time>
      </trkpt>
      <trkpt lat="43.98294" lon="4.65213">
        <ele>182.707855</ele>
        <time>2009-03-22T10:07:31Z</time>
      </trkpt>
      <trkpt lat="43.98288" lon="4.65201">
        <ele>183.779373</ele>
        <time>2009-03-22T10:07:36Z</time>
      </trkpt>
      <trkpt lat="43.98276" lon="4.65184">
        <ele>184.225403</ele>
        <time>2009-03-22T10:07:43Z</time>
      </trkpt>
      <trkpt lat="43.98263" lon="4.65168">
        <ele>185.378036</ele>
        <time>2009-03-22T10:07:49Z</time>
      </trkpt>
      <trkpt lat="43.98238" lon="4.65132">
        <ele>187.669662</ele>
        <time>2009-03-22T10:08:02Z</time>
      </trkpt>
      <trkpt lat="43.9823" lon="4.65114">
        <ele>189.644882</ele>
        <time>2009-03-22T10:08:08Z</time>
      </trkpt>
      <trkpt lat="43.98225" lon="4.65097">
        <ele>191.638031</ele>
        <time>2009-03-22T10:08:13Z</time>
      </trkpt>
      <trkpt lat="43.98226" lon="4.65078">
        <ele>193.182144</ele>
        <time>2009-03-22T10:08:19Z</time>
      </trkpt>
      <trkpt lat="43.98228" lon="4.65055">
        <ele>195.207642</ele>
        <time>2009-03-22T10:08:25Z</time>
      </trkpt>
      <trkpt lat="43.98228" lon="4.65036">
        <ele>197.055679</ele>
        <time>2009-03-22T10:08:30Z</time>
      </trkpt>
      <trkpt lat="43.98226" lon="4.65022">
        <ele>198.15242</ele>
        <time>2009-03-22T10:08:35Z</time>
      </trkpt>
      <trkpt lat="43.98221" lon="4.65005">
        <ele>198.687241</ele>
        <time>2009-03-22T10:08:41Z</time>
      </trkpt>
      <trkpt lat="43.98216" lon="4.64989">
        <ele>199.183563</ele>
        <time>2009-03-22T10:08:46Z</time>
      </trkpt>
      <trkpt lat="43.98208" lon="4.64973">
        <ele>199.69104</ele>
        <time>2009-03-22T10:08:52Z</time>
      </trkpt>
      <trkpt lat="43.982" lon="4.64939">
        <ele>200.713928</ele>
        <time>2009-03-22T10:09:05Z</time>
      </trkpt>
      <trkpt lat="43.98194" lon="4.64915">
        <ele>200.81723</ele>
        <time>2009-03-22T10:09:15Z</time>
      </trkpt>
      <trkpt lat="43.9819" lon="4.64895">
        <ele>201.748596</ele>
        <time>2009-03-22T10:09:21Z</time>
      </trkpt>
      <trkpt lat="43.98177" lon="4.64859">
        <ele>204.704605</ele>
        <time>2009-03-22T10:09:35Z</time>
      </trkpt>
      <trkpt lat="43.98174" lon="4.64846">
        <ele>205.226181</ele>
        <time>2009-03-22T10:09:39Z</time>
      </trkpt>
      <trkpt lat="43.98162" lon="4.64828">
        <ele>206.143814</ele>
        <time>2009-03-22T10:09:47Z</time>
      </trkpt>
      <trkpt lat="43.9815" lon="4.64814">
        <ele>206.728897</ele>
        <time>2009-03-22T10:09:54Z</time>
      </trkpt>
      <trkpt lat="43.98136" lon="4.648">
        <ele>207.696075</ele>
        <time>2009-03-22T10:10:02Z</time>
      </trkpt>
      <trkpt lat="43.98131" lon="4.64782">
        <ele>207.968338</ele>
        <time>2009-03-22T10:10:09Z</time>
      </trkpt>
      <trkpt lat="43.98135" lon="4.6477">
        <ele>208.11705</ele>
        <time>2009-03-22T10:10:13Z</time>
      </trkpt>
      <trkpt lat="43.98149" lon="4.64746">
        <ele>209.264282</ele>
        <time>2009-03-22T10:10:23Z</time>
      </trkpt>
      <trkpt lat="43.9816" lon="4.64724">
        <ele>210.767853</ele>
        <time>2009-03-22T10:10:32Z</time>
      </trkpt>
      <trkpt lat="43.98167" lon="4.64704">
        <ele>211.699402</ele>
        <time>2009-03-22T10:10:40Z</time>
      </trkpt>
      <trkpt lat="43.98179" lon="4.64657">
        <ele>212.611954</ele>
        <time>2009-03-22T10:10:57Z</time>
      </trkpt>
      <trkpt lat="43.98184" lon="4.64637">
        <ele>213.228943</ele>
        <time>2009-03-22T10:11:04Z</time>
      </trkpt>
      <trkpt lat="43.98193" lon="4.64612">
        <ele>214.159882</ele>
        <time>2009-03-22T10:11:13Z</time>
      </trkpt>
      <trkpt lat="43.98205" lon="4.6459">
        <ele>215.221115</ele>
        <time>2009-03-22T10:11:22Z</time>
      </trkpt>
      <trkpt lat="43.98223" lon="4.64563">
        <ele>215.349854</ele>
        <time>2009-03-22T10:11:34Z</time>
      </trkpt>
      <trkpt lat="43.98262" lon="4.64531">
        <ele>215.709381</ele>
        <time>2009-03-22T10:11:54Z</time>
      </trkpt>
      <trkpt lat="43.98291" lon="4.6452">
        <ele>216.796097</ele>
        <time>2009-03-22T10:12:07Z</time>
      </trkpt>
      <trkpt lat="43.98305" lon="4.64509">
        <ele>217.027481</ele>
        <time>2009-03-22T10:12:14Z</time>
      </trkpt>
      <trkpt lat="43.9833" lon="4.64476">
        <ele>217.701538</ele>
        <time>2009-03-22T10:12:30Z</time>
      </trkpt>
      <trkpt lat="43.98338" lon="4.64462">
        <ele>218.138062</ele>
        <time>2009-03-22T10:12:37Z</time>
      </trkpt>
      <trkpt lat="43.98338" lon="4.64457">
        <ele>218.211319</ele>
        <time>2009-03-22T10:12:39Z</time>
      </trkpt>
      <trkpt lat="43.98331" lon="4.64451">
        <ele>218.006989</ele>
        <time>2009-03-22T10:12:45Z</time>
      </trkpt>
      <trkpt lat="43.98319" lon="4.64447">
        <ele>217.52475</ele>
        <time>2009-03-22T10:12:52Z</time>
      </trkpt>
      <trkpt lat="43.98296" lon="4.64448">
        <ele>216.470886</ele>
        <time>2009-03-22T10:13:00Z</time>
      </trkpt>
      <trkpt lat="43.98277" lon="4.64453">
        <ele>215.198883</ele>
        <time>2009-03-22T10:13:05Z</time>
      </trkpt>
      <trkpt lat="43.98255" lon="4.6445">
        <ele>213.764694</ele>
        <time>2009-03-22T10:13:10Z</time>
      </trkpt>
      <trkpt lat="43.98246" lon="4.64446">
        <ele>213.2686</ele>
        <time>2009-03-22T10:13:12Z</time>
      </trkpt>
      <trkpt lat="43.98226" lon="4.64449">
        <ele>212.433228</ele>
        <time>2009-03-22T10:13:16Z</time>
      </trkpt>
      <trkpt lat="43.98195" lon="4.64438">
        <ele>211.57666</ele>
        <time>2009-03-22T10:13:21Z</time>
      </trkpt>
      <trkpt lat="43.98168" lon="4.64446">
        <ele>210.26152</ele>
        <time>2009-03-22T10:13:27Z</time>
      </trkpt>
      <trkpt lat="43.98125" lon="4.64449">
        <ele>205.72525</ele>
        <time>2009-03-22T10:13:33Z</time>
      </trkpt>
      <trkpt lat="43.98111" lon="4.64451">
        <ele>203.958786</ele>
        <time>2009-03-22T10:13:35Z</time>
      </trkpt>
      <trkpt lat="43.98072" lon="4.64471">
        <ele>201.88562</ele>
        <time>2009-03-22T10:13:41Z</time>
      </trkpt>
      <trkpt lat="43.98032" lon="4.64535">
        <ele>196.695663</ele>
        <time>2009-03-22T10:13:50Z</time>
      </trkpt>
      <trkpt lat="43.98001" lon="4.64551">
        <ele>194.717636</ele>
        <time>2009-03-22T10:13:55Z</time>
      </trkpt>
      <trkpt lat="43.97956" lon="4.64551">
        <ele>192.291519</ele>
        <time>2009-03-22T10:14:01Z</time>
      </trkpt>
      <trkpt lat="43.97886" lon="4.6452">
        <ele>184.727859</ele>
        <time>2009-03-22T10:14:11Z</time>
      </trkpt>
      <trkpt lat="43.97889" lon="4.64512">
        <ele>184.703979</ele>
        <time>2009-03-22T10:14:14Z</time>
      </trkpt>
      <trkpt lat="43.97898" lon="4.64502">
        <ele>187.088287</ele>
        <time>2009-03-22T10:14:20Z</time>
      </trkpt>
      <trkpt lat="43.97912" lon="4.6448">
        <ele>191.17366</ele>
        <time>2009-03-22T10:14:35Z</time>
      </trkpt>
      <trkpt lat="43.97928" lon="4.64475">
        <ele>192.53978</ele>
        <time>2009-03-22T10:14:45Z</time>
      </trkpt>
      <trkpt lat="43.97936" lon="4.64475">
        <ele>192.875565</ele>
        <time>2009-03-22T10:14:51Z</time>
      </trkpt>
      <trkpt lat="43.97946" lon="4.6447">
        <ele>194.192032</ele>
        <time>2009-03-22T10:14:57Z</time>
      </trkpt>
      <trkpt lat="43.97955" lon="4.64461">
        <ele>195.851059</ele>
        <time>2009-03-22T10:15:04Z</time>
      </trkpt>
      <trkpt lat="43.97967" lon="4.64441">
        <ele>198.677628</ele>
        <time>2009-03-22T10:15:16Z</time>
      </trkpt>
      <trkpt lat="43.97983" lon="4.64422">
        <ele>201.548309</ele>
        <time>2009-03-22T10:15:30Z</time>
      </trkpt>
      <trkpt lat="43.97994" lon="4.64415">
        <ele>202.641953</ele>
        <time>2009-03-22T10:15:38Z</time>
      </trkpt>
      <trkpt lat="43.98007" lon="4.64416">
        <ele>203.227905</ele>
        <time>2009-03-22T10:15:46Z</time>
      </trkpt>
      <trkpt lat="43.98025" lon="4.6441">
        <ele>204.331192</ele>
        <time>2009-03-22T10:15:57Z</time>
      </trkpt>
      <trkpt lat="43.98061" lon="4.64403">
        <ele>206.207687</ele>
        <time>2009-03-22T10:16:17Z</time>
      </trkpt>
      <trkpt lat="43.98075" lon="4.64399">
        <ele>207.141693</ele>
        <time>2009-03-22T10:16:23Z</time>
      </trkpt>
      <trkpt lat="43.98087" lon="4.64394">
        <ele>208.100342</ele>
        <time>2009-03-22T10:16:29Z</time>
      </trkpt>
      <trkpt lat="43.98092" lon="4.6439">
        <ele>208.591232</ele>
        <time>2009-03-22T10:16:33Z</time>
      </trkpt>
      <trkpt lat="43.98099" lon="4.64383">
        <ele>209.392181</ele>
        <time>2009-03-22T10:16:47Z</time>
      </trkpt>
      <trkpt lat="43.98116" lon="4.64372">
        <ele>210.77916</ele>
        <time>2009-03-22T10:17:01Z</time>
      </trkpt>
      <trkpt lat="43.98151" lon="4.64346">
        <ele>214.214188</ele>
        <time>2009-03-22T10:17:25Z</time>
      </trkpt>
      <trkpt lat="43.98166" lon="4.64342">
        <ele>214.85997</ele>
        <time>2009-03-22T10:17:31Z</time>
      </trkpt>
      <trkpt lat="43.98179" lon="4.64334">
        <ele>214.886032</ele>
        <time>2009-03-22T10:17:40Z</time>
      </trkpt>
      <trkpt lat="43.98192" lon="4.64331">
        <ele>214.916306</ele>
        <time>2009-03-22T10:18:31Z</time>
      </trkpt>
      <trkpt lat="43.98204" lon="4.64326">
        <ele>214.98584</ele>
        <time>2009-03-22T10:18:37Z</time>
      </trkpt>
      <trkpt lat="43.98214" lon="4.64318">
        <ele>215.297211</ele>
        <time>2009-03-22T10:18:42Z</time>
      </trkpt>
      <trkpt lat="43.98228" lon="4.64311">
        <ele>215.720139</ele>
        <time>2009-03-22T10:18:48Z</time>
      </trkpt>
      <trkpt lat="43.98248" lon="4.64302">
        <ele>216.248459</ele>
        <time>2009-03-22T10:18:56Z</time>
      </trkpt>
      <trkpt lat="43.98266" lon="4.64292">
        <ele>216.561142</ele>
        <time>2009-03-22T10:19:02Z</time>
      </trkpt>
      <trkpt lat="43.98308" lon="4.64264">
        <ele>215.999191</ele>
        <time>2009-03-22T10:19:15Z</time>
      </trkpt>
      <trkpt lat="43.98323" lon="4.64243">
        <ele>214.907745</ele>
        <time>2009-03-22T10:19:21Z</time>
      </trkpt>
      <trkpt lat="43.98338" lon="4.64235">
        <ele>214.90181</ele>
        <time>2009-03-22T10:19:26Z</time>
      </trkpt>
      <trkpt lat="43.98408" lon="4.64247">
        <ele>216.782059</ele>
        <time>2009-03-22T10:19:48Z</time>
      </trkpt>
      <trkpt lat="43.98456" lon="4.64251">
        <ele>219.360077</ele>
        <time>2009-03-22T10:20:03Z</time>
      </trkpt>
      <trkpt lat="43.98479" lon="4.64249">
        <ele>220.532333</ele>
        <time>2009-03-22T10:20:10Z</time>
      </trkpt>
      <trkpt lat="43.98497" lon="4.64255">
        <ele>221.836166</ele>
        <time>2009-03-22T10:20:17Z</time>
      </trkpt>
      <trkpt lat="43.98502" lon="4.6425">
        <ele>221.867081</ele>
        <time>2009-03-22T10:20:22Z</time>
      </trkpt>
      <trkpt lat="43.98504" lon="4.64238">
        <ele>221.318054</ele>
        <time>2009-03-22T10:20:26Z</time>
      </trkpt>
      <trkpt lat="43.98507" lon="4.64206">
        <ele>219.012344</ele>
        <time>2009-03-22T10:20:35Z</time>
      </trkpt>
      <trkpt lat="43.9852" lon="4.64175">
        <ele>217.336014</ele>
        <time>2009-03-22T10:20:43Z</time>
      </trkpt>
      <trkpt lat="43.98527" lon="4.64153">
        <ele>216.352829</ele>
        <time>2009-03-22T10:21:02Z</time>
      </trkpt>
      <trkpt lat="43.98528" lon="4.64137">
        <ele>215.321518</ele>
        <time>2009-03-22T10:21:07Z</time>
      </trkpt>
      <trkpt lat="43.98534" lon="4.64123">
        <ele>214.864777</ele>
        <time>2009-03-22T10:21:13Z</time>
      </trkpt>
      <trkpt lat="43.98537" lon="4.64096">
        <ele>213.208969</ele>
        <time>2009-03-22T10:21:19Z</time>
      </trkpt>
      <trkpt lat="43.98542" lon="4.6406">
        <ele>211.191025</ele>
        <time>2009-03-22T10:21:29Z</time>
      </trkpt>
      <trkpt lat="43.98544" lon="4.64039">
        <ele>210.145462</ele>
        <time>2009-03-22T10:21:36Z</time>
      </trkpt>
      <trkpt lat="43.98551" lon="4.64032">
        <ele>210.604462</ele>
        <time>2009-03-22T10:21:41Z</time>
      </trkpt>
      <trkpt lat="43.98554" lon="4.6401">
        <ele>210.708374</ele>
        <time>2009-03-22T10:21:50Z</time>
      </trkpt>
      <trkpt lat="43.98561" lon="4.64004">
        <ele>210.937622</ele>
        <time>2009-03-22T10:21:56Z</time>
      </trkpt>
      <trkpt lat="43.98566" lon="4.63992">
        <ele>210.978378</ele>
        <time>2009-03-22T10:22:01Z</time>
      </trkpt>
      <trkpt lat="43.98565" lon="4.63977">
        <ele>211.036972</ele>
        <time>2009-03-22T10:22:05Z</time>
      </trkpt>
      <trkpt lat="43.98568" lon="4.63962">
        <ele>211.847916</ele>
        <time>2009-03-22T10:22:09Z</time>
      </trkpt>
      <trkpt lat="43.98575" lon="4.6395">
        <ele>212.604111</ele>
        <time>2009-03-22T10:22:15Z</time>
      </trkpt>
      <trkpt lat="43.98577" lon="4.63932">
        <ele>213.533188</ele>
        <time>2009-03-22T10:22:31Z</time>
      </trkpt>
      <trkpt lat="43.98576" lon="4.63929">
        <ele>213.58461</ele>
        <time>2009-03-22T10:22:45Z</time>
      </trkpt>
      <trkpt lat="43.98575" lon="4.63926">
        <ele>213.720383</ele>
        <time>2009-03-22T10:22:51Z</time>
      </trkpt>
      <trkpt lat="43.9858" lon="4.63911">
        <ele>214.579437</ele>
        <time>2009-03-22T10:22:56Z</time>
      </trkpt>
      <trkpt lat="43.98582" lon="4.63902">
        <ele>215.007996</ele>
        <time>2009-03-22T10:23:00Z</time>
      </trkpt>
      <trkpt lat="43.98592" lon="4.63901">
        <ele>215.325424</ele>
        <time>2009-03-22T10:23:06Z</time>
      </trkpt>
      <trkpt lat="43.98601" lon="4.63892">
        <ele>215.961517</ele>
        <time>2009-03-22T10:23:10Z</time>
      </trkpt>
      <trkpt lat="43.98611" lon="4.63875">
        <ele>217.020218</ele>
        <time>2009-03-22T10:23:15Z</time>
      </trkpt>
      <trkpt lat="43.98618" lon="4.63867">
        <ele>217.566925</ele>
        <time>2009-03-22T10:23:18Z</time>
      </trkpt>
      <trkpt lat="43.98629" lon="4.63866">
        <ele>217.873535</ele>
        <time>2009-03-22T10:23:21Z</time>
      </trkpt>
      <trkpt lat="43.98652" lon="4.63869">
        <ele>218.407898</ele>
        <time>2009-03-22T10:23:27Z</time>
      </trkpt>
      <trkpt lat="43.98659" lon="4.63872">
        <ele>218.481201</ele>
        <time>2009-03-22T10:23:29Z</time>
      </trkpt>
      <trkpt lat="43.98669" lon="4.63868">
        <ele>218.797806</ele>
        <time>2009-03-22T10:23:33Z</time>
      </trkpt>
      <trkpt lat="43.98682" lon="4.63857">
        <ele>219.068832</ele>
        <time>2009-03-22T10:23:37Z</time>
      </trkpt>
      <trkpt lat="43.98695" lon="4.63859">
        <ele>219.045975</ele>
        <time>2009-03-22T10:23:42Z</time>
      </trkpt>
      <trkpt lat="43.98708" lon="4.63863">
        <ele>218.999451</ele>
        <time>2009-03-22T10:23:46Z</time>
      </trkpt>
      <trkpt lat="43.98722" lon="4.63863">
        <ele>219.005234</ele>
        <time>2009-03-22T10:23:50Z</time>
      </trkpt>
      <trkpt lat="43.9874" lon="4.63858">
        <ele>219.092789</ele>
        <time>2009-03-22T10:23:55Z</time>
      </trkpt>
      <trkpt lat="43.98754" lon="4.6386">
        <ele>219.07872</ele>
        <time>2009-03-22T10:23:59Z</time>
      </trkpt>
      <trkpt lat="43.98777" lon="4.63868">
        <ele>218.631882</ele>
        <time>2009-03-22T10:24:07Z</time>
      </trkpt>
      <trkpt lat="43.98786" lon="4.6387">
        <ele>218.480255</ele>
        <time>2009-03-22T10:24:10Z</time>
      </trkpt>
      <trkpt lat="43.98804" lon="4.63876">
        <ele>218.429092</ele>
        <time>2009-03-22T10:24:16Z</time>
      </trkpt>
      <trkpt lat="43.98818" lon="4.63873">
        <ele>218.222977</ele>
        <time>2009-03-22T10:24:22Z</time>
      </trkpt>
      <trkpt lat="43.98823" lon="4.63872">
        <ele>218.197205</ele>
        <time>2009-03-22T10:24:25Z</time>
      </trkpt>
      <trkpt lat="43.98837" lon="4.63876">
        <ele>218.271774</ele>
        <time>2009-03-22T10:24:37Z</time>
      </trkpt>
      <trkpt lat="43.98841" lon="4.63878">
        <ele>218.326782</ele>
        <time>2009-03-22T10:24:43Z</time>
      </trkpt>
      <trkpt lat="43.98847" lon="4.63879">
        <ele>218.336456</ele>
        <time>2009-03-22T10:24:52Z</time>
      </trkpt>
      <trkpt lat="43.98862" lon="4.63868">
        <ele>218.00885</ele>
        <time>2009-03-22T10:25:18Z</time>
      </trkpt>
      <trkpt lat="43.98875" lon="4.63864">
        <ele>218.032516</ele>
        <time>2009-03-22T10:25:23Z</time>
      </trkpt>
      <trkpt lat="43.98889" lon="4.63847">
        <ele>218.013901</ele>
        <time>2009-03-22T10:25:28Z</time>
      </trkpt>
      <trkpt lat="43.98899" lon="4.63819">
        <ele>217.879715</ele>
        <time>2009-03-22T10:25:34Z</time>
      </trkpt>
      <trkpt lat="43.98896" lon="4.6381">
        <ele>217.892761</ele>
        <time>2009-03-22T10:25:38Z</time>
      </trkpt>
      <trkpt lat="43.98901" lon="4.63792">
        <ele>219.053558</ele>
        <time>2009-03-22T10:25:47Z</time>
      </trkpt>
      <trkpt lat="43.98921" lon="4.63771">
        <ele>220.00293</ele>
        <time>2009-03-22T10:26:05Z</time>
      </trkpt>
      <trkpt lat="43.98925" lon="4.63763">
        <ele>220.443008</ele>
        <time>2009-03-22T10:26:11Z</time>
      </trkpt>
      <trkpt lat="43.98936" lon="4.63749">
        <ele>220.964523</ele>
        <time>2009-03-22T10:26:25Z</time>
      </trkpt>
      <trkpt lat="43.98941" lon="4.63744">
        <ele>221.15329</ele>
        <time>2009-03-22T10:26:41Z</time>
      </trkpt>
      <trkpt lat="43.98948" lon="4.6374">
        <ele>221.254425</ele>
        <time>2009-03-22T10:26:45Z</time>
      </trkpt>
      <trkpt lat="43.98951" lon="4.63734">
        <ele>221.640976</ele>
        <time>2009-03-22T10:26:50Z</time>
      </trkpt>
      <trkpt lat="43.98954" lon="4.6373">
        <ele>221.783188</ele>
        <time>2009-03-22T10:26:54Z</time>
      </trkpt>
      <trkpt lat="43.98954" lon="4.63725">
        <ele>222.265625</ele>
        <time>2009-03-22T10:27:08Z</time>
      </trkpt>
      <trkpt lat="43.98958" lon="4.6371">
        <ele>223.323639</ele>
        <time>2009-03-22T10:27:26Z</time>
      </trkpt>
      <trkpt lat="43.98956" lon="4.63697">
        <ele>224.583649</ele>
        <time>2009-03-22T10:27:33Z</time>
      </trkpt>
      <trkpt lat="43.98953" lon="4.63692">
        <ele>225.123138</ele>
        <time>2009-03-22T10:27:42Z</time>
      </trkpt>
      <trkpt lat="43.98954" lon="4.63688">
        <ele>225.488022</ele>
        <time>2009-03-22T10:27:46Z</time>
      </trkpt>
      <trkpt lat="43.98945" lon="4.63669">
        <ele>226.683502</ele>
        <time>2009-03-22T10:28:08Z</time>
      </trkpt>
      <trkpt lat="43.98944" lon="4.63662">
        <ele>226.916183</ele>
        <time>2009-03-22T10:28:16Z</time>
      </trkpt>
      <trkpt lat="43.98944" lon="4.63657">
        <ele>226.925034</ele>
        <time>2009-03-22T10:28:25Z</time>
      </trkpt>
      <trkpt lat="43.98953" lon="4.63652">
        <ele>226.022705</ele>
        <time>2009-03-22T10:28:30Z</time>
      </trkpt>
      <trkpt lat="43.98969" lon="4.63646">
        <ele>224.147751</ele>
        <time>2009-03-22T10:28:38Z</time>
      </trkpt>
      <trkpt lat="43.9898" lon="4.63651">
        <ele>222.973846</ele>
        <time>2009-03-22T10:28:43Z</time>
      </trkpt>
      <trkpt lat="43.98985" lon="4.63664">
        <ele>222.521851</ele>
        <time>2009-03-22T10:28:47Z</time>
      </trkpt>
      <trkpt lat="43.98988" lon="4.63667">
        <ele>222.252731</ele>
        <time>2009-03-22T10:28:48Z</time>
      </trkpt>
      <trkpt lat="43.99004" lon="4.63666">
        <ele>220.48999</ele>
        <time>2009-03-22T10:28:53Z</time>
      </trkpt>
      <trkpt lat="43.99005" lon="4.63655">
        <ele>220.203522</ele>
        <time>2009-03-22T10:28:58Z</time>
      </trkpt>
      <trkpt lat="43.98998" lon="4.63629">
        <ele>220.591049</ele>
        <time>2009-03-22T10:29:06Z</time>
      </trkpt>
      <trkpt lat="43.98987" lon="4.63613">
        <ele>221.006516</ele>
        <time>2009-03-22T10:29:10Z</time>
      </trkpt>
      <trkpt lat="43.98979" lon="4.63599">
        <ele>220.920898</ele>
        <time>2009-03-22T10:29:13Z</time>
      </trkpt>
      <trkpt lat="43.98976" lon="4.63569">
        <ele>219.011185</ele>
        <time>2009-03-22T10:29:17Z</time>
      </trkpt>
      <trkpt lat="43.98975" lon="4.63538">
        <ele>217.647079</ele>
        <time>2009-03-22T10:29:21Z</time>
      </trkpt>
      <trkpt lat="43.98983" lon="4.63529">
        <ele>217.03717</ele>
        <time>2009-03-22T10:29:26Z</time>
      </trkpt>
      <trkpt lat="43.98991" lon="4.63526">
        <ele>216.755112</ele>
        <time>2009-03-22T10:30:10Z</time>
      </trkpt>
      <trkpt lat="43.98998" lon="4.63509">
        <ele>216.201111</ele>
        <time>2009-03-22T10:30:16Z</time>
      </trkpt>
      <trkpt lat="43.99002" lon="4.63503">
        <ele>216.043198</ele>
        <time>2009-03-22T10:30:19Z</time>
      </trkpt>
      <trkpt lat="43.99014" lon="4.63497">
        <ele>216.096939</ele>
        <time>2009-03-22T10:30:25Z</time>
      </trkpt>
      <trkpt lat="43.99017" lon="4.63488">
        <ele>216.297012</ele>
        <time>2009-03-22T10:30:29Z</time>
      </trkpt>
      <trkpt lat="43.99017" lon="4.63472">
        <ele>216.646851</ele>
        <time>2009-03-22T10:30:34Z</time>
      </trkpt>
      <trkpt lat="43.99023" lon="4.63451">
        <ele>217.009521</ele>
        <time>2009-03-22T10:30:42Z</time>
      </trkpt>
      <trkpt lat="43.99025" lon="4.63432">
        <ele>217.348083</ele>
        <time>2009-03-22T10:30:48Z</time>
      </trkpt>
      <trkpt lat="43.99025" lon="4.6342">
        <ele>217.608032</ele>
        <time>2009-03-22T10:30:53Z</time>
      </trkpt>
      <trkpt lat="43.99028" lon="4.63391">
        <ele>218.051987</ele>
        <time>2009-03-22T10:31:04Z</time>
      </trkpt>
      <trkpt lat="43.99041" lon="4.63376">
        <ele>217.76622</ele>
        <time>2009-03-22T10:31:10Z</time>
      </trkpt>
      <trkpt lat="43.99048" lon="4.6336">
        <ele>217.430817</ele>
        <time>2009-03-22T10:31:14Z</time>
      </trkpt>
      <trkpt lat="43.9905" lon="4.63347">
        <ele>217.387177</ele>
        <time>2009-03-22T10:31:16Z</time>
      </trkpt>
      <trkpt lat="43.99055" lon="4.63323">
        <ele>217.169983</ele>
        <time>2009-03-22T10:31:20Z</time>
      </trkpt>
      <trkpt lat="43.99063" lon="4.633">
        <ele>216.857071</ele>
        <time>2009-03-22T10:31:28Z</time>
      </trkpt>
      <trkpt lat="43.99063" lon="4.63277">
        <ele>216.853424</ele>
        <time>2009-03-22T10:31:34Z</time>
      </trkpt>
      <trkpt lat="43.99058" lon="4.63256">
        <ele>217.087646</ele>
        <time>2009-03-22T10:31:39Z</time>
      </trkpt>
      <trkpt lat="43.99056" lon="4.63238">
        <ele>217.293701</ele>
        <time>2009-03-22T10:31:43Z</time>
      </trkpt>
      <trkpt lat="43.9907" lon="4.63215">
        <ele>217.04953</ele>
        <time>2009-03-22T10:31:50Z</time>
      </trkpt>
      <trkpt lat="43.9908" lon="4.63207">
        <ele>216.887146</ele>
        <time>2009-03-22T10:31:54Z</time>
      </trkpt>
      <trkpt lat="43.99089" lon="4.63201">
        <ele>216.763855</ele>
        <time>2009-03-22T10:31:57Z</time>
      </trkpt>
      <trkpt lat="43.99106" lon="4.63183">
        <ele>216.870087</ele>
        <time>2009-03-22T10:32:04Z</time>
      </trkpt>
      <trkpt lat="43.99112" lon="4.63172">
        <ele>217.016388</ele>
        <time>2009-03-22T10:32:08Z</time>
      </trkpt>
      <trkpt lat="43.9912" lon="4.63162">
        <ele>216.948456</ele>
        <time>2009-03-22T10:32:12Z</time>
      </trkpt>
      <trkpt lat="43.99126" lon="4.63143">
        <ele>217.061584</ele>
        <time>2009-03-22T10:32:19Z</time>
      </trkpt>
      <trkpt lat="43.99136" lon="4.63134">
        <ele>216.720322</ele>
        <time>2009-03-22T10:32:24Z</time>
      </trkpt>
      <trkpt lat="43.99139" lon="4.63133">
        <ele>216.600922</ele>
        <time>2009-03-22T10:32:25Z</time>
      </trkpt>
      <trkpt lat="43.99149" lon="4.63113">
        <ele>216.192215</ele>
        <time>2009-03-22T10:32:30Z</time>
      </trkpt>
      <trkpt lat="43.99154" lon="4.63092">
        <ele>215.980072</ele>
        <time>2009-03-22T10:32:35Z</time>
      </trkpt>
      <trkpt lat="43.99163" lon="4.63078">
        <ele>215.595337</ele>
        <time>2009-03-22T10:32:39Z</time>
      </trkpt>
      <trkpt lat="43.99176" lon="4.63063">
        <ele>215.18187</ele>
        <time>2009-03-22T10:32:45Z</time>
      </trkpt>
      <trkpt lat="43.99187" lon="4.63065">
        <ele>214.65419</ele>
        <time>2009-03-22T10:32:49Z</time>
      </trkpt>
      <trkpt lat="43.99201" lon="4.63053">
        <ele>214.105667</ele>
        <time>2009-03-22T10:32:55Z</time>
      </trkpt>
      <trkpt lat="43.99204" lon="4.63047">
        <ele>213.958786</ele>
        <time>2009-03-22T10:32:58Z</time>
      </trkpt>
      <trkpt lat="43.99214" lon="4.63041">
        <ele>213.476166</ele>
        <time>2009-03-22T10:33:06Z</time>
      </trkpt>
      <trkpt lat="43.99214" lon="4.63033">
        <ele>213.469177</ele>
        <time>2009-03-22T10:33:11Z</time>
      </trkpt>
      <trkpt lat="43.99219" lon="4.63017">
        <ele>213.269775</ele>
        <time>2009-03-22T10:33:22Z</time>
      </trkpt>
      <trkpt lat="43.99219" lon="4.63017">
        <ele>213.222946</ele>
        <time>2009-03-22T10:33:58Z</time>
      </trkpt>
      <trkpt lat="43.99222" lon="4.63006">
        <ele>213.039246</ele>
        <time>2009-03-22T10:34:02Z</time>
      </trkpt>
      <trkpt lat="43.99223" lon="4.62998">
        <ele>212.998413</ele>
        <time>2009-03-22T10:34:05Z</time>
      </trkpt>
      <trkpt lat="43.99217" lon="4.62985">
        <ele>213.431183</ele>
        <time>2009-03-22T10:34:10Z</time>
      </trkpt>
      <trkpt lat="43.99207" lon="4.62971">
        <ele>214.083847</ele>
        <time>2009-03-22T10:34:15Z</time>
      </trkpt>
      <trkpt lat="43.992" lon="4.62964">
        <ele>214.583344</ele>
        <time>2009-03-22T10:34:18Z</time>
      </trkpt>
      <trkpt lat="43.99197" lon="4.62946">
        <ele>214.926422</ele>
        <time>2009-03-22T10:34:23Z</time>
      </trkpt>
      <trkpt lat="43.99204" lon="4.62929">
        <ele>215.155579</ele>
        <time>2009-03-22T10:34:27Z</time>
      </trkpt>
      <trkpt lat="43.99214" lon="4.62913">
        <ele>215.031738</ele>
        <time>2009-03-22T10:34:31Z</time>
      </trkpt>
      <trkpt lat="43.99232" lon="4.62891">
        <ele>214.452591</ele>
        <time>2009-03-22T10:34:37Z</time>
      </trkpt>
      <trkpt lat="43.99241" lon="4.62886">
        <ele>213.932953</ele>
        <time>2009-03-22T10:34:40Z</time>
      </trkpt>
      <trkpt lat="43.99256" lon="4.62883">
        <ele>212.846695</ele>
        <time>2009-03-22T10:34:45Z</time>
      </trkpt>
      <trkpt lat="43.99272" lon="4.62865">
        <ele>211.246323</ele>
        <time>2009-03-22T10:34:51Z</time>
      </trkpt>
      <trkpt lat="43.99276" lon="4.62846">
        <ele>210.68927</ele>
        <time>2009-03-22T10:34:55Z</time>
      </trkpt>
      <trkpt lat="43.99275" lon="4.62841">
        <ele>210.520157</ele>
        <time>2009-03-22T10:34:56Z</time>
      </trkpt>
      <trkpt lat="43.99278" lon="4.62823">
        <ele>209.998306</ele>
        <time>2009-03-22T10:35:01Z</time>
      </trkpt>
      <trkpt lat="43.99289" lon="4.62815">
        <ele>209.912689</ele>
        <time>2009-03-22T10:35:04Z</time>
      </trkpt>
      <trkpt lat="43.99296" lon="4.62806">
        <ele>209.661987</ele>
        <time>2009-03-22T10:35:06Z</time>
      </trkpt>
      <trkpt lat="43.99303" lon="4.62787">
        <ele>208.897812</ele>
        <time>2009-03-22T10:35:10Z</time>
      </trkpt>
      <trkpt lat="43.99293" lon="4.62771">
        <ele>208.212753</ele>
        <time>2009-03-22T10:35:15Z</time>
      </trkpt>
      <trkpt lat="43.99284" lon="4.62761">
        <ele>207.879166</ele>
        <time>2009-03-22T10:35:20Z</time>
      </trkpt>
      <trkpt lat="43.99276" lon="4.62761">
        <ele>207.893127</ele>
        <time>2009-03-22T10:35:22Z</time>
      </trkpt>
      <trkpt lat="43.99258" lon="4.62758">
        <ele>208.839127</ele>
        <time>2009-03-22T10:35:27Z</time>
      </trkpt>
      <trkpt lat="43.9924" lon="4.62745">
        <ele>209.676071</ele>
        <time>2009-03-22T10:35:32Z</time>
      </trkpt>
      <trkpt lat="43.99219" lon="4.62728">
        <ele>211.339569</ele>
        <time>2009-03-22T10:35:38Z</time>
      </trkpt>
      <trkpt lat="43.99202" lon="4.62725">
        <ele>213.602127</ele>
        <time>2009-03-22T10:35:44Z</time>
      </trkpt>
      <trkpt lat="43.99168" lon="4.62721">
        <ele>218.509293</ele>
        <time>2009-03-22T10:35:59Z</time>
      </trkpt>
      <trkpt lat="43.99155" lon="4.62717">
        <ele>220.294586</ele>
        <time>2009-03-22T10:36:07Z</time>
      </trkpt>
      <trkpt lat="43.99142" lon="4.62709">
        <ele>221.555984</ele>
        <time>2009-03-22T10:36:14Z</time>
      </trkpt>
      <trkpt lat="43.99117" lon="4.62705">
        <ele>224.950439</ele>
        <time>2009-03-22T10:36:28Z</time>
      </trkpt>
      <trkpt lat="43.99098" lon="4.62703">
        <ele>227.718033</ele>
        <time>2009-03-22T10:36:41Z</time>
      </trkpt>
      <trkpt lat="43.99082" lon="4.62693">
        <ele>228.761734</ele>
        <time>2009-03-22T10:36:55Z</time>
      </trkpt>
      <trkpt lat="43.99075" lon="4.62684">
        <ele>228.834137</ele>
        <time>2009-03-22T10:37:03Z</time>
      </trkpt>
      <trkpt lat="43.99067" lon="4.62669">
        <ele>228.551208</ele>
        <time>2009-03-22T10:37:15Z</time>
      </trkpt>
      <trkpt lat="43.99068" lon="4.62668">
        <ele>228.507385</ele>
        <time>2009-03-22T10:38:25Z</time>
      </trkpt>
      <trkpt lat="43.99063" lon="4.6266">
        <ele>228.287018</ele>
        <time>2009-03-22T10:38:29Z</time>
      </trkpt>
      <trkpt lat="43.99053" lon="4.62655">
        <ele>228.449356</ele>
        <time>2009-03-22T10:38:32Z</time>
      </trkpt>
      <trkpt lat="43.99042" lon="4.62636">
        <ele>227.095886</ele>
        <time>2009-03-22T10:38:36Z</time>
      </trkpt>
      <trkpt lat="43.99044" lon="4.6261">
        <ele>226.241196</ele>
        <time>2009-03-22T10:38:40Z</time>
      </trkpt>
      <trkpt lat="43.99043" lon="4.62574">
        <ele>225.370163</ele>
        <time>2009-03-22T10:38:46Z</time>
      </trkpt>
      <trkpt lat="43.9905" lon="4.62556">
        <ele>224.069046</ele>
        <time>2009-03-22T10:38:50Z</time>
      </trkpt>
      <trkpt lat="43.99049" lon="4.62524">
        <ele>223.761139</ele>
        <time>2009-03-22T10:38:56Z</time>
      </trkpt>
      <trkpt lat="43.99042" lon="4.62498">
        <ele>224.114563</ele>
        <time>2009-03-22T10:39:01Z</time>
      </trkpt>
      <trkpt lat="43.9904" lon="4.62488">
        <ele>224.025314</ele>
        <time>2009-03-22T10:39:03Z</time>
      </trkpt>
      <trkpt lat="43.9903" lon="4.62463">
        <ele>223.969254</ele>
        <time>2009-03-22T10:39:07Z</time>
      </trkpt>
      <trkpt lat="43.99026" lon="4.62433">
        <ele>222.818451</ele>
        <time>2009-03-22T10:39:11Z</time>
      </trkpt>
      <trkpt lat="43.99026" lon="4.62408">
        <ele>221.627213</ele>
        <time>2009-03-22T10:39:14Z</time>
      </trkpt>
      <trkpt lat="43.99033" lon="4.62364">
        <ele>219.237717</ele>
        <time>2009-03-22T10:39:20Z</time>
      </trkpt>
      <trkpt lat="43.99028" lon="4.62332">
        <ele>216.751633</ele>
        <time>2009-03-22T10:39:26Z</time>
      </trkpt>
      <trkpt lat="43.99032" lon="4.62298">
        <ele>214.659439</ele>
        <time>2009-03-22T10:39:31Z</time>
      </trkpt>
      <trkpt lat="43.99031" lon="4.62272">
        <ele>213.061295</ele>
        <time>2009-03-22T10:39:35Z</time>
      </trkpt>
      <trkpt lat="43.99027" lon="4.62269">
        <ele>212.659607</ele>
        <time>2009-03-22T10:39:36Z</time>
      </trkpt>
      <trkpt lat="43.9899" lon="4.62271">
        <ele>211.507858</ele>
        <time>2009-03-22T10:39:45Z</time>
      </trkpt>
      <trkpt lat="43.98975" lon="4.62266">
        <ele>210.888168</ele>
        <time>2009-03-22T10:39:49Z</time>
      </trkpt>
      <trkpt lat="43.98965" lon="4.62268">
        <ele>210.751816</ele>
        <time>2009-03-22T10:39:53Z</time>
      </trkpt>
      <trkpt lat="43.98955" lon="4.62268">
        <ele>210.229538</ele>
        <time>2009-03-22T10:39:56Z</time>
      </trkpt>
      <trkpt lat="43.98944" lon="4.62271">
        <ele>209.889755</ele>
        <time>2009-03-22T10:39:59Z</time>
      </trkpt>
      <trkpt lat="43.98932" lon="4.62281">
        <ele>209.868515</ele>
        <time>2009-03-22T10:40:04Z</time>
      </trkpt>
      <trkpt lat="43.9893" lon="4.62285">
        <ele>209.929031</ele>
        <time>2009-03-22T10:40:05Z</time>
      </trkpt>
      <trkpt lat="43.98912" lon="4.6229">
        <ele>208.928207</ele>
        <time>2009-03-22T10:40:10Z</time>
      </trkpt>
      <trkpt lat="43.98904" lon="4.62289">
        <ele>208.292252</ele>
        <time>2009-03-22T10:40:12Z</time>
      </trkpt>
      <trkpt lat="43.9889" lon="4.62292">
        <ele>207.288559</ele>
        <time>2009-03-22T10:40:18Z</time>
      </trkpt>
      <trkpt lat="43.98885" lon="4.62294">
        <ele>206.9776</ele>
        <time>2009-03-22T10:40:20Z</time>
      </trkpt>
      <trkpt lat="43.98878" lon="4.62307">
        <ele>206.866425</ele>
        <time>2009-03-22T10:40:25Z</time>
      </trkpt>
      <trkpt lat="43.98875" lon="4.62311">
        <ele>206.674576</ele>
        <time>2009-03-22T10:40:27Z</time>
      </trkpt>
      <trkpt lat="43.98858" lon="4.62306">
        <ele>205.049896</ele>
        <time>2009-03-22T10:40:33Z</time>
      </trkpt>
      <trkpt lat="43.98838" lon="4.62291">
        <ele>202.742233</ele>
        <time>2009-03-22T10:40:38Z</time>
      </trkpt>
      <trkpt lat="43.98814" lon="4.62275">
        <ele>199.881897</ele>
        <time>2009-03-22T10:40:45Z</time>
      </trkpt>
      <trkpt lat="43.98805" lon="4.62271">
        <ele>198.862198</ele>
        <time>2009-03-22T10:40:47Z</time>
      </trkpt>
      <trkpt lat="43.98774" lon="4.62249">
        <ele>194.827042</ele>
        <time>2009-03-22T10:40:55Z</time>
      </trkpt>
      <trkpt lat="43.98761" lon="4.62241">
        <ele>193.197174</ele>
        <time>2009-03-22T10:40:58Z</time>
      </trkpt>
      <trkpt lat="43.98741" lon="4.62219">
        <ele>190.101761</ele>
        <time>2009-03-22T10:41:03Z</time>
      </trkpt>
      <trkpt lat="43.98734" lon="4.62209">
        <ele>189.016418</ele>
        <time>2009-03-22T10:41:05Z</time>
      </trkpt>
      <trkpt lat="43.98722" lon="4.62194">
        <ele>187.25235</ele>
        <time>2009-03-22T10:41:08Z</time>
      </trkpt>
      <trkpt lat="43.98701" lon="4.62183">
        <ele>185.133957</ele>
        <time>2009-03-22T10:41:13Z</time>
      </trkpt>
      <trkpt lat="43.98682" lon="4.62178">
        <ele>184.104797</ele>
        <time>2009-03-22T10:41:18Z</time>
      </trkpt>
      <trkpt lat="43.9867" lon="4.62182">
        <ele>183.80899</ele>
        <time>2009-03-22T10:41:22Z</time>
      </trkpt>
      <trkpt lat="43.98635" lon="4.62208">
        <ele>184.029663</ele>
        <time>2009-03-22T10:41:33Z</time>
      </trkpt>
      <trkpt lat="43.9862" lon="4.62214">
        <ele>183.807678</ele>
        <time>2009-03-22T10:41:37Z</time>
      </trkpt>
      <trkpt lat="43.98553" lon="4.62203">
        <ele>182.237625</ele>
        <time>2009-03-22T10:41:56Z</time>
      </trkpt>
      <trkpt lat="43.98537" lon="4.62192">
        <ele>181.667908</ele>
        <time>2009-03-22T10:42:01Z</time>
      </trkpt>
      <trkpt lat="43.98535" lon="4.62172">
        <ele>180.956863</ele>
        <time>2009-03-22T10:42:05Z</time>
      </trkpt>
      <trkpt lat="43.9853" lon="4.62149">
        <ele>180.359955</ele>
        <time>2009-03-22T10:42:09Z</time>
      </trkpt>
      <trkpt lat="43.98517" lon="4.62122">
        <ele>179.151276</ele>
        <time>2009-03-22T10:42:14Z</time>
      </trkpt>
      <trkpt lat="43.98503" lon="4.621">
        <ele>177.487137</ele>
        <time>2009-03-22T10:42:18Z</time>
      </trkpt>
      <trkpt lat="43.98487" lon="4.62079">
        <ele>175.149887</ele>
        <time>2009-03-22T10:42:22Z</time>
      </trkpt>
      <trkpt lat="43.98475" lon="4.62075">
        <ele>174.130478</ele>
        <time>2009-03-22T10:42:26Z</time>
      </trkpt>
      <trkpt lat="43.98458" lon="4.62059">
        <ele>172.741455</ele>
        <time>2009-03-22T10:42:31Z</time>
      </trkpt>
      <trkpt lat="43.9845" lon="4.62066">
        <ele>173.003815</ele>
        <time>2009-03-22T10:42:35Z</time>
      </trkpt>
      <trkpt lat="43.98447" lon="4.62082">
        <ele>173.712128</ele>
        <time>2009-03-22T10:42:38Z</time>
      </trkpt>
      <trkpt lat="43.9844" lon="4.62108">
        <ele>174.496658</ele>
        <time>2009-03-22T10:42:43Z</time>
      </trkpt>
      <trkpt lat="43.98439" lon="4.62129">
        <ele>175.767715</ele>
        <time>2009-03-22T10:42:47Z</time>
      </trkpt>
      <trkpt lat="43.98432" lon="4.62142">
        <ele>176.238403</ele>
        <time>2009-03-22T10:42:51Z</time>
      </trkpt>
      <trkpt lat="43.98416" lon="4.62143">
        <ele>175.595978</ele>
        <time>2009-03-22T10:42:55Z</time>
      </trkpt>
      <trkpt lat="43.98387" lon="4.62158">
        <ele>174.681808</ele>
        <time>2009-03-22T10:43:04Z</time>
      </trkpt>
      <trkpt lat="43.98376" lon="4.62192">
        <ele>175.660934</ele>
        <time>2009-03-22T10:43:13Z</time>
      </trkpt>
      <trkpt lat="43.98372" lon="4.62234">
        <ele>177.180511</ele>
        <time>2009-03-22T10:43:23Z</time>
      </trkpt>
      <trkpt lat="43.98368" lon="4.62247">
        <ele>177.19928</ele>
        <time>2009-03-22T10:43:26Z</time>
      </trkpt>
      <trkpt lat="43.98357" lon="4.62277">
        <ele>177.005386</ele>
        <time>2009-03-22T10:43:33Z</time>
      </trkpt>
      <trkpt lat="43.98353" lon="4.62287">
        <ele>176.872986</ele>
        <time>2009-03-22T10:43:35Z</time>
      </trkpt>
      <trkpt lat="43.98346" lon="4.62309">
        <ele>176.256943</ele>
        <time>2009-03-22T10:43:39Z</time>
      </trkpt>
      <trkpt lat="43.98327" lon="4.62333">
        <ele>174.667313</ele>
        <time>2009-03-22T10:43:45Z</time>
      </trkpt>
      <trkpt lat="43.98318" lon="4.6235">
        <ele>173.762741</ele>
        <time>2009-03-22T10:43:48Z</time>
      </trkpt>
      <trkpt lat="43.98305" lon="4.62361">
        <ele>172.692017</ele>
        <time>2009-03-22T10:43:52Z</time>
      </trkpt>
      <trkpt lat="43.98296" lon="4.62365">
        <ele>172.044022</ele>
        <time>2009-03-22T10:43:54Z</time>
      </trkpt>
      <trkpt lat="43.98278" lon="4.62364">
        <ele>171.408661</ele>
        <time>2009-03-22T10:43:58Z</time>
      </trkpt>
      <trkpt lat="43.98268" lon="4.62366">
        <ele>171.052658</ele>
        <time>2009-03-22T10:44:03Z</time>
      </trkpt>
      <trkpt lat="43.98254" lon="4.62365">
        <ele>170.684296</ele>
        <time>2009-03-22T10:44:07Z</time>
      </trkpt>
      <trkpt lat="43.98243" lon="4.62361">
        <ele>170.472855</ele>
        <time>2009-03-22T10:45:14Z</time>
      </trkpt>
      <trkpt lat="43.98229" lon="4.62358">
        <ele>169.967972</ele>
        <time>2009-03-22T10:45:35Z</time>
      </trkpt>
      <trkpt lat="43.98188" lon="4.62343">
        <ele>168.781403</ele>
        <time>2009-03-22T10:45:43Z</time>
      </trkpt>
      <trkpt lat="43.9816" lon="4.62337">
        <ele>168.199844</ele>
        <time>2009-03-22T10:45:48Z</time>
      </trkpt>
      <trkpt lat="43.98145" lon="4.62347">
        <ele>167.714127</ele>
        <time>2009-03-22T10:45:52Z</time>
      </trkpt>
      <trkpt lat="43.98143" lon="4.62362">
        <ele>167.69014</ele>
        <time>2009-03-22T10:45:55Z</time>
      </trkpt>
      <trkpt lat="43.98146" lon="4.62391">
        <ele>167.757477</ele>
        <time>2009-03-22T10:46:00Z</time>
      </trkpt>
      <trkpt lat="43.9815" lon="4.62413">
        <ele>167.871399</ele>
        <time>2009-03-22T10:46:04Z</time>
      </trkpt>
      <trkpt lat="43.98167" lon="4.62445">
        <ele>168</ele>
        <time>2009-03-22T10:46:11Z</time>
      </trkpt>
      <trkpt lat="43.98188" lon="4.62466">
        <ele>168</ele>
        <time>2009-03-22T10:46:18Z</time>
      </trkpt>
      <trkpt lat="43.98204" lon="4.62476">
        <ele>168.215561</ele>
        <time>2009-03-22T10:46:24Z</time>
      </trkpt>
      <trkpt lat="43.98221" lon="4.62493">
        <ele>168.969131</ele>
        <time>2009-03-22T10:46:31Z</time>
      </trkpt>
      <trkpt lat="43.98242" lon="4.62517">
        <ele>169.68602</ele>
        <time>2009-03-22T10:46:40Z</time>
      </trkpt>
      <trkpt lat="43.98259" lon="4.6254">
        <ele>170.123581</ele>
        <time>2009-03-22T10:46:48Z</time>
      </trkpt>
      <trkpt lat="43.98272" lon="4.6256">
        <ele>170.969193</ele>
        <time>2009-03-22T10:46:55Z</time>
      </trkpt>
      <trkpt lat="43.98314" lon="4.62592">
        <ele>173.816177</ele>
        <time>2009-03-22T10:47:15Z</time>
      </trkpt>
      <trkpt lat="43.98334" lon="4.6261">
        <ele>175.486008</ele>
        <time>2009-03-22T10:47:25Z</time>
      </trkpt>
      <trkpt lat="43.98347" lon="4.6262">
        <ele>176.396713</ele>
        <time>2009-03-22T10:47:31Z</time>
      </trkpt>
      <trkpt lat="43.98364" lon="4.62619">
        <ele>177.024124</ele>
        <time>2009-03-22T10:47:38Z</time>
      </trkpt>
      <trkpt lat="43.98375" lon="4.62624">
        <ele>177.614853</ele>
        <time>2009-03-22T10:47:43Z</time>
      </trkpt>
      <trkpt lat="43.9838" lon="4.6264">
        <ele>178.268845</ele>
        <time>2009-03-22T10:47:48Z</time>
      </trkpt>
      <trkpt lat="43.98375" lon="4.62666">
        <ele>178.97612</ele>
        <time>2009-03-22T10:47:56Z</time>
      </trkpt>
      <trkpt lat="43.98376" lon="4.62683">
        <ele>179.841858</ele>
        <time>2009-03-22T10:48:01Z</time>
      </trkpt>
      <trkpt lat="43.98382" lon="4.62708">
        <ele>181.266296</ele>
        <time>2009-03-22T10:48:08Z</time>
      </trkpt>
      <trkpt lat="43.98385" lon="4.62738">
        <ele>182.629379</ele>
        <time>2009-03-22T10:48:16Z</time>
      </trkpt>
      <trkpt lat="43.98386" lon="4.62772">
        <ele>183.244125</ele>
        <time>2009-03-22T10:48:25Z</time>
      </trkpt>
      <trkpt lat="43.98391" lon="4.62792">
        <ele>183.793137</ele>
        <time>2009-03-22T10:48:32Z</time>
      </trkpt>
      <trkpt lat="43.98404" lon="4.62816">
        <ele>183.614838</ele>
        <time>2009-03-22T10:48:41Z</time>
      </trkpt>
      <trkpt lat="43.98409" lon="4.6283">
        <ele>183.416595</ele>
        <time>2009-03-22T10:48:48Z</time>
      </trkpt>
      <trkpt lat="43.98403" lon="4.62843">
        <ele>182.717255</ele>
        <time>2009-03-22T10:48:54Z</time>
      </trkpt>
      <trkpt lat="43.98394" lon="4.62855">
        <ele>181.949036</ele>
        <time>2009-03-22T10:48:59Z</time>
      </trkpt>
      <trkpt lat="43.98384" lon="4.62867">
        <ele>180.887619</ele>
        <time>2009-03-22T10:49:05Z</time>
      </trkpt>
      <trkpt lat="43.9837" lon="4.62905">
        <ele>178.45752</ele>
        <time>2009-03-22T10:49:17Z</time>
      </trkpt>
      <trkpt lat="43.98356" lon="4.62909">
        <ele>177.93251</ele>
        <time>2009-03-22T10:49:23Z</time>
      </trkpt>
      <trkpt lat="43.98341" lon="4.62898">
        <ele>178.06662</ele>
        <time>2009-03-22T10:49:29Z</time>
      </trkpt>
      <trkpt lat="43.98302" lon="4.62884">
        <ele>177.845825</ele>
        <time>2009-03-22T10:49:42Z</time>
      </trkpt>
      <trkpt lat="43.98292" lon="4.62881">
        <ele>177.698715</ele>
        <time>2009-03-22T10:49:45Z</time>
      </trkpt>
      <trkpt lat="43.98274" lon="4.62886">
        <ele>176.985565</ele>
        <time>2009-03-22T10:49:51Z</time>
      </trkpt>
      <trkpt lat="43.98252" lon="4.62882">
        <ele>176.416473</ele>
        <time>2009-03-22T10:49:57Z</time>
      </trkpt>
      <trkpt lat="43.98229" lon="4.62883">
        <ele>175.513611</ele>
        <time>2009-03-22T10:50:03Z</time>
      </trkpt>
      <trkpt lat="43.98205" lon="4.62893">
        <ele>174.082474</ele>
        <time>2009-03-22T10:50:09Z</time>
      </trkpt>
      <trkpt lat="43.9819" lon="4.62894">
        <ele>173.399765</ele>
        <time>2009-03-22T10:50:13Z</time>
      </trkpt>
      <trkpt lat="43.98173" lon="4.62905">
        <ele>172.667404</ele>
        <time>2009-03-22T10:50:19Z</time>
      </trkpt>
      <trkpt lat="43.98156" lon="4.62908">
        <ele>172.163132</ele>
        <time>2009-03-22T10:50:24Z</time>
      </trkpt>
      <trkpt lat="43.98123" lon="4.62896">
        <ele>171.637924</ele>
        <time>2009-03-22T10:50:33Z</time>
      </trkpt>
      <trkpt lat="43.98087" lon="4.62893">
        <ele>170.850174</ele>
        <time>2009-03-22T10:50:44Z</time>
      </trkpt>
      <trkpt lat="43.9807" lon="4.62895">
        <ele>170.432877</ele>
        <time>2009-03-22T10:50:48Z</time>
      </trkpt>
      <trkpt lat="43.98044" lon="4.62892">
        <ele>169.634491</ele>
        <time>2009-03-22T10:50:54Z</time>
      </trkpt>
      <trkpt lat="43.98031" lon="4.6289">
        <ele>169.178192</ele>
        <time>2009-03-22T10:50:57Z</time>
      </trkpt>
      <trkpt lat="43.98021" lon="4.62891">
        <ele>168.717529</ele>
        <time>2009-03-22T10:51:00Z</time>
      </trkpt>
      <trkpt lat="43.98011" lon="4.62897">
        <ele>168.107025</ele>
        <time>2009-03-22T10:51:04Z</time>
      </trkpt>
      <trkpt lat="43.97974" lon="4.62891">
        <ele>166.603226</ele>
        <time>2009-03-22T10:51:14Z</time>
      </trkpt>
      <trkpt lat="43.97962" lon="4.62899">
        <ele>165.795151</ele>
        <time>2009-03-22T10:51:18Z</time>
      </trkpt>
      <trkpt lat="43.97947" lon="4.62912">
        <ele>164.690765</ele>
        <time>2009-03-22T10:51:22Z</time>
      </trkpt>
      <trkpt lat="43.97921" lon="4.62926">
        <ele>163.073563</ele>
        <time>2009-03-22T10:51:28Z</time>
      </trkpt>
      <trkpt lat="43.9791" lon="4.62938">
        <ele>162.244965</ele>
        <time>2009-03-22T10:51:31Z</time>
      </trkpt>
      <trkpt lat="43.97902" lon="4.62945">
        <ele>161.680313</ele>
        <time>2009-03-22T10:51:33Z</time>
      </trkpt>
      <trkpt lat="43.97893" lon="4.62948">
        <ele>161.22258</ele>
        <time>2009-03-22T10:51:35Z</time>
      </trkpt>
      <trkpt lat="43.97875" lon="4.62948">
        <ele>160.46199</ele>
        <time>2009-03-22T10:51:39Z</time>
      </trkpt>
      <trkpt lat="43.97858" lon="4.62952">
        <ele>159.454407</ele>
        <time>2009-03-22T10:51:44Z</time>
      </trkpt>
      <trkpt lat="43.97854" lon="4.62952">
        <ele>159.241837</ele>
        <time>2009-03-22T10:51:45Z</time>
      </trkpt>
      <trkpt lat="43.97836" lon="4.62963">
        <ele>158.069016</ele>
        <time>2009-03-22T10:51:50Z</time>
      </trkpt>
      <trkpt lat="43.97833" lon="4.62968">
        <ele>157.794327</ele>
        <time>2009-03-22T10:51:51Z</time>
      </trkpt>
      <trkpt lat="43.97826" lon="4.62974">
        <ele>157.14946</ele>
        <time>2009-03-22T10:51:53Z</time>
      </trkpt>
      <trkpt lat="43.97816" lon="4.62989">
        <ele>155.829819</ele>
        <time>2009-03-22T10:51:57Z</time>
      </trkpt>
      <trkpt lat="43.97805" lon="4.63001">
        <ele>154.221497</ele>
        <time>2009-03-22T10:52:11Z</time>
      </trkpt>
      <trkpt lat="43.97802" lon="4.63007">
        <ele>153.57605</ele>
        <time>2009-03-22T10:52:13Z</time>
      </trkpt>
      <trkpt lat="43.97803" lon="4.63023">
        <ele>153.196884</ele>
        <time>2009-03-22T10:52:18Z</time>
      </trkpt>
      <trkpt lat="43.97808" lon="4.63041">
        <ele>153.696548</ele>
        <time>2009-03-22T10:52:23Z</time>
      </trkpt>
      <trkpt lat="43.97803" lon="4.63051">
        <ele>153.263809</ele>
        <time>2009-03-22T10:52:27Z</time>
      </trkpt>
      <trkpt lat="43.97794" lon="4.63053">
        <ele>152.535355</ele>
        <time>2009-03-22T10:52:30Z</time>
      </trkpt>
      <trkpt lat="43.97759" lon="4.63048">
        <ele>150.963898</ele>
        <time>2009-03-22T10:52:38Z</time>
      </trkpt>
      <trkpt lat="43.97734" lon="4.63048">
        <ele>150.413483</ele>
        <time>2009-03-22T10:52:43Z</time>
      </trkpt>
      <trkpt lat="43.97715" lon="4.63056">
        <ele>150.152115</ele>
        <time>2009-03-22T10:52:47Z</time>
      </trkpt>
      <trkpt lat="43.97695" lon="4.63131">
        <ele>151.888199</ele>
        <time>2009-03-22T10:53:09Z</time>
      </trkpt>
      <trkpt lat="43.97696" lon="4.63132">
        <ele>151.942215</ele>
        <time>2009-03-22T10:53:17Z</time>
      </trkpt>
      <trkpt lat="43.97691" lon="4.63158">
        <ele>153.060638</ele>
        <time>2009-03-22T10:53:26Z</time>
      </trkpt>
      <trkpt lat="43.97685" lon="4.63178">
        <ele>153.956924</ele>
        <time>2009-03-22T10:53:32Z</time>
      </trkpt>
      <trkpt lat="43.9768" lon="4.63206">
        <ele>155.030106</ele>
        <time>2009-03-22T10:53:39Z</time>
      </trkpt>
      <trkpt lat="43.97678" lon="4.63235">
        <ele>155.918457</ele>
        <time>2009-03-22T10:53:46Z</time>
      </trkpt>
      <trkpt lat="43.97652" lon="4.63298">
        <ele>157.445435</ele>
        <time>2009-03-22T10:54:05Z</time>
      </trkpt>
      <trkpt lat="43.97639" lon="4.63318">
        <ele>157.838516</ele>
        <time>2009-03-22T10:54:12Z</time>
      </trkpt>
      <trkpt lat="43.97631" lon="4.63339">
        <ele>158.050201</ele>
        <time>2009-03-22T10:54:18Z</time>
      </trkpt>
      <trkpt lat="43.97634" lon="4.63365">
        <ele>158.535004</ele>
        <time>2009-03-22T10:54:25Z</time>
      </trkpt>
      <trkpt lat="43.97633" lon="4.63394">
        <ele>158.96936</ele>
        <time>2009-03-22T10:54:32Z</time>
      </trkpt>
      <trkpt lat="43.97624" lon="4.63418">
        <ele>158.981369</ele>
        <time>2009-03-22T10:54:38Z</time>
      </trkpt>
      <trkpt lat="43.9762" lon="4.63441">
        <ele>159.092133</ele>
        <time>2009-03-22T10:54:43Z</time>
      </trkpt>
      <trkpt lat="43.9761" lon="4.6346">
        <ele>158.85318</ele>
        <time>2009-03-22T10:54:48Z</time>
      </trkpt>
      <trkpt lat="43.97589" lon="4.63482">
        <ele>158.511658</ele>
        <time>2009-03-22T10:54:56Z</time>
      </trkpt>
      <trkpt lat="43.97558" lon="4.63538">
        <ele>158.759338</ele>
        <time>2009-03-22T10:55:11Z</time>
      </trkpt>
      <trkpt lat="43.97548" lon="4.63559">
        <ele>158.908005</ele>
        <time>2009-03-22T10:55:18Z</time>
      </trkpt>
      <trkpt lat="43.97546" lon="4.63575">
        <ele>158.939911</ele>
        <time>2009-03-22T10:55:22Z</time>
      </trkpt>
      <trkpt lat="43.97559" lon="4.63591">
        <ele>159.388779</ele>
        <time>2009-03-22T10:55:30Z</time>
      </trkpt>
      <trkpt lat="43.97563" lon="4.6361">
        <ele>159.60762</ele>
        <time>2009-03-22T10:55:35Z</time>
      </trkpt>
      <trkpt lat="43.97574" lon="4.63636">
        <ele>160.187592</ele>
        <time>2009-03-22T10:55:42Z</time>
      </trkpt>
      <trkpt lat="43.97577" lon="4.63654">
        <ele>160.131317</ele>
        <time>2009-03-22T10:55:46Z</time>
      </trkpt>
      <trkpt lat="43.97578" lon="4.63664">
        <ele>160.052414</ele>
        <time>2009-03-22T10:55:48Z</time>
      </trkpt>
      <trkpt lat="43.97584" lon="4.63677">
        <ele>160.076828</ele>
        <time>2009-03-22T10:55:52Z</time>
      </trkpt>
      <trkpt lat="43.9759" lon="4.63687">
        <ele>160.093109</ele>
        <time>2009-03-22T10:55:59Z</time>
      </trkpt>
      <trkpt lat="43.97599" lon="4.63721">
        <ele>160.91629</ele>
        <time>2009-03-22T10:56:17Z</time>
      </trkpt>
      <trkpt lat="43.9762" lon="4.63777">
        <ele>162.779922</ele>
        <time>2009-03-22T10:56:43Z</time>
      </trkpt>
      <trkpt lat="43.97649" lon="4.63864">
        <ele>165.109924</ele>
        <time>2009-03-22T10:57:21Z</time>
      </trkpt>
      <trkpt lat="43.97656" lon="4.63884">
        <ele>165.622604</ele>
        <time>2009-03-22T10:57:29Z</time>
      </trkpt>
      <trkpt lat="43.97664" lon="4.63898">
        <ele>166.472351</ele>
        <time>2009-03-22T10:57:37Z</time>
      </trkpt>
      <trkpt lat="43.97668" lon="4.63911">
        <ele>167.197159</ele>
        <time>2009-03-22T10:57:44Z</time>
      </trkpt>
      <trkpt lat="43.97671" lon="4.63916">
        <ele>167.495285</ele>
        <time>2009-03-22T10:57:47Z</time>
      </trkpt>
      <trkpt lat="43.97672" lon="4.63922">
        <ele>167.811188</ele>
        <time>2009-03-22T10:57:54Z</time>
      </trkpt>
      <trkpt lat="43.97673" lon="4.63923">
        <ele>167.881882</ele>
        <time>2009-03-22T10:58:11Z</time>
      </trkpt>
      <trkpt lat="43.97673" lon="4.63923">
        <ele>167.898514</ele>
        <time>2009-03-22T10:58:15Z</time>
      </trkpt>
      <trkpt lat="43.97676" lon="4.63938">
        <ele>168.651901</ele>
        <time>2009-03-22T10:58:25Z</time>
      </trkpt>
      <trkpt lat="43.97681" lon="4.63956">
        <ele>170.080536</ele>
        <time>2009-03-22T10:58:52Z</time>
      </trkpt>
      <trkpt lat="43.97691" lon="4.63982">
        <ele>172.713623</ele>
        <time>2009-03-22T10:59:12Z</time>
      </trkpt>
      <trkpt lat="43.97695" lon="4.6399">
        <ele>173.647552</ele>
        <time>2009-03-22T10:59:17Z</time>
      </trkpt>
      <trkpt lat="43.97714" lon="4.64051">
        <ele>181.430405</ele>
        <time>2009-03-22T10:59:53Z</time>
      </trkpt>
      <trkpt lat="43.97724" lon="4.64076">
        <ele>184.953629</ele>
        <time>2009-03-22T11:00:10Z</time>
      </trkpt>
      <trkpt lat="43.97727" lon="4.64088">
        <ele>186.369415</ele>
        <time>2009-03-22T11:00:18Z</time>
      </trkpt>
      <trkpt lat="43.9776" lon="4.64178">
        <ele>197.471161</ele>
        <time>2009-03-22T11:01:13Z</time>
      </trkpt>
      <trkpt lat="43.97766" lon="4.64199">
        <ele>199.621674</ele>
        <time>2009-03-22T11:01:27Z</time>
      </trkpt>
      <trkpt lat="43.9776" lon="4.64208">
        <ele>199.101883</ele>
        <time>2009-03-22T11:01:33Z</time>
      </trkpt>
      <trkpt lat="43.97758" lon="4.6421">
        <ele>198.910889</ele>
        <time>2009-03-22T11:01:34Z</time>
      </trkpt>
      <trkpt lat="43.97752" lon="4.64202">
        <ele>198.171585</ele>
        <time>2009-03-22T11:01:39Z</time>
      </trkpt>
      <trkpt lat="43.97748" lon="4.642">
        <ele>197.563919</ele>
        <time>2009-03-22T11:01:42Z</time>
      </trkpt>
      <trkpt lat="43.97747" lon="4.64198">
        <ele>197.386505</ele>
        <time>2009-03-22T11:01:44Z</time>
      </trkpt>
      <trkpt lat="43.97737" lon="4.64197">
        <ele>196.084213</ele>
        <time>2009-03-22T11:01:49Z</time>
      </trkpt>
      <trkpt lat="43.97732" lon="4.64199">
        <ele>195.466934</ele>
        <time>2009-03-22T11:01:51Z</time>
      </trkpt>
      <trkpt lat="43.97716" lon="4.64194">
        <ele>193.197525</ele>
        <time>2009-03-22T11:01:56Z</time>
      </trkpt>
      <trkpt lat="43.97708" lon="4.6419">
        <ele>191.998947</ele>
        <time>2009-03-22T11:01:58Z</time>
      </trkpt>
      <trkpt lat="43.9769" lon="4.64175">
        <ele>189.333206</ele>
        <time>2009-03-22T11:02:02Z</time>
      </trkpt>
      <trkpt lat="43.97673" lon="4.64165">
        <ele>187.373947</ele>
        <time>2009-03-22T11:02:06Z</time>
      </trkpt>
      <trkpt lat="43.97662" lon="4.64169">
        <ele>186.623474</ele>
        <time>2009-03-22T11:02:09Z</time>
      </trkpt>
      <trkpt lat="43.97639" lon="4.64171">
        <ele>184.844193</ele>
        <time>2009-03-22T11:02:14Z</time>
      </trkpt>
      <trkpt lat="43.97629" lon="4.64173">
        <ele>184.043533</ele>
        <time>2009-03-22T11:02:16Z</time>
      </trkpt>
      <trkpt lat="43.97613" lon="4.64182">
        <ele>182.934662</ele>
        <time>2009-03-22T11:02:19Z</time>
      </trkpt>
      <trkpt lat="43.97592" lon="4.64204">
        <ele>181.139252</ele>
        <time>2009-03-22T11:02:24Z</time>
      </trkpt>
      <trkpt lat="43.97577" lon="4.64212">
        <ele>179.869797</ele>
        <time>2009-03-22T11:02:28Z</time>
      </trkpt>
      <trkpt lat="43.97563" lon="4.64206">
        <ele>178.221802</ele>
        <time>2009-03-22T11:02:31Z</time>
      </trkpt>
      <trkpt lat="43.97554" lon="4.64198">
        <ele>177.213867</ele>
        <time>2009-03-22T11:02:33Z</time>
      </trkpt>
      <trkpt lat="43.97541" lon="4.64195">
        <ele>175.734879</ele>
        <time>2009-03-22T11:02:36Z</time>
      </trkpt>
      <trkpt lat="43.97521" lon="4.64192">
        <ele>173.810379</ele>
        <time>2009-03-22T11:02:40Z</time>
      </trkpt>
      <trkpt lat="43.975" lon="4.64179">
        <ele>171.945602</ele>
        <time>2009-03-22T11:02:44Z</time>
      </trkpt>
      <trkpt lat="43.97486" lon="4.64168">
        <ele>170.651321</ele>
        <time>2009-03-22T11:02:47Z</time>
      </trkpt>
      <trkpt lat="43.97471" lon="4.64154">
        <ele>169.351151</ele>
        <time>2009-03-22T11:02:51Z</time>
      </trkpt>
      <trkpt lat="43.97444" lon="4.6417">
        <ele>166.96814</ele>
        <time>2009-03-22T11:02:59Z</time>
      </trkpt>
      <trkpt lat="43.97431" lon="4.64179">
        <ele>166.396149</ele>
        <time>2009-03-22T11:03:04Z</time>
      </trkpt>
      <trkpt lat="43.97419" lon="4.64185">
        <ele>165.898407</ele>
        <time>2009-03-22T11:03:07Z</time>
      </trkpt>
      <trkpt lat="43.97388" lon="4.64183">
        <ele>164.761322</ele>
        <time>2009-03-22T11:03:14Z</time>
      </trkpt>
      <trkpt lat="43.97374" lon="4.6418">
        <ele>164.384949</ele>
        <time>2009-03-22T11:03:17Z</time>
      </trkpt>
      <trkpt lat="43.97359" lon="4.64178">
        <ele>164.009506</ele>
        <time>2009-03-22T11:03:20Z</time>
      </trkpt>
      <trkpt lat="43.97335" lon="4.6418">
        <ele>162.693176</ele>
        <time>2009-03-22T11:03:25Z</time>
      </trkpt>
      <trkpt lat="43.97326" lon="4.64185">
        <ele>162.163315</ele>
        <time>2009-03-22T11:03:27Z</time>
      </trkpt>
      <trkpt lat="43.97298" lon="4.64194">
        <ele>160.755371</ele>
        <time>2009-03-22T11:03:33Z</time>
      </trkpt>
      <trkpt lat="43.97258" lon="4.64195">
        <ele>158.963013</ele>
        <time>2009-03-22T11:03:42Z</time>
      </trkpt>
      <trkpt lat="43.97224" lon="4.6419">
        <ele>157.240662</ele>
        <time>2009-03-22T11:03:49Z</time>
      </trkpt>
      <trkpt lat="43.97207" lon="4.64189">
        <ele>156.503082</ele>
        <time>2009-03-22T11:03:52Z</time>
      </trkpt>
      <trkpt lat="43.97182" lon="4.64191">
        <ele>155.561722</ele>
        <time>2009-03-22T11:03:56Z</time>
      </trkpt>
      <trkpt lat="43.97156" lon="4.642">
        <ele>155.033524</ele>
        <time>2009-03-22T11:04:01Z</time>
      </trkpt>
      <trkpt lat="43.9713" lon="4.64198">
        <ele>154.436356</ele>
        <time>2009-03-22T11:04:06Z</time>
      </trkpt>
      <trkpt lat="43.97099" lon="4.64199">
        <ele>152.739868</ele>
        <time>2009-03-22T11:04:12Z</time>
      </trkpt>
      <trkpt lat="43.97076" lon="4.64197">
        <ele>151.398407</ele>
        <time>2009-03-22T11:04:17Z</time>
      </trkpt>
      <trkpt lat="43.97062" lon="4.64199">
        <ele>150.735092</ele>
        <time>2009-03-22T11:04:20Z</time>
      </trkpt>
      <trkpt lat="43.97053" lon="4.64204">
        <ele>150.413879</ele>
        <time>2009-03-22T11:04:22Z</time>
      </trkpt>
      <trkpt lat="43.97036" lon="4.64217">
        <ele>150.123901</ele>
        <time>2009-03-22T11:04:26Z</time>
      </trkpt>
      <trkpt lat="43.97017" lon="4.6424">
        <ele>149.204514</ele>
        <time>2009-03-22T11:04:31Z</time>
      </trkpt>
      <trkpt lat="43.97007" lon="4.64241">
        <ele>148.340942</ele>
        <time>2009-03-22T11:04:33Z</time>
      </trkpt>
      <trkpt lat="43.96987" lon="4.64238">
        <ele>147.007645</ele>
        <time>2009-03-22T11:04:37Z</time>
      </trkpt>
      <trkpt lat="43.9696" lon="4.64249">
        <ele>146.606247</ele>
        <time>2009-03-22T11:04:42Z</time>
      </trkpt>
      <trkpt lat="43.96946" lon="4.64261">
        <ele>146.528397</ele>
        <time>2009-03-22T11:04:45Z</time>
      </trkpt>
      <trkpt lat="43.9691" lon="4.64303">
        <ele>146.18364</ele>
        <time>2009-03-22T11:04:55Z</time>
      </trkpt>
      <trkpt lat="43.96896" lon="4.64326">
        <ele>146</ele>
        <time>2009-03-22T11:05:00Z</time>
      </trkpt>
      <trkpt lat="43.96885" lon="4.64341">
        <ele>146</ele>
        <time>2009-03-22T11:05:04Z</time>
      </trkpt>
      <trkpt lat="43.96868" lon="4.64352">
        <ele>146.053497</ele>
        <time>2009-03-22T11:05:09Z</time>
      </trkpt>
      <trkpt lat="43.96858" lon="4.64364">
        <ele>146.250366</ele>
        <time>2009-03-22T11:05:13Z</time>
      </trkpt>
      <trkpt lat="43.96851" lon="4.64363">
        <ele>146.217316</ele>
        <time>2009-03-22T11:05:17Z</time>
      </trkpt>
      <trkpt lat="43.96847" lon="4.64357">
        <ele>146.12587</ele>
        <time>2009-03-22T11:05:23Z</time>
      </trkpt>
      <trkpt lat="43.96848" lon="4.64356">
        <ele>146.110245</ele>
        <time>2009-03-22T11:07:39Z</time>
      </trkpt>
      <trkpt lat="43.96844" lon="4.64344">
        <ele>146</ele>
        <time>2009-03-22T11:07:43Z</time>
      </trkpt>
      <trkpt lat="43.96835" lon="4.64324">
        <ele>146</ele>
        <time>2009-03-22T11:07:48Z</time>
      </trkpt>
      <trkpt lat="43.96831" lon="4.64321">
        <ele>146</ele>
        <time>2009-03-22T11:07:49Z</time>
      </trkpt>
      <trkpt lat="43.96818" lon="4.6433">
        <ele>146</ele>
        <time>2009-03-22T11:07:53Z</time>
      </trkpt>
      <trkpt lat="43.96809" lon="4.6435">
        <ele>146.002792</ele>
        <time>2009-03-22T11:07:58Z</time>
      </trkpt>
      <trkpt lat="43.96809" lon="4.6436">
        <ele>146.00975</ele>
        <time>2009-03-22T11:08:01Z</time>
      </trkpt>
      <trkpt lat="43.96813" lon="4.64363">
        <ele>146.015671</ele>
        <time>2009-03-22T11:08:04Z</time>
      </trkpt>
      <trkpt lat="43.96813" lon="4.64371">
        <ele>146.023529</ele>
        <time>2009-03-22T11:08:05Z</time>
      </trkpt>
      <trkpt lat="43.96811" lon="4.64365">
        <ele>146.000748</ele>
        <time>2009-03-22T11:08:06Z</time>
      </trkpt>
      <trkpt lat="43.96803" lon="4.64373">
        <ele>146.07402</ele>
        <time>2009-03-22T11:08:08Z</time>
      </trkpt>
      <trkpt lat="43.968" lon="4.64382">
        <ele>146.136475</ele>
        <time>2009-03-22T11:08:09Z</time>
      </trkpt>
      <trkpt lat="43.96785" lon="4.64429">
        <ele>146.696518</ele>
        <time>2009-03-22T11:08:17Z</time>
      </trkpt>
      <trkpt lat="43.96787" lon="4.6446">
        <ele>146.917343</ele>
        <time>2009-03-22T11:08:24Z</time>
      </trkpt>
      <trkpt lat="43.968" lon="4.64486">
        <ele>147</ele>
        <time>2009-03-22T11:08:31Z</time>
      </trkpt>
      <trkpt lat="43.96816" lon="4.64496">
        <ele>147.186844</ele>
        <time>2009-03-22T11:08:37Z</time>
      </trkpt>
      <trkpt lat="43.96835" lon="4.64502">
        <ele>147.600967</ele>
        <time>2009-03-22T11:08:44Z</time>
      </trkpt>
      <trkpt lat="43.9684" lon="4.64517">
        <ele>147.716568</ele>
        <time>2009-03-22T11:08:48Z</time>
      </trkpt>
      <trkpt lat="43.96838" lon="4.64609">
        <ele>147.724014</ele>
        <time>2009-03-22T11:09:04Z</time>
      </trkpt>
      <trkpt lat="43.96837" lon="4.64619">
        <ele>147.693436</ele>
        <time>2009-03-22T11:09:06Z</time>
      </trkpt>
      <trkpt lat="43.96822" lon="4.64623">
        <ele>147.381866</ele>
        <time>2009-03-22T11:09:12Z</time>
      </trkpt>
      <trkpt lat="43.96809" lon="4.64623">
        <ele>147.07338</ele>
        <time>2009-03-22T11:09:16Z</time>
      </trkpt>
      <trkpt lat="43.96778" lon="4.64651">
        <ele>147.542603</ele>
        <time>2009-03-22T11:09:27Z</time>
      </trkpt>
      <trkpt lat="43.96753" lon="4.64657">
        <ele>148.195938</ele>
        <time>2009-03-22T11:09:35Z</time>
      </trkpt>
      <trkpt lat="43.96738" lon="4.6464">
        <ele>148.261383</ele>
        <time>2009-03-22T11:09:40Z</time>
      </trkpt>
      <trkpt lat="43.9673" lon="4.64616">
        <ele>148.065994</ele>
        <time>2009-03-22T11:09:45Z</time>
      </trkpt>
      <trkpt lat="43.96703" lon="4.646">
        <ele>148.744904</ele>
        <time>2009-03-22T11:09:53Z</time>
      </trkpt>
      <trkpt lat="43.96689" lon="4.64597">
        <ele>149.316055</ele>
        <time>2009-03-22T11:09:57Z</time>
      </trkpt>
      <trkpt lat="43.96674" lon="4.64587">
        <ele>149.893295</ele>
        <time>2009-03-22T11:10:02Z</time>
      </trkpt>
      <trkpt lat="43.96655" lon="4.64552">
        <ele>151.66481</ele>
        <time>2009-03-22T11:10:14Z</time>
      </trkpt>
      <trkpt lat="43.96636" lon="4.64525">
        <ele>152.62764</ele>
        <time>2009-03-22T11:10:25Z</time>
      </trkpt>
      <trkpt lat="43.96625" lon="4.64514">
        <ele>153.200226</ele>
        <time>2009-03-22T11:10:31Z</time>
      </trkpt>
      <trkpt lat="43.96611" lon="4.64506">
        <ele>154.010101</ele>
        <time>2009-03-22T11:10:38Z</time>
      </trkpt>
      <trkpt lat="43.96585" lon="4.645">
        <ele>155.514099</ele>
        <time>2009-03-22T11:10:51Z</time>
      </trkpt>
      <trkpt lat="43.96576" lon="4.64493">
        <ele>156.061859</ele>
        <time>2009-03-22T11:10:56Z</time>
      </trkpt>
      <trkpt lat="43.96565" lon="4.64497">
        <ele>157.057114</ele>
        <time>2009-03-22T11:11:02Z</time>
      </trkpt>
      <trkpt lat="43.9655" lon="4.64506">
        <ele>158.501831</ele>
        <time>2009-03-22T11:11:09Z</time>
      </trkpt>
      <trkpt lat="43.96545" lon="4.64508">
        <ele>158.919601</ele>
        <time>2009-03-22T11:11:11Z</time>
      </trkpt>
      <trkpt lat="43.96535" lon="4.64506">
        <ele>159.762619</ele>
        <time>2009-03-22T11:11:16Z</time>
      </trkpt>
      <trkpt lat="43.96529" lon="4.64506">
        <ele>160.50267</ele>
        <time>2009-03-22T11:11:19Z</time>
      </trkpt>
      <trkpt lat="43.96503" lon="4.645">
        <ele>163.298096</ele>
        <time>2009-03-22T11:11:33Z</time>
      </trkpt>
      <trkpt lat="43.96478" lon="4.64483">
        <ele>165.915985</ele>
        <time>2009-03-22T11:11:49Z</time>
      </trkpt>
      <trkpt lat="43.96455" lon="4.64473">
        <ele>168.753906</ele>
        <time>2009-03-22T11:12:04Z</time>
      </trkpt>
      <trkpt lat="43.96443" lon="4.64474">
        <ele>170.542999</ele>
        <time>2009-03-22T11:12:12Z</time>
      </trkpt>
      <trkpt lat="43.96425" lon="4.64483">
        <ele>173.547165</ele>
        <time>2009-03-22T11:12:25Z</time>
      </trkpt>
      <trkpt lat="43.96425" lon="4.64499">
        <ele>173.98645</ele>
        <time>2009-03-22T11:12:33Z</time>
      </trkpt>
      <trkpt lat="43.96426" lon="4.64501">
        <ele>173.956894</ele>
        <time>2009-03-22T11:12:34Z</time>
      </trkpt>
      <trkpt lat="43.96441" lon="4.64512">
        <ele>171.925552</ele>
        <time>2009-03-22T11:12:41Z</time>
      </trkpt>
      <trkpt lat="43.9644" lon="4.6452">
        <ele>172.254791</ele>
        <time>2009-03-22T11:12:46Z</time>
      </trkpt>
      <trkpt lat="43.96436" lon="4.64528">
        <ele>173.17485</ele>
        <time>2009-03-22T11:12:52Z</time>
      </trkpt>
      <trkpt lat="43.96434" lon="4.64533">
        <ele>173.56926</ele>
        <time>2009-03-22T11:12:55Z</time>
      </trkpt>
      <trkpt lat="43.96429" lon="4.64534">
        <ele>174.4133</ele>
        <time>2009-03-22T11:12:59Z</time>
      </trkpt>
      <trkpt lat="43.96423" lon="4.6453">
        <ele>175.090042</ele>
        <time>2009-03-22T11:13:04Z</time>
      </trkpt>
      <trkpt lat="43.96418" lon="4.64522">
        <ele>175.719894</ele>
        <time>2009-03-22T11:13:11Z</time>
      </trkpt>
      <trkpt lat="43.96412" lon="4.64524">
        <ele>176.647675</ele>
        <time>2009-03-22T11:13:25Z</time>
      </trkpt>
      <trkpt lat="43.96409" lon="4.64521">
        <ele>177.064224</ele>
        <time>2009-03-22T11:13:29Z</time>
      </trkpt>
      <trkpt lat="43.96399" lon="4.64519">
        <ele>178.523361</ele>
        <time>2009-03-22T11:13:40Z</time>
      </trkpt>
      <trkpt lat="43.96391" lon="4.64514">
        <ele>179.4953</ele>
        <time>2009-03-22T11:13:46Z</time>
      </trkpt>
      <trkpt lat="43.96383" lon="4.64519">
        <ele>180.653534</ele>
        <time>2009-03-22T11:13:53Z</time>
      </trkpt>
      <trkpt lat="43.96375" lon="4.64533">
        <ele>181.645813</ele>
        <time>2009-03-22T11:14:02Z</time>
      </trkpt>
      <trkpt lat="43.96368" lon="4.64539">
        <ele>182.639191</ele>
        <time>2009-03-22T11:14:09Z</time>
      </trkpt>
      <trkpt lat="43.96347" lon="4.64544">
        <ele>184.941757</ele>
        <time>2009-03-22T11:14:22Z</time>
      </trkpt>
      <trkpt lat="43.96332" lon="4.64543">
        <ele>186.279022</ele>
        <time>2009-03-22T11:14:30Z</time>
      </trkpt>
      <trkpt lat="43.96317" lon="4.64548">
        <ele>187.425598</ele>
        <time>2009-03-22T11:14:40Z</time>
      </trkpt>
      <trkpt lat="43.96314" lon="4.64557">
        <ele>187.447815</ele>
        <time>2009-03-22T11:14:45Z</time>
      </trkpt>
      <trkpt lat="43.96314" lon="4.64574">
        <ele>186.92012</ele>
        <time>2009-03-22T11:14:51Z</time>
      </trkpt>
      <trkpt lat="43.96307" lon="4.64583">
        <ele>187.446091</ele>
        <time>2009-03-22T11:14:56Z</time>
      </trkpt>
      <trkpt lat="43.96289" lon="4.64592">
        <ele>189.438858</ele>
        <time>2009-03-22T11:15:07Z</time>
      </trkpt>
      <trkpt lat="43.96284" lon="4.64599">
        <ele>190.04863</ele>
        <time>2009-03-22T11:15:11Z</time>
      </trkpt>
      <trkpt lat="43.96269" lon="4.64604">
        <ele>191.723511</ele>
        <time>2009-03-22T11:15:19Z</time>
      </trkpt>
      <trkpt lat="43.96267" lon="4.6461">
        <ele>191.858307</ele>
        <time>2009-03-22T11:15:23Z</time>
      </trkpt>
      <trkpt lat="43.96272" lon="4.64612">
        <ele>191.319</ele>
        <time>2009-03-22T11:15:25Z</time>
      </trkpt>
      <trkpt lat="43.9628" lon="4.6462">
        <ele>190.414459</ele>
        <time>2009-03-22T11:15:28Z</time>
      </trkpt>
      <trkpt lat="43.96277" lon="4.6463">
        <ele>190.68306</ele>
        <time>2009-03-22T11:15:32Z</time>
      </trkpt>
      <trkpt lat="43.96271" lon="4.64632">
        <ele>191.407394</ele>
        <time>2009-03-22T11:15:35Z</time>
      </trkpt>
      <trkpt lat="43.96262" lon="4.64632">
        <ele>192.334885</ele>
        <time>2009-03-22T11:15:39Z</time>
      </trkpt>
      <trkpt lat="43.96263" lon="4.64641">
        <ele>192.375259</ele>
        <time>2009-03-22T11:15:43Z</time>
      </trkpt>
      <trkpt lat="43.9627" lon="4.64656">
        <ele>192.075623</ele>
        <time>2009-03-22T11:15:47Z</time>
      </trkpt>
      <trkpt lat="43.96271" lon="4.64661">
        <ele>192.176804</ele>
        <time>2009-03-22T11:15:52Z</time>
      </trkpt>
      <trkpt lat="43.96268" lon="4.64667">
        <ele>192.640762</ele>
        <time>2009-03-22T11:15:58Z</time>
      </trkpt>
      <trkpt lat="43.96266" lon="4.64668">
        <ele>192.875412</ele>
        <time>2009-03-22T11:16:00Z</time>
      </trkpt>
      <trkpt lat="43.96264" lon="4.64674">
        <ele>193.260269</ele>
        <time>2009-03-22T11:16:05Z</time>
      </trkpt>
      <trkpt lat="43.96266" lon="4.64688">
        <ele>193.528748</ele>
        <time>2009-03-22T11:16:15Z</time>
      </trkpt>
      <trkpt lat="43.96268" lon="4.64692">
        <ele>193.45929</ele>
        <time>2009-03-22T11:16:19Z</time>
      </trkpt>
      <trkpt lat="43.96276" lon="4.64701">
        <ele>193.131378</ele>
        <time>2009-03-22T11:16:28Z</time>
      </trkpt>
      <trkpt lat="43.96279" lon="4.64706">
        <ele>193.310593</ele>
        <time>2009-03-22T11:16:31Z</time>
      </trkpt>
      <trkpt lat="43.96277" lon="4.64711">
        <ele>193.882156</ele>
        <time>2009-03-22T11:16:36Z</time>
      </trkpt>
      <trkpt lat="43.96276" lon="4.64711">
        <ele>193.946381</ele>
        <time>2009-03-22T11:16:37Z</time>
      </trkpt>
      <trkpt lat="43.96262" lon="4.64719">
        <ele>195.822662</ele>
        <time>2009-03-22T11:16:49Z</time>
      </trkpt>
      <trkpt lat="43.9626" lon="4.64724">
        <ele>196.41803</ele>
        <time>2009-03-22T11:16:56Z</time>
      </trkpt>
      <trkpt lat="43.96259" lon="4.64726">
        <ele>196.685699</ele>
        <time>2009-03-22T11:17:00Z</time>
      </trkpt>
      <trkpt lat="43.96253" lon="4.64727">
        <ele>197.286835</ele>
        <time>2009-03-22T11:17:07Z</time>
      </trkpt>
      <trkpt lat="43.96248" lon="4.64727">
        <ele>197.59433</ele>
        <time>2009-03-22T11:17:12Z</time>
      </trkpt>
      <trkpt lat="43.96248" lon="4.64725">
        <ele>197.518066</ele>
        <time>2009-03-22T11:20:00Z</time>
      </trkpt>
      <trkpt lat="43.96236" lon="4.64719">
        <ele>198.079819</ele>
        <time>2009-03-22T11:20:09Z</time>
      </trkpt>
      <trkpt lat="43.96221" lon="4.64714">
        <ele>198.977051</ele>
        <time>2009-03-22T11:20:17Z</time>
      </trkpt>
      <trkpt lat="43.96204" lon="4.64711">
        <ele>199.860641</ele>
        <time>2009-03-22T11:20:26Z</time>
      </trkpt>
      <trkpt lat="43.96193" lon="4.64713">
        <ele>200.436066</ele>
        <time>2009-03-22T11:20:32Z</time>
      </trkpt>
      <trkpt lat="43.96186" lon="4.64723">
        <ele>200.743286</ele>
        <time>2009-03-22T11:20:37Z</time>
      </trkpt>
      <trkpt lat="43.96182" lon="4.64741">
        <ele>200.594879</ele>
        <time>2009-03-22T11:20:42Z</time>
      </trkpt>
      <trkpt lat="43.9619" lon="4.64759">
        <ele>200.797577</ele>
        <time>2009-03-22T11:20:47Z</time>
      </trkpt>
      <trkpt lat="43.962" lon="4.64779">
        <ele>201.488129</ele>
        <time>2009-03-22T11:20:53Z</time>
      </trkpt>
      <trkpt lat="43.9622" lon="4.64834">
        <ele>200.679428</ele>
        <time>2009-03-22T11:21:10Z</time>
      </trkpt>
      <trkpt lat="43.96238" lon="4.64858">
        <ele>198.793625</ele>
        <time>2009-03-22T11:21:15Z</time>
      </trkpt>
      <trkpt lat="43.96276" lon="4.64917">
        <ele>198.174988</ele>
        <time>2009-03-22T11:21:27Z</time>
      </trkpt>
      <trkpt lat="43.96292" lon="4.64935">
        <ele>198.152344</ele>
        <time>2009-03-22T11:21:33Z</time>
      </trkpt>
      <trkpt lat="43.96316" lon="4.64952">
        <ele>197.335907</ele>
        <time>2009-03-22T11:21:41Z</time>
      </trkpt>
      <trkpt lat="43.96341" lon="4.64968">
        <ele>195.241104</ele>
        <time>2009-03-22T11:21:48Z</time>
      </trkpt>
      <trkpt lat="43.96357" lon="4.64972">
        <ele>193.529968</ele>
        <time>2009-03-22T11:21:52Z</time>
      </trkpt>
      <trkpt lat="43.96379" lon="4.64987">
        <ele>189.960327</ele>
        <time>2009-03-22T11:21:57Z</time>
      </trkpt>
      <trkpt lat="43.96392" lon="4.65002">
        <ele>187.668686</ele>
        <time>2009-03-22T11:22:00Z</time>
      </trkpt>
      <trkpt lat="43.96411" lon="4.65016">
        <ele>185.225845</ele>
        <time>2009-03-22T11:22:04Z</time>
      </trkpt>
      <trkpt lat="43.96416" lon="4.65016">
        <ele>184.776199</ele>
        <time>2009-03-22T11:22:05Z</time>
      </trkpt>
      <trkpt lat="43.9644" lon="4.65023">
        <ele>182.549911</ele>
        <time>2009-03-22T11:22:10Z</time>
      </trkpt>
      <trkpt lat="43.96483" lon="4.65044">
        <ele>180.102646</ele>
        <time>2009-03-22T11:22:19Z</time>
      </trkpt>
      <trkpt lat="43.96505" lon="4.6504">
        <ele>179.43988</ele>
        <time>2009-03-22T11:22:23Z</time>
      </trkpt>
      <trkpt lat="43.96521" lon="4.65022">
        <ele>179.215103</ele>
        <time>2009-03-22T11:22:27Z</time>
      </trkpt>
      <trkpt lat="43.96528" lon="4.65017">
        <ele>178.878006</ele>
        <time>2009-03-22T11:22:29Z</time>
      </trkpt>
      <trkpt lat="43.96541" lon="4.65023">
        <ele>177.421982</ele>
        <time>2009-03-22T11:22:33Z</time>
      </trkpt>
      <trkpt lat="43.96592" lon="4.65106">
        <ele>171.092316</ele>
        <time>2009-03-22T11:22:49Z</time>
      </trkpt>
      <trkpt lat="43.96622" lon="4.65162">
        <ele>167.12352</ele>
        <time>2009-03-22T11:23:23Z</time>
      </trkpt>
      <trkpt lat="43.96635" lon="4.65199">
        <ele>165.633591</ele>
        <time>2009-03-22T11:23:29Z</time>
      </trkpt>
      <trkpt lat="43.96649" lon="4.65215">
        <ele>164.519882</ele>
        <time>2009-03-22T11:23:32Z</time>
      </trkpt>
      <trkpt lat="43.96668" lon="4.65251">
        <ele>162.260773</ele>
        <time>2009-03-22T11:23:37Z</time>
      </trkpt>
      <trkpt lat="43.96688" lon="4.65279">
        <ele>160.121399</ele>
        <time>2009-03-22T11:23:44Z</time>
      </trkpt>
      <trkpt lat="43.96687" lon="4.65284">
        <ele>160.051819</ele>
        <time>2009-03-22T11:23:49Z</time>
      </trkpt>
      <trkpt lat="43.9669" lon="4.65296">
        <ele>159.462097</ele>
        <time>2009-03-22T11:24:01Z</time>
      </trkpt>
      <trkpt lat="43.96688" lon="4.65325">
        <ele>158.871567</ele>
        <time>2009-03-22T11:24:07Z</time>
      </trkpt>
      <trkpt lat="43.96694" lon="4.65346">
        <ele>158.158737</ele>
        <time>2009-03-22T11:24:11Z</time>
      </trkpt>
      <trkpt lat="43.96722" lon="4.65369">
        <ele>156.252686</ele>
        <time>2009-03-22T11:24:19Z</time>
      </trkpt>
      <trkpt lat="43.96727" lon="4.65387">
        <ele>155.84314</ele>
        <time>2009-03-22T11:24:26Z</time>
      </trkpt>
      <trkpt lat="43.96735" lon="4.65402">
        <ele>155.410522</ele>
        <time>2009-03-22T11:24:31Z</time>
      </trkpt>
      <trkpt lat="43.9674" lon="4.65418">
        <ele>155.140411</ele>
        <time>2009-03-22T11:24:35Z</time>
      </trkpt>
      <trkpt lat="43.96742" lon="4.65443">
        <ele>155.024872</ele>
        <time>2009-03-22T11:24:40Z</time>
      </trkpt>
      <trkpt lat="43.96741" lon="4.65448">
        <ele>155.097229</ele>
        <time>2009-03-22T11:24:41Z</time>
      </trkpt>
      <trkpt lat="43.9671" lon="4.65482">
        <ele>156.506912</ele>
        <time>2009-03-22T11:24:49Z</time>
      </trkpt>
      <trkpt lat="43.96707" lon="4.6551">
        <ele>156.714874</ele>
        <time>2009-03-22T11:24:54Z</time>
      </trkpt>
      <trkpt lat="43.96701" lon="4.65526">
        <ele>156.915421</ele>
        <time>2009-03-22T11:24:57Z</time>
      </trkpt>
      <trkpt lat="43.96694" lon="4.65535">
        <ele>157.199417</ele>
        <time>2009-03-22T11:24:59Z</time>
      </trkpt>
      <trkpt lat="43.96693" lon="4.65551">
        <ele>157.45993</ele>
        <time>2009-03-22T11:25:02Z</time>
      </trkpt>
      <trkpt lat="43.96697" lon="4.65554">
        <ele>157.451797</ele>
        <time>2009-03-22T11:25:03Z</time>
      </trkpt>
      <trkpt lat="43.96726" lon="4.65572">
        <ele>157.067169</ele>
        <time>2009-03-22T11:25:11Z</time>
      </trkpt>
      <trkpt lat="43.96751" lon="4.6559">
        <ele>156.754959</ele>
        <time>2009-03-22T11:25:18Z</time>
      </trkpt>
      <trkpt lat="43.96775" lon="4.65592">
        <ele>156.244125</ele>
        <time>2009-03-22T11:25:24Z</time>
      </trkpt>
      <trkpt lat="43.96799" lon="4.65588">
        <ele>155.333008</ele>
        <time>2009-03-22T11:25:31Z</time>
      </trkpt>
      <trkpt lat="43.96799" lon="4.65595">
        <ele>155.466629</ele>
        <time>2009-03-22T11:25:35Z</time>
      </trkpt>
      <trkpt lat="43.96791" lon="4.65606">
        <ele>155.986435</ele>
        <time>2009-03-22T11:25:39Z</time>
      </trkpt>
      <trkpt lat="43.96786" lon="4.6562">
        <ele>156.393784</ele>
        <time>2009-03-22T11:25:42Z</time>
      </trkpt>
      <trkpt lat="43.96774" lon="4.65646">
        <ele>156.917511</ele>
        <time>2009-03-22T11:25:47Z</time>
      </trkpt>
      <trkpt lat="43.96758" lon="4.65672">
        <ele>157</ele>
        <time>2009-03-22T11:25:52Z</time>
      </trkpt>
      <trkpt lat="43.96749" lon="4.65696">
        <ele>157</ele>
        <time>2009-03-22T11:25:56Z</time>
      </trkpt>
      <trkpt lat="43.96745" lon="4.65715">
        <ele>157.033142</ele>
        <time>2009-03-22T11:25:59Z</time>
      </trkpt>
      <trkpt lat="43.96735" lon="4.65738">
        <ele>157.407379</ele>
        <time>2009-03-22T11:26:03Z</time>
      </trkpt>
      <trkpt lat="43.96725" lon="4.65767">
        <ele>157.880447</ele>
        <time>2009-03-22T11:26:08Z</time>
      </trkpt>
      <trkpt lat="43.96724" lon="4.65832">
        <ele>158</ele>
        <time>2009-03-22T11:26:21Z</time>
      </trkpt>
      <trkpt lat="43.96729" lon="4.65863">
        <ele>158.365341</ele>
        <time>2009-03-22T11:26:28Z</time>
      </trkpt>
      <trkpt lat="43.96741" lon="4.65892">
        <ele>158.898392</ele>
        <time>2009-03-22T11:26:35Z</time>
      </trkpt>
      <trkpt lat="43.9676" lon="4.65922">
        <ele>158.866318</ele>
        <time>2009-03-22T11:26:43Z</time>
      </trkpt>
      <trkpt lat="43.96784" lon="4.65953">
        <ele>159.157928</ele>
        <time>2009-03-22T11:26:53Z</time>
      </trkpt>
      <trkpt lat="43.968" lon="4.6597">
        <ele>159.53035</ele>
        <time>2009-03-22T11:27:00Z</time>
      </trkpt>
      <trkpt lat="43.96809" lon="4.65984">
        <ele>159.722824</ele>
        <time>2009-03-22T11:27:04Z</time>
      </trkpt>
      <trkpt lat="43.96821" lon="4.65998">
        <ele>160</ele>
        <time>2009-03-22T11:27:09Z</time>
      </trkpt>
      <trkpt lat="43.96859" lon="4.66026">
        <ele>160</ele>
        <time>2009-03-22T11:27:23Z</time>
      </trkpt>
      <trkpt lat="43.96871" lon="4.66033">
        <ele>159.881302</ele>
        <time>2009-03-22T11:27:28Z</time>
      </trkpt>
      <trkpt lat="43.96883" lon="4.66035">
        <ele>159.630478</ele>
        <time>2009-03-22T11:27:33Z</time>
      </trkpt>
      <trkpt lat="43.96904" lon="4.66013">
        <ele>158.906281</ele>
        <time>2009-03-22T11:27:41Z</time>
      </trkpt>
      <trkpt lat="43.96929" lon="4.65993">
        <ele>157.207077</ele>
        <time>2009-03-22T11:27:47Z</time>
      </trkpt>
      <trkpt lat="43.96961" lon="4.65972">
        <ele>153.77359</ele>
        <time>2009-03-22T11:27:54Z</time>
      </trkpt>
      <trkpt lat="43.97002" lon="4.65951">
        <ele>151.023407</ele>
        <time>2009-03-22T11:28:03Z</time>
      </trkpt>
      <trkpt lat="43.9703" lon="4.65933">
        <ele>149.585861</ele>
        <time>2009-03-22T11:28:09Z</time>
      </trkpt>
      <trkpt lat="43.97061" lon="4.65918">
        <ele>147.849457</ele>
        <time>2009-03-22T11:28:15Z</time>
      </trkpt>
      <trkpt lat="43.97071" lon="4.65912">
        <ele>147.489471</ele>
        <time>2009-03-22T11:28:17Z</time>
      </trkpt>
      <trkpt lat="43.97083" lon="4.65922">
        <ele>147.483795</ele>
        <time>2009-03-22T11:28:21Z</time>
      </trkpt>
      <trkpt lat="43.97083" lon="4.65925">
        <ele>147.572372</ele>
        <time>2009-03-22T11:28:22Z</time>
      </trkpt>
      <trkpt lat="43.97095" lon="4.65939">
        <ele>147.772827</ele>
        <time>2009-03-22T11:28:30Z</time>
      </trkpt>
      <trkpt lat="43.97104" lon="4.6596">
        <ele>148.260986</ele>
        <time>2009-03-22T11:28:37Z</time>
      </trkpt>
      <trkpt lat="43.97113" lon="4.65972">
        <ele>148.37738</ele>
        <time>2009-03-22T11:28:42Z</time>
      </trkpt>
      <trkpt lat="43.97115" lon="4.65981">
        <ele>148.743683</ele>
        <time>2009-03-22T11:28:46Z</time>
      </trkpt>
      <trkpt lat="43.97121" lon="4.65987">
        <ele>148.983475</ele>
        <time>2009-03-22T11:29:10Z</time>
      </trkpt>
      <trkpt lat="43.9712" lon="4.65988">
        <ele>149.089294</ele>
        <time>2009-03-22T11:29:18Z</time>
      </trkpt>
      <trkpt lat="43.97136" lon="4.65992">
        <ele>148.869583</ele>
        <time>2009-03-22T11:30:18Z</time>
      </trkpt>
      <trkpt lat="43.97146" lon="4.66004">
        <ele>149.355484</ele>
        <time>2009-03-22T11:30:23Z</time>
      </trkpt>
      <trkpt lat="43.97155" lon="4.66009">
        <ele>149.303024</ele>
        <time>2009-03-22T11:30:27Z</time>
      </trkpt>
      <trkpt lat="43.9717" lon="4.6601">
        <ele>148.833771</ele>
        <time>2009-03-22T11:30:32Z</time>
      </trkpt>
      <trkpt lat="43.9718" lon="4.66018">
        <ele>148.620239</ele>
        <time>2009-03-22T11:30:36Z</time>
      </trkpt>
      <trkpt lat="43.97195" lon="4.66026">
        <ele>148.488312</ele>
        <time>2009-03-22T11:30:44Z</time>
      </trkpt>
      <trkpt lat="43.97198" lon="4.66035">
        <ele>148.521515</ele>
        <time>2009-03-22T11:30:48Z</time>
      </trkpt>
      <trkpt lat="43.97215" lon="4.66043">
        <ele>148.220551</ele>
        <time>2009-03-22T11:30:58Z</time>
      </trkpt>
      <trkpt lat="43.97226" lon="4.6604">
        <ele>147.971161</ele>
        <time>2009-03-22T11:31:03Z</time>
      </trkpt>
      <trkpt lat="43.97231" lon="4.66023">
        <ele>147.865112</ele>
        <time>2009-03-22T11:31:10Z</time>
      </trkpt>
      <trkpt lat="43.97243" lon="4.66028">
        <ele>147.613052</ele>
        <time>2009-03-22T11:31:15Z</time>
      </trkpt>
      <trkpt lat="43.97261" lon="4.66015">
        <ele>147.200348</ele>
        <time>2009-03-22T11:31:22Z</time>
      </trkpt>
      <trkpt lat="43.97281" lon="4.65989">
        <ele>146.982788</ele>
        <time>2009-03-22T11:31:36Z</time>
      </trkpt>
      <trkpt lat="43.97309" lon="4.65976">
        <ele>147.147507</ele>
        <time>2009-03-22T11:31:49Z</time>
      </trkpt>
      <trkpt lat="43.97346" lon="4.6595">
        <ele>147.586411</ele>
        <time>2009-03-22T11:32:03Z</time>
      </trkpt>
      <trkpt lat="43.97363" lon="4.65946">
        <ele>147.680878</ele>
        <time>2009-03-22T11:32:09Z</time>
      </trkpt>
      <trkpt lat="43.97378" lon="4.65951">
        <ele>147.748001</ele>
        <time>2009-03-22T11:32:14Z</time>
      </trkpt>
      <trkpt lat="43.97395" lon="4.6596">
        <ele>147.865723</ele>
        <time>2009-03-22T11:32:20Z</time>
      </trkpt>
      <trkpt lat="43.97469" lon="4.65981">
        <ele>150.461166</ele>
        <time>2009-03-22T11:32:44Z</time>
      </trkpt>
      <trkpt lat="43.97488" lon="4.65985">
        <ele>150.928406</ele>
        <time>2009-03-22T11:32:50Z</time>
      </trkpt>
      <trkpt lat="43.9751" lon="4.65983">
        <ele>152.047729</ele>
        <time>2009-03-22T11:32:57Z</time>
      </trkpt>
      <trkpt lat="43.97525" lon="4.65989">
        <ele>153.003723</ele>
        <time>2009-03-22T11:33:03Z</time>
      </trkpt>
      <trkpt lat="43.97541" lon="4.65997">
        <ele>154.001144</ele>
        <time>2009-03-22T11:33:09Z</time>
      </trkpt>
      <trkpt lat="43.97563" lon="4.66014">
        <ele>154.734161</ele>
        <time>2009-03-22T11:33:20Z</time>
      </trkpt>
      <trkpt lat="43.97584" lon="4.66028">
        <ele>155.464325</ele>
        <time>2009-03-22T11:33:27Z</time>
      </trkpt>
      <trkpt lat="43.97599" lon="4.66042">
        <ele>155.843277</ele>
        <time>2009-03-22T11:33:32Z</time>
      </trkpt>
      <trkpt lat="43.97604" lon="4.66048">
        <ele>155.955444</ele>
        <time>2009-03-22T11:33:34Z</time>
      </trkpt>
      <trkpt lat="43.97601" lon="4.66074">
        <ele>155.556839</ele>
        <time>2009-03-22T11:33:39Z</time>
      </trkpt>
      <trkpt lat="43.97592" lon="4.66116">
        <ele>154.479553</ele>
        <time>2009-03-22T11:33:47Z</time>
      </trkpt>
      <trkpt lat="43.97584" lon="4.66161">
        <ele>152.802338</ele>
        <time>2009-03-22T11:33:55Z</time>
      </trkpt>
      <trkpt lat="43.97577" lon="4.66181">
        <ele>151.832047</ele>
        <time>2009-03-22T11:33:59Z</time>
      </trkpt>
      <trkpt lat="43.97569" lon="4.66217">
        <ele>150.543427</ele>
        <time>2009-03-22T11:34:06Z</time>
      </trkpt>
      <trkpt lat="43.97575" lon="4.66286">
        <ele>150.415756</ele>
        <time>2009-03-22T11:34:20Z</time>
      </trkpt>
      <trkpt lat="43.97574" lon="4.66311">
        <ele>150.632599</ele>
        <time>2009-03-22T11:34:26Z</time>
      </trkpt>
      <trkpt lat="43.97563" lon="4.66341">
        <ele>149.80809</ele>
        <time>2009-03-22T11:34:33Z</time>
      </trkpt>
      <trkpt lat="43.97546" lon="4.66379">
        <ele>149.145844</ele>
        <time>2009-03-22T11:34:41Z</time>
      </trkpt>
      <trkpt lat="43.97547" lon="4.66396">
        <ele>148.88588</ele>
        <time>2009-03-22T11:34:45Z</time>
      </trkpt>
      <trkpt lat="43.97553" lon="4.66401">
        <ele>148.962387</ele>
        <time>2009-03-22T11:34:48Z</time>
      </trkpt>
      <trkpt lat="43.97568" lon="4.66407">
        <ele>149.206497</ele>
        <time>2009-03-22T11:34:54Z</time>
      </trkpt>
      <trkpt lat="43.97574" lon="4.66425">
        <ele>149.060211</ele>
        <time>2009-03-22T11:34:59Z</time>
      </trkpt>
      <trkpt lat="43.97579" lon="4.66448">
        <ele>148.517288</ele>
        <time>2009-03-22T11:35:05Z</time>
      </trkpt>
      <trkpt lat="43.97588" lon="4.6647">
        <ele>147.973129</ele>
        <time>2009-03-22T11:35:11Z</time>
      </trkpt>
      <trkpt lat="43.97595" lon="4.66494">
        <ele>147.485443</ele>
        <time>2009-03-22T11:35:17Z</time>
      </trkpt>
      <trkpt lat="43.97596" lon="4.66509">
        <ele>147.155151</ele>
        <time>2009-03-22T11:35:20Z</time>
      </trkpt>
      <trkpt lat="43.97592" lon="4.66545">
        <ele>146.29097</ele>
        <time>2009-03-22T11:35:26Z</time>
      </trkpt>
      <trkpt lat="43.97578" lon="4.66571">
        <ele>145.775711</ele>
        <time>2009-03-22T11:35:32Z</time>
      </trkpt>
      <trkpt lat="43.97568" lon="4.66598">
        <ele>145.331421</ele>
        <time>2009-03-22T11:35:37Z</time>
      </trkpt>
      <trkpt lat="43.97567" lon="4.66623">
        <ele>145</ele>
        <time>2009-03-22T11:35:41Z</time>
      </trkpt>
      <trkpt lat="43.97568" lon="4.66664">
        <ele>145</ele>
        <time>2009-03-22T11:35:47Z</time>
      </trkpt>
      <trkpt lat="43.97557" lon="4.66709">
        <ele>144.545166</ele>
        <time>2009-03-22T11:35:55Z</time>
      </trkpt>
      <trkpt lat="43.97557" lon="4.66714">
        <ele>144.456696</ele>
        <time>2009-03-22T11:35:56Z</time>
      </trkpt>
      <trkpt lat="43.9755" lon="4.66732">
        <ele>144.168167</ele>
        <time>2009-03-22T11:36:00Z</time>
      </trkpt>
      <trkpt lat="43.9751" lon="4.66769">
        <ele>143.100616</ele>
        <time>2009-03-22T11:36:14Z</time>
      </trkpt>
      <trkpt lat="43.97507" lon="4.66771">
        <ele>143.035095</ele>
        <time>2009-03-22T11:36:15Z</time>
      </trkpt>
      <trkpt lat="43.97478" lon="4.66793">
        <ele>142.292816</ele>
        <time>2009-03-22T11:36:23Z</time>
      </trkpt>
      <trkpt lat="43.97471" lon="4.66796">
        <ele>142.161392</ele>
        <time>2009-03-22T11:36:25Z</time>
      </trkpt>
      <trkpt lat="43.97469" lon="4.66807">
        <ele>141.814789</ele>
        <time>2009-03-22T11:36:28Z</time>
      </trkpt>
      <trkpt lat="43.97479" lon="4.66811">
        <ele>141.710159</ele>
        <time>2009-03-22T11:36:31Z</time>
      </trkpt>
      <trkpt lat="43.97488" lon="4.66818">
        <ele>141.543198</ele>
        <time>2009-03-22T11:36:34Z</time>
      </trkpt>
      <trkpt lat="43.97531" lon="4.66873">
        <ele>140.803177</ele>
        <time>2009-03-22T11:36:50Z</time>
      </trkpt>
      <trkpt lat="43.97539" lon="4.66894">
        <ele>140.117889</ele>
        <time>2009-03-22T11:36:55Z</time>
      </trkpt>
      <trkpt lat="43.97554" lon="4.66908">
        <ele>139.693161</ele>
        <time>2009-03-22T11:37:00Z</time>
      </trkpt>
      <trkpt lat="43.97568" lon="4.66938">
        <ele>138.947556</ele>
        <time>2009-03-22T11:37:07Z</time>
      </trkpt>
      <trkpt lat="43.97594" lon="4.66983">
        <ele>138.828262</ele>
        <time>2009-03-22T11:37:18Z</time>
      </trkpt>
      <trkpt lat="43.97611" lon="4.67009">
        <ele>138.548752</ele>
        <time>2009-03-22T11:37:24Z</time>
      </trkpt>
      <trkpt lat="43.97621" lon="4.67019">
        <ele>138.338898</ele>
        <time>2009-03-22T11:37:27Z</time>
      </trkpt>
      <trkpt lat="43.97628" lon="4.6704">
        <ele>137.885971</ele>
        <time>2009-03-22T11:37:31Z</time>
      </trkpt>
      <trkpt lat="43.97636" lon="4.67056">
        <ele>137.659698</ele>
        <time>2009-03-22T11:37:35Z</time>
      </trkpt>
      <trkpt lat="43.9764" lon="4.67059">
        <ele>137.690094</ele>
        <time>2009-03-22T11:37:36Z</time>
      </trkpt>
      <trkpt lat="43.97657" lon="4.67066">
        <ele>137.88472</ele>
        <time>2009-03-22T11:37:41Z</time>
      </trkpt>
      <trkpt lat="43.97681" lon="4.67081">
        <ele>137.646896</ele>
        <time>2009-03-22T11:37:48Z</time>
      </trkpt>
      <trkpt lat="43.97693" lon="4.67095">
        <ele>137.429428</ele>
        <time>2009-03-22T11:37:52Z</time>
      </trkpt>
      <trkpt lat="43.97705" lon="4.67112">
        <ele>137.174042</ele>
        <time>2009-03-22T11:37:56Z</time>
      </trkpt>
      <trkpt lat="43.97727" lon="4.67137">
        <ele>136.784851</ele>
        <time>2009-03-22T11:38:03Z</time>
      </trkpt>
      <trkpt lat="43.97736" lon="4.67152">
        <ele>136.541351</ele>
        <time>2009-03-22T11:38:07Z</time>
      </trkpt>
      <trkpt lat="43.97742" lon="4.67159">
        <ele>136.433868</ele>
        <time>2009-03-22T11:38:09Z</time>
      </trkpt>
      <trkpt lat="43.97741" lon="4.67175">
        <ele>136.179276</ele>
        <time>2009-03-22T11:38:13Z</time>
      </trkpt>
      <trkpt lat="43.97736" lon="4.67192">
        <ele>135.907074</ele>
        <time>2009-03-22T11:38:19Z</time>
      </trkpt>
      <trkpt lat="43.97733" lon="4.67209">
        <ele>135.63736</ele>
        <time>2009-03-22T11:38:25Z</time>
      </trkpt>
      <trkpt lat="43.97732" lon="4.67226">
        <ele>135.35051</ele>
        <time>2009-03-22T11:38:30Z</time>
      </trkpt>
      <trkpt lat="43.97734" lon="4.67249">
        <ele>134.989609</ele>
        <time>2009-03-22T11:38:36Z</time>
      </trkpt>
      <trkpt lat="43.9774" lon="4.67279">
        <ele>134.512421</ele>
        <time>2009-03-22T11:38:44Z</time>
      </trkpt>
      <trkpt lat="43.97753" lon="4.67304">
        <ele>134.125977</ele>
        <time>2009-03-22T11:38:51Z</time>
      </trkpt>
      <trkpt lat="43.97764" lon="4.67321">
        <ele>133.912872</ele>
        <time>2009-03-22T11:38:56Z</time>
      </trkpt>
      <trkpt lat="43.97768" lon="4.67345">
        <ele>133.622101</ele>
        <time>2009-03-22T11:39:02Z</time>
      </trkpt>
      <trkpt lat="43.97777" lon="4.67361">
        <ele>133.286163</ele>
        <time>2009-03-22T11:39:07Z</time>
      </trkpt>
      <trkpt lat="43.97795" lon="4.67371">
        <ele>133.071457</ele>
        <time>2009-03-22T11:39:13Z</time>
      </trkpt>
      <trkpt lat="43.9781" lon="4.6739">
        <ele>133.076187</ele>
        <time>2009-03-22T11:39:20Z</time>
      </trkpt>
      <trkpt lat="43.97828" lon="4.67403">
        <ele>132.974457</ele>
        <time>2009-03-22T11:39:27Z</time>
      </trkpt>
      <trkpt lat="43.97834" lon="4.6742">
        <ele>132.85791</ele>
        <time>2009-03-22T11:39:32Z</time>
      </trkpt>
      <trkpt lat="43.97834" lon="4.67449">
        <ele>132.773392</ele>
        <time>2009-03-22T11:39:39Z</time>
      </trkpt>
      <trkpt lat="43.97837" lon="4.67479">
        <ele>132.695374</ele>
        <time>2009-03-22T11:39:46Z</time>
      </trkpt>
      <trkpt lat="43.97836" lon="4.67499">
        <ele>132.716919</ele>
        <time>2009-03-22T11:39:52Z</time>
      </trkpt>
      <trkpt lat="43.97826" lon="4.67506">
        <ele>133.055984</ele>
        <time>2009-03-22T11:39:56Z</time>
      </trkpt>
      <trkpt lat="43.97812" lon="4.67505">
        <ele>133.632858</ele>
        <time>2009-03-22T11:40:00Z</time>
      </trkpt>
      <trkpt lat="43.97791" lon="4.675">
        <ele>134.412964</ele>
        <time>2009-03-22T11:40:05Z</time>
      </trkpt>
      <trkpt lat="43.97769" lon="4.67485">
        <ele>134.983887</ele>
        <time>2009-03-22T11:40:11Z</time>
      </trkpt>
      <trkpt lat="43.97745" lon="4.67464">
        <ele>135.198883</ele>
        <time>2009-03-22T11:40:18Z</time>
      </trkpt>
      <trkpt lat="43.97727" lon="4.67442">
        <ele>135.45752</ele>
        <time>2009-03-22T11:40:24Z</time>
      </trkpt>
      <trkpt lat="43.97717" lon="4.67418">
        <ele>135.447296</ele>
        <time>2009-03-22T11:40:29Z</time>
      </trkpt>
      <trkpt lat="43.97702" lon="4.67398">
        <ele>135.459366</ele>
        <time>2009-03-22T11:40:34Z</time>
      </trkpt>
      <trkpt lat="43.97694" lon="4.67367">
        <ele>134.873932</ele>
        <time>2009-03-22T11:40:40Z</time>
      </trkpt>
      <trkpt lat="43.97674" lon="4.67307">
        <ele>134.426697</ele>
        <time>2009-03-22T11:40:52Z</time>
      </trkpt>
      <trkpt lat="43.9766" lon="4.673">
        <ele>134.759521</ele>
        <time>2009-03-22T11:40:56Z</time>
      </trkpt>
      <trkpt lat="43.97634" lon="4.67295">
        <ele>135.256775</ele>
        <time>2009-03-22T11:41:03Z</time>
      </trkpt>
      <trkpt lat="43.97619" lon="4.67302">
        <ele>135.590652</ele>
        <time>2009-03-22T11:41:07Z</time>
      </trkpt>
      <trkpt lat="43.97601" lon="4.67326">
        <ele>136.720169</ele>
        <time>2009-03-22T11:41:14Z</time>
      </trkpt>
      <trkpt lat="43.97589" lon="4.67324">
        <ele>137.068375</ele>
        <time>2009-03-22T11:41:18Z</time>
      </trkpt>
      <trkpt lat="43.9758" lon="4.67318">
        <ele>137.146957</ele>
        <time>2009-03-22T11:41:21Z</time>
      </trkpt>
      <trkpt lat="43.97564" lon="4.67324">
        <ele>138.042892</ele>
        <time>2009-03-22T11:41:26Z</time>
      </trkpt>
      <trkpt lat="43.97549" lon="4.67319">
        <ele>138.475006</ele>
        <time>2009-03-22T11:41:30Z</time>
      </trkpt>
      <trkpt lat="43.97524" lon="4.67307">
        <ele>138.917084</ele>
        <time>2009-03-22T11:41:37Z</time>
      </trkpt>
      <trkpt lat="43.97503" lon="4.67294">
        <ele>139.078812</ele>
        <time>2009-03-22T11:41:43Z</time>
      </trkpt>
      <trkpt lat="43.97487" lon="4.67291">
        <ele>139.597229</ele>
        <time>2009-03-22T11:41:48Z</time>
      </trkpt>
      <trkpt lat="43.97448" lon="4.67279">
        <ele>140.810394</ele>
        <time>2009-03-22T11:42:01Z</time>
      </trkpt>
      <trkpt lat="43.97445" lon="4.67267">
        <ele>139.957367</ele>
        <time>2009-03-22T11:42:05Z</time>
      </trkpt>
      <trkpt lat="43.97441" lon="4.67258">
        <ele>139.417633</ele>
        <time>2009-03-22T11:42:08Z</time>
      </trkpt>
      <trkpt lat="43.9743" lon="4.6725">
        <ele>139.158676</ele>
        <time>2009-03-22T11:42:12Z</time>
      </trkpt>
      <trkpt lat="43.97396" lon="4.67232">
        <ele>139.166763</ele>
        <time>2009-03-22T11:42:24Z</time>
      </trkpt>
      <trkpt lat="43.97386" lon="4.67232">
        <ele>139.630127</ele>
        <time>2009-03-22T11:42:28Z</time>
      </trkpt>
      <trkpt lat="43.97373" lon="4.67209">
        <ele>139.589081</ele>
        <time>2009-03-22T11:42:35Z</time>
      </trkpt>
      <trkpt lat="43.97359" lon="4.67208">
        <ele>140.418732</ele>
        <time>2009-03-22T11:42:41Z</time>
      </trkpt>
      <trkpt lat="43.97351" lon="4.67213">
        <ele>141.117081</ele>
        <time>2009-03-22T11:42:45Z</time>
      </trkpt>
      <trkpt lat="43.97337" lon="4.67213">
        <ele>141.96312</ele>
        <time>2009-03-22T11:42:51Z</time>
      </trkpt>
      <trkpt lat="43.97328" lon="4.67218">
        <ele>142.514618</ele>
        <time>2009-03-22T11:42:56Z</time>
      </trkpt>
      <trkpt lat="43.97325" lon="4.67229">
        <ele>143.058044</ele>
        <time>2009-03-22T11:43:00Z</time>
      </trkpt>
      <trkpt lat="43.97331" lon="4.6724">
        <ele>143.8461</ele>
        <time>2009-03-22T11:43:04Z</time>
      </trkpt>
      <trkpt lat="43.97347" lon="4.67261">
        <ele>144.979233</ele>
        <time>2009-03-22T11:43:12Z</time>
      </trkpt>
      <trkpt lat="43.97364" lon="4.67271">
        <ele>145.046234</ele>
        <time>2009-03-22T11:43:18Z</time>
      </trkpt>
      <trkpt lat="43.97415" lon="4.6732">
        <ele>148.137421</ele>
        <time>2009-03-22T11:43:39Z</time>
      </trkpt>
      <trkpt lat="43.97443" lon="4.67344">
        <ele>149.171555</ele>
        <time>2009-03-22T11:43:52Z</time>
      </trkpt>
      <trkpt lat="43.97455" lon="4.67357">
        <ele>149.742493</ele>
        <time>2009-03-22T11:43:57Z</time>
      </trkpt>
      <trkpt lat="43.97474" lon="4.67363">
        <ele>148.469147</ele>
        <time>2009-03-22T11:44:03Z</time>
      </trkpt>
      <trkpt lat="43.97488" lon="4.67362">
        <ele>147.076828</ele>
        <time>2009-03-22T11:44:06Z</time>
      </trkpt>
      <trkpt lat="43.97509" lon="4.67369">
        <ele>145.879944</ele>
        <time>2009-03-22T11:44:11Z</time>
      </trkpt>
      <trkpt lat="43.97531" lon="4.67388">
        <ele>146.168182</ele>
        <time>2009-03-22T11:44:17Z</time>
      </trkpt>
      <trkpt lat="43.97547" lon="4.67389">
        <ele>144.573761</ele>
        <time>2009-03-22T11:44:21Z</time>
      </trkpt>
      <trkpt lat="43.97555" lon="4.67392">
        <ele>144.074844</ele>
        <time>2009-03-22T11:44:23Z</time>
      </trkpt>
      <trkpt lat="43.97582" lon="4.67413">
        <ele>143.514297</ele>
        <time>2009-03-22T11:44:31Z</time>
      </trkpt>
      <trkpt lat="43.97596" lon="4.67428">
        <ele>143.319229</ele>
        <time>2009-03-22T11:44:37Z</time>
      </trkpt>
      <trkpt lat="43.97605" lon="4.67446">
        <ele>144.132034</ele>
        <time>2009-03-22T11:44:42Z</time>
      </trkpt>
      <trkpt lat="43.97608" lon="4.67455">
        <ele>144.644775</ele>
        <time>2009-03-22T11:44:44Z</time>
      </trkpt>
      <trkpt lat="43.97623" lon="4.67462">
        <ele>143.915024</ele>
        <time>2009-03-22T11:44:50Z</time>
      </trkpt>
      <trkpt lat="43.97628" lon="4.67466">
        <ele>143.723007</ele>
        <time>2009-03-22T11:44:52Z</time>
      </trkpt>
      <trkpt lat="43.97645" lon="4.67489">
        <ele>143.569443</ele>
        <time>2009-03-22T11:45:00Z</time>
      </trkpt>
      <trkpt lat="43.97661" lon="4.67514">
        <ele>144.048141</ele>
        <time>2009-03-22T11:45:08Z</time>
      </trkpt>
      <trkpt lat="43.97683" lon="4.67536">
        <ele>143.162354</ele>
        <time>2009-03-22T11:45:15Z</time>
      </trkpt>
      <trkpt lat="43.97717" lon="4.67565">
        <ele>141.663681</ele>
        <time>2009-03-22T11:45:24Z</time>
      </trkpt>
      <trkpt lat="43.97724" lon="4.67589">
        <ele>142.204819</ele>
        <time>2009-03-22T11:45:29Z</time>
      </trkpt>
      <trkpt lat="43.97725" lon="4.67618">
        <ele>143.553879</ele>
        <time>2009-03-22T11:45:35Z</time>
      </trkpt>
      <trkpt lat="43.97744" lon="4.67651">
        <ele>142.959579</ele>
        <time>2009-03-22T11:45:44Z</time>
      </trkpt>
      <trkpt lat="43.97756" lon="4.67689">
        <ele>143.210617</ele>
        <time>2009-03-22T11:45:52Z</time>
      </trkpt>
      <trkpt lat="43.97766" lon="4.67705">
        <ele>142.735321</ele>
        <time>2009-03-22T11:45:56Z</time>
      </trkpt>
      <trkpt lat="43.97774" lon="4.67722">
        <ele>142.623398</ele>
        <time>2009-03-22T11:46:00Z</time>
      </trkpt>
      <trkpt lat="43.97778" lon="4.67744">
        <ele>143.151657</ele>
        <time>2009-03-22T11:46:07Z</time>
      </trkpt>
      <trkpt lat="43.97783" lon="4.67793">
        <ele>145.642548</ele>
        <time>2009-03-22T11:46:23Z</time>
      </trkpt>
      <trkpt lat="43.97791" lon="4.67848">
        <ele>148.113327</ele>
        <time>2009-03-22T11:46:40Z</time>
      </trkpt>
      <trkpt lat="43.97792" lon="4.67887">
        <ele>150.446243</ele>
        <time>2009-03-22T11:46:54Z</time>
      </trkpt>
      <trkpt lat="43.97792" lon="4.67933">
        <ele>151.900146</ele>
        <time>2009-03-22T11:47:09Z</time>
      </trkpt>
      <trkpt lat="43.97786" lon="4.67963">
        <ele>151.665985</ele>
        <time>2009-03-22T11:47:18Z</time>
      </trkpt>
      <trkpt lat="43.9779" lon="4.68008">
        <ele>150.674973</ele>
        <time>2009-03-22T11:47:29Z</time>
      </trkpt>
      <trkpt lat="43.97786" lon="4.68031">
        <ele>149.925278</ele>
        <time>2009-03-22T11:47:35Z</time>
      </trkpt>
      <trkpt lat="43.97775" lon="4.68056">
        <ele>149.124695</ele>
        <time>2009-03-22T11:47:40Z</time>
      </trkpt>
      <trkpt lat="43.97754" lon="4.68085">
        <ele>147.890121</ele>
        <time>2009-03-22T11:47:47Z</time>
      </trkpt>
      <trkpt lat="43.97694" lon="4.68175">
        <ele>145.095093</ele>
        <time>2009-03-22T11:48:12Z</time>
      </trkpt>
      <trkpt lat="43.97688" lon="4.6819">
        <ele>144.752563</ele>
        <time>2009-03-22T11:48:17Z</time>
      </trkpt>
      <trkpt lat="43.97696" lon="4.68207">
        <ele>144.378769</ele>
        <time>2009-03-22T11:48:22Z</time>
      </trkpt>
      <trkpt lat="43.97725" lon="4.68251">
        <ele>143.822464</ele>
        <time>2009-03-22T11:48:37Z</time>
      </trkpt>
      <trkpt lat="43.97768" lon="4.68309">
        <ele>142.996902</ele>
        <time>2009-03-22T11:48:58Z</time>
      </trkpt>
      <trkpt lat="43.97777" lon="4.68322">
        <ele>142.79364</ele>
        <time>2009-03-22T11:49:04Z</time>
      </trkpt>
      <trkpt lat="43.9784" lon="4.68444">
        <ele>141.147888</ele>
        <time>2009-03-22T11:49:42Z</time>
      </trkpt>
      <trkpt lat="43.97855" lon="4.68469">
        <ele>140.565857</ele>
        <time>2009-03-22T11:49:50Z</time>
      </trkpt>
      <trkpt lat="43.97859" lon="4.68471">
        <ele>140.361237</ele>
        <time>2009-03-22T11:49:52Z</time>
      </trkpt>
      <trkpt lat="43.97876" lon="4.68468">
        <ele>139.414093</ele>
        <time>2009-03-22T11:50:00Z</time>
      </trkpt>
      <trkpt lat="43.9789" lon="4.68471">
        <ele>138.670578</ele>
        <time>2009-03-22T11:50:06Z</time>
      </trkpt>
      <trkpt lat="43.97894" lon="4.6847">
        <ele>138.454803</ele>
        <time>2009-03-22T11:50:10Z</time>
      </trkpt>
      <trkpt lat="43.97893" lon="4.68467">
        <ele>138.43071</ele>
        <time>2009-03-22T11:50:49Z</time>
      </trkpt>
    </trkseg>
  </trk>
</gpx>